GFSMW_sfc_30mbdewp_000.txt.gz
Dewpoint
29 31 33 34 37 43 45 46 47 51 55 57 58 58 58 58 58 59 59 58 58 57 57 57 57 56 54 53 53 53 52 52 52 51 50 50 50 49 49 47 44 41 41
23 23 25 30 34 36 42 46 47 49 52 54 56 56 56 56 57 58 59 59 59 59 58 58 57 57 56 55 54 54 53 52 52 50 50 48 46 47 47 46 45 43 40
24 23 25 28 33 36 38 41 45 47 50 53 54 56 56 57 57 57 58 59 59 59 59 59 59 58 58 57 56 55 54 53 53 52 50 47 44 44 43 43 42 41 43
26 27 28 30 32 36 39 40 42 44 47 51 53 54 54 53 53 53 56 58 59 59 60 60 59 59 58 58 58 57 56 55 54 53 51 52 49 46 44 46 47 46 45
31 32 31 31 33 37 38 39 37 38 41 45 50 52 53 52 52 52 54 55 57 59 59 60 60 59 59 58 58 58 57 56 55 54 52 49 48 48 47 47 47 48 47
33 32 32 33 33 36 38 40 39 38 41 42 44 50 50 51 51 52 53 54 55 56 58 59 59 59 59 58 58 58 57 56 55 54 53 52 50 48 45 45 47 47 47
33 32 31 32 34 34 35 35 37 38 44 48 49 49 51 52 52 52 53 54 54 55 56 57 57 58 58 58 58 58 58 56 55 54 53 53 53 52 48 48 47 47 47
33 32 31 33 33 34 35 34 34 35 37 44 48 51 53 54 54 54 54 54 54 55 56 57 57 57 57 57 57 58 58 57 56 55 54 54 54 53 53 50 49 48 47
32 31 31 34 35 36 36 36 35 35 35 36 39 43 49 52 53 54 54 55 55 55 56 57 57 57 57 56 56 57 57 57 56 55 55 54 54 54 54 53 51 50 48
32 31 33 35 36 36 36 37 37 37 36 36 37 38 39 42 46 49 50 52 53 54 55 56 56 57 57 57 57 57 57 57 57 56 55 55 55 55 54 53 53 51 51
32 34 35 36 38 38 39 39 39 39 39 38 37 38 39 40 41 42 44 46 47 49 51 52 54 54 55 56 56 56 56 56 57 56 56 55 55 54 54 53 52 51 50
35 37 37 37 38 38 38 39 39 39 39 39 39 39 39 39 38 39 41 43 44 45 47 49 51 52 54 55 55 55 56 56 56 56 56 55 55 55 55 53 52 51 51
38 38 38 38 38 38 38 38 38 39 40 39 39 39 40 40 40 39 39 39 40 42 44 46 49 50 52 53 55 55 55 55 56 56 56 56 55 55 55 54 53 52 51
37 38 38 40 39 39 38 37 38 39 40 40 40 40 40 40 40 40 41 40 40 40 41 43 44 47 50 52 54 54 55 56 56 56 56 56 55 55 55 54 54 53 52
36 35 34 34 36 37 38 39 39 40 41 42 40 40 41 41 41 41 41 41 41 41 41 41 43 45 47 51 53 55 56 56 56 56 56 56 56 55 55 54 54 53 53
33 34 35 36 37 42 44 42 42 42 43 43 42 42 42 43 43 43 43 42 42 42 41 41 41 42 46 50 52 54 55 55 56 55 56 56 55 54 54 54 54 54 53
34 36 38 40 43 45 42 42 43 43 42 41 41 42 41 41 41 42 42 43 43 43 42 41 41 41 43 46 50 53 54 55 54 55 55 55 55 54 54 53 53 53 52
35 37 41 45 46 40 39 39 37 38 38 40 38 38 37 37 38 38 39 39 40 41 41 42 42 42 43 45 48 52 53 54 54 55 55 55 55 55 54 53 51 51 48
41 44 43 39 38 36 35 34 34 34 36 36 35 34 34 35 35 36 36 37 37 39 39 40 41 41 42 43 45 49 51 53 53 54 55 55 55 55 53 52 46 40 36
40 39 37 36 34 33 31 31 33 33 34 33 34 33 32 33 33 33 34 36 36 37 38 40 41 41 41 43 45 47 50 51 52 54 54 54 55 55 51 50 42 39 35
37 34 32 31 30 27 25 25 26 26 26 26 25 27 27 26 25 28 32 34 34 36 36 37 39 41 42 42 45 47 48 49 51 52 53 53 53 52 49 48 43 42 34
33 30 29 28 27 26 24 23 23 24 24 23 23 22 21 23 24 22 26 31 32 33 34 35 37 39 41 42 42 45 46 48 50 51 51 52 50 48 47 45 43 39 35
29 28 26 23 22 22 19 16 16 17 19 19 18 18 16 18 19 18 18 27 29 28 28 31 35 37 40 41 41 42 45 44 47 49 51 50 48 46 45 43 40 37 31
21 23 19 15 13 10 11 11 12 14 17 16 15 15 12 15 17 16 15 19 20 26 27 29 31 35 38 39 41 40 40 42 45 46 46 46 45 43 40 39 37 30 29
17 17 12 10 8 9 10 10 11 13 14 14 13 13 13 14 17 16 13 16 19 26 30 32 32 33 34 37 40 40 40 41 43 41 42 41 38 37 37 33 29 29 28
14 10 9 8 8 9 11 11 12 13 12 12 13 14 15 14 17 13 11 16 24 30 30 32 35 33 33 36 38 40 41 42 44 40 39 36 35 35 32 29 29 27 24

GFSMW_sfc_30mbdewp_003.txt.gz
Dewpoint
24 24 28 31 33 34 39 41 42 45 50 54 56 57 57 57 58 58 58 58 57 57 57 57 57 57 55 53 54 54 54 53 53 51 51 51 50 49 50 50 50 48 44
24 26 28 28 28 31 34 38 42 44 46 52 54 55 56 56 56 58 58 58 58 58 58 58 58 58 57 56 55 54 54 54 54 51 51 48 49 49 50 50 50 49 48
30 30 30 33 35 35 36 36 38 44 46 49 52 54 55 56 55 56 57 58 58 58 59 59 59 59 59 58 58 57 55 54 54 53 51 47 46 45 47 47 45 45 44
32 33 34 34 36 40 40 40 40 41 44 48 50 53 54 55 55 55 56 57 58 58 59 59 60 60 60 59 59 58 57 56 55 55 54 52 49 47 45 47 47 45 44
33 33 35 36 37 41 42 42 40 38 40 43 46 51 53 54 54 53 52 52 55 58 59 59 60 60 60 60 60 59 59 58 57 56 55 53 53 52 50 48 47 49 48
33 33 36 37 38 41 41 40 38 40 44 45 43 43 48 50 51 51 51 52 53 55 57 59 59 60 61 60 60 60 59 58 57 57 56 54 51 50 49 48 48 48 48
34 33 36 37 38 39 40 37 37 36 37 41 46 49 49 49 50 51 52 52 52 54 55 57 58 59 60 60 60 60 60 60 59 58 57 56 54 53 51 49 48 47 48
34 34 37 38 38 39 39 38 38 38 38 38 38 40 46 50 52 52 53 53 53 54 55 56 57 58 59 59 59 59 60 60 59 59 57 56 55 54 53 51 49 48 49
33 34 37 38 38 39 40 40 40 40 40 38 38 38 38 39 42 46 49 51 52 54 55 56 56 57 58 57 57 58 58 59 59 59 58 56 55 55 54 54 53 50 48
33 35 37 38 39 40 40 40 40 40 40 39 39 39 39 39 39 40 41 42 44 47 49 51 53 55 56 57 57 57 57 57 58 58 57 56 56 55 55 54 54 54 52
35 37 37 38 39 39 39 39 39 39 40 40 39 40 40 40 40 39 39 39 40 41 42 44 46 49 51 53 55 56 56 57 57 57 57 57 56 55 55 55 55 54 53
37 37 38 38 38 38 38 38 38 39 40 40 40 40 40 40 40 40 40 41 40 40 40 41 42 44 47 50 52 53 54 55 56 56 56 56 56 56 55 55 55 54 54
37 37 38 38 38 39 38 38 37 38 39 40 41 40 41 42 42 41 42 42 41 41 40 41 41 42 44 46 49 51 53 54 55 56 56 56 56 56 55 55 55 54 54
36 36 36 34 34 35 38 40 39 40 41 42 42 42 41 42 42 43 44 44 44 43 43 43 43 42 42 44 46 48 51 53 54 55 55 55 56 56 55 55 55 54 54
36 35 34 34 33 33 39 42 43 43 43 42 41 41 42 42 41 42 43 43 43 44 45 45 44 44 44 43 44 47 49 51 52 54 55 55 55 55 55 55 55 55 54
33 33 33 34 35 39 43 42 42 40 39 39 39 40 39 39 39 39 39 40 40 41 42 43 44 44 44 43 45 46 47 48 50 52 53 54 54 54 54 54 54 55 54
34 32 33 35 39 43 42 40 38 35 34 35 36 36 35 35 36 37 37 37 38 38 39 40 40 41 43 44 45 45 46 47 48 50 52 52 54 54 55 54 53 53 54
33 35 38 42 41 40 38 35 34 33 33 33 34 34 34 34 34 34 34 34 35 36 37 38 39 41 42 43 44 44 46 46 47 49 51 52 52 53 55 55 54 53 53
38 39 39 39 37 35 32 29 27 28 28 28 27 27 26 29 29 28 27 28 31 33 35 36 38 39 40 42 44 45 45 46 47 48 49 50 52 52 53 54 53 52 48
38 37 35 32 31 29 27 26 25 25 25 25 25 25 25 25 24 25 26 26 27 30 33 34 35 36 37 39 42 43 43 43 45 47 47 48 50 53 53 53 52 46 41
34 33 31 29 28 26 25 24 21 20 19 19 20 21 21 21 20 20 23 23 22 25 30 30 30 30 30 34 40 41 42 42 43 44 44 47 49 51 52 52 52 47 39
32 29 27 25 22 20 18 14 10 10 11 12 15 17 17 17 15 15 18 18 17 19 23 25 27 27 28 30 35 39 41 41 40 40 41 44 46 48 51 51 51 46 39
26 23 21 17 11 9 7 7 7 8 8 9 10 11 12 12 13 13 14 16 16 16 16 20 21 23 26 29 31 33 36 38 39 40 41 43 45 46 48 49 46 40 36
17 14 13 7 5 5 6 6 7 8 8 8 9 9 9 11 12 12 13 15 13 13 17 19 24 26 26 29 29 30 32 34 37 39 40 42 43 45 45 44 41 37 35
12 13 8 7 5 5 5 6 7 8 9 10 10 10 11 12 12 12 11 13 13 16 19 22 26 25 27 29 33 33 33 34 37 40 41 41 40 39 39 38 33 33 33
10 8 7 7 7 7 7 8 9 10 10 11 12 13 13 13 13 13 12 15 18 21 23 25 25 27 30 32 33 32 33 34 38 40 41 39 38 36 36 32 31 32 30

GFSMW_sfc_30mbdewp_006.txt.gz
Dewpoint
27 29 31 33 32 31 35 42 43 49 51 53 55 57 58 58 58 58 58 58 57 56 56 55 56 56 54 53 53 53 53 52 53 52 51 51 51 50 49 49 49 49 48
30 32 34 37 38 39 39 38 40 44 49 52 55 56 58 58 58 59 59 58 58 58 57 56 56 56 56 56 53 53 54 54 54 52 51 50 50 51 51 50 50 50 50
33 35 36 38 42 43 42 42 41 42 46 49 53 55 56 57 57 57 57 58 58 58 58 58 57 57 57 57 57 55 54 53 54 54 52 49 47 47 48 49 50 50 50
34 36 38 39 41 43 44 43 41 39 42 46 51 52 53 54 56 56 56 57 58 58 58 59 59 58 58 58 58 58 56 55 54 55 54 52 50 47 46 47 46 46 45
34 36 38 40 42 43 41 41 42 42 43 41 41 45 52 54 55 56 55 55 56 58 58 59 59 59 59 59 59 59 58 57 56 55 54 54 53 52 50 49 49 48 46
34 37 39 40 41 42 41 40 39 39 39 42 46 47 46 46 47 49 51 52 52 54 57 59 59 59 59 59 60 60 59 59 58 56 56 55 53 52 52 50 50 50 49
34 37 39 40 40 41 41 40 40 40 40 40 40 39 41 47 51 52 53 53 53 53 54 56 58 59 59 60 60 60 60 60 59 57 56 56 55 54 52 52 50 49 49
34 37 39 39 40 41 42 41 41 41 41 41 40 40 39 40 41 43 43 47 50 52 54 55 57 57 58 59 60 60 60 60 60 59 58 57 57 56 54 52 50 49 49
33 36 39 39 40 41 41 41 40 41 41 40 40 41 41 40 40 40 41 42 42 43 44 46 49 53 56 58 58 58 59 59 59 59 59 59 58 57 56 55 54 52 49
35 37 38 39 40 40 40 40 40 40 41 41 40 40 41 41 41 41 41 41 41 41 41 41 43 44 47 50 55 57 58 57 58 58 58 59 59 58 57 55 54 54 52
36 37 38 39 39 39 39 39 39 39 40 41 41 41 41 42 42 42 42 42 42 42 42 41 41 41 42 44 46 49 52 55 56 57 57 57 58 57 56 56 55 54 53
37 38 38 38 38 39 39 38 39 39 41 42 42 42 42 42 42 43 43 44 44 44 44 43 43 43 42 42 44 45 47 50 51 53 55 54 55 56 57 56 55 54 54
37 38 38 38 37 36 40 40 41 42 43 43 43 43 43 43 43 43 43 43 43 43 43 44 44 44 44 44 43 43 44 46 48 50 51 52 54 54 54 56 55 54 54
37 36 36 34 34 33 40 42 43 43 43 42 42 41 42 41 40 40 40 40 40 41 41 41 41 42 43 44 44 44 45 46 47 49 50 51 52 53 54 54 55 55 55
36 34 34 34 34 39 43 43 42 40 36 37 37 38 40 38 37 37 37 37 38 38 38 38 39 39 41 41 44 43 44 45 45 46 47 48 50 51 53 54 54 55 55
34 34 33 34 41 43 43 41 39 37 35 35 35 36 36 36 36 35 35 36 36 35 35 36 37 37 39 41 42 44 45 44 45 45 46 47 49 50 51 53 53 54 54
34 33 38 42 40 40 40 36 34 32 32 33 32 32 29 29 30 31 31 31 30 29 32 33 35 36 37 39 41 45 43 43 43 44 45 46 48 49 51 52 53 54 53
37 39 39 39 38 37 35 30 28 27 27 27 27 27 26 26 26 26 25 25 26 27 26 28 33 34 35 38 39 42 39 40 41 42 43 45 46 48 49 50 51 51 53
38 38 37 35 33 31 28 27 26 26 24 23 21 22 23 22 22 22 21 20 22 23 22 23 26 32 32 31 34 33 35 38 39 40 41 41 43 43 47 48 49 48 51
37 34 32 31 30 27 25 24 22 19 16 14 15 16 17 18 17 17 17 16 18 17 19 18 22 27 26 28 31 32 34 33 36 35 36 40 41 42 43 45 46 47 48
33 31 29 27 24 21 19 16 11 8 9 10 11 11 12 12 12 13 14 14 13 16 16 16 17 19 22 21 27 29 32 32 31 29 31 35 39 41 41 42 43 44 48
30 25 24 21 16 11 8 7 7 8 9 9 9 10 10 10 9 10 12 12 11 12 16 15 15 19 18 24 26 29 32 32 31 30 30 34 37 39 40 42 43 45 46
23 17 15 12 8 7 7 6 6 8 8 9 9 10 10 10 10 11 11 11 11 10 13 13 16 15 17 23 24 28 31 32 31 30 32 35 38 39 41 41 42 44 42
16 14 14 9 8 7 6 6 7 8 9 9 10 11 11 12 12 13 13 12 11 13 13 15 16 19 21 22 25 28 30 31 29 31 34 38 40 42 42 42 43 42 37
12 12 9 8 7 8 8 8 9 10 11 11 11 11 13 13 13 13 13 13 14 17 20 20 21 21 21 22 28 30 29 28 29 33 35 37 36 37 38 37 34 34 35
11 10 9 9 8 9 9 10 11 12 12 11 12 13 14 14 15 14 14 16 17 19 24 24 25 23 23 24 28 29 29 30 31 31 33 34 33 34 35 34 31 32 30

GFSMW_sfc_30mbdewp_009.txt.gz
Dewpoint
33 36 38 41 41 41 41 40 41 48 51 56 56 57 56 58 58 58 58 57 56 55 55 55 55 56 54 53 52 52 52 52 52 51 51 51 51 50 50 49 49 48 46
35 37 38 40 42 43 43 42 41 42 48 51 55 57 58 58 58 58 59 59 58 57 56 55 55 56 55 55 53 52 52 53 53 51 51 50 51 51 52 51 50 49 49
36 37 38 40 41 40 42 43 40 40 43 50 55 56 57 57 57 58 58 58 59 59 58 57 56 56 56 55 56 55 53 52 53 53 52 50 48 48 49 51 51 51 50
37 38 39 40 40 40 40 39 40 42 45 44 46 51 53 53 55 56 56 57 58 58 59 58 58 57 57 57 56 57 56 54 53 54 54 53 51 48 47 48 48 50 50
37 38 40 41 41 41 40 39 39 40 40 40 44 46 47 49 51 51 52 52 53 55 57 58 59 58 58 58 58 58 57 58 56 55 54 54 54 53 51 49 49 49 47
37 39 40 41 41 42 41 41 41 40 40 40 39 40 40 43 44 47 46 48 50 52 53 56 59 59 59 59 59 59 59 58 58 58 56 55 53 53 52 51 50 50 50
36 39 39 40 41 41 41 42 41 40 41 41 40 40 40 40 41 41 43 43 45 47 47 50 51 55 59 59 59 59 60 60 59 59 58 58 57 56 54 52 51 50 50
37 38 39 39 41 41 41 40 41 41 41 40 41 41 41 41 41 41 41 42 42 42 43 43 44 45 48 55 59 60 60 60 60 60 60 59 58 58 56 55 53 51 50
36 38 39 40 40 40 40 40 40 41 41 41 41 41 42 42 42 42 42 43 43 43 43 43 42 43 43 44 47 51 55 57 58 57 58 58 58 59 58 57 56 54 51
36 38 39 39 40 40 40 40 40 40 41 42 42 42 42 43 43 43 43 43 44 44 44 44 44 44 43 43 44 44 46 47 50 54 56 55 57 58 58 57 57 56 54
36 37 38 39 39 39 40 40 41 42 43 43 43 43 43 43 43 42 42 43 43 43 43 43 43 44 44 44 44 44 44 44 46 48 50 51 53 54 55 56 56 56 55
37 38 38 38 39 39 41 42 43 43 43 43 42 41 42 42 41 40 40 40 40 41 41 41 41 40 41 42 43 44 44 44 44 46 48 49 50 51 52 53 54 55 55
37 38 38 36 35 41 43 43 42 40 39 39 39 38 40 39 38 38 37 37 37 37 38 38 38 38 39 39 41 41 43 42 44 45 45 46 47 48 48 50 51 53 53
37 37 34 34 40 43 42 42 40 37 36 36 36 35 38 36 35 35 35 35 35 35 35 33 32 35 37 37 39 39 39 41 44 45 45 45 46 46 47 48 49 50 51
36 34 34 41 43 42 41 38 36 34 33 34 33 34 32 30 29 31 31 32 31 32 30 28 31 30 33 35 37 39 42 43 43 43 42 43 45 45 46 48 49 50 50
33 36 42 41 39 39 37 34 31 29 30 29 29 29 28 27 27 27 27 27 27 27 25 27 27 26 33 32 38 42 37 35 34 35 39 41 43 43 45 47 48 50 50
39 40 39 38 37 36 31 28 27 27 27 26 26 24 23 23 23 23 23 23 23 20 19 26 21 25 24 29 36 39 29 29 30 36 36 38 38 37 40 41 43 45 47
38 37 36 34 33 29 28 27 26 25 22 23 17 18 18 18 18 18 18 18 17 16 19 16 18 19 18 28 35 32 26 27 28 34 34 36 30 33 38 40 41 41 43
37 34 32 31 29 26 25 24 22 19 15 12 11 12 13 13 13 14 13 14 13 15 12 13 15 15 17 26 27 25 26 26 27 31 33 28 28 31 35 36 38 38 39
33 31 30 29 25 23 21 17 14 9 9 10 10 11 11 11 11 11 10 10 12 12 12 11 13 17 17 23 22 21 27 26 28 31 30 29 28 30 33 35 35 36 37
32 29 28 25 21 16 11 8 8 7 8 10 10 11 10 10 10 10 10 11 11 11 11 11 11 14 16 15 16 21 24 25 29 30 30 29 29 32 34 37 38 39 40
28 24 22 18 12 8 7 6 6 7 8 9 10 10 10 11 11 11 12 12 12 12 11 12 14 15 16 18 20 22 24 27 28 28 29 28 30 33 36 39 41 42 42
23 16 15 13 9 8 7 6 7 8 9 10 10 11 11 12 12 13 13 13 13 13 13 15 16 19 20 20 22 23 24 27 26 27 28 31 32 34 36 35 37 39 38
15 14 12 9 8 8 8 8 9 10 11 11 11 12 12 13 14 14 14 14 14 15 16 18 20 21 21 22 22 24 28 26 26 27 29 30 29 33 34 34 35 35 34
13 11 10 9 9 9 9 9 10 12 12 12 12 12 14 14 14 14 14 15 16 18 20 21 21 21 22 22 23 26 24 25 25 26 28 27 27 29 30 32 33 34 33
12 10 10 10 9 10 10 11 12 13 13 12 13 13 14 14 15 14 14 17 19 21 21 21 21 21 21 22 23 23 24 24 24 25 24 24 26 29 30 31 31 32 31

GFSMW_sfc_30mbdewp_012.txt.gz
Dewpoint
36 38 39 41 42 43 42 41 41 43 51 55 55 56 55 57 57 57 56 56 56 55 54 54 54 54 54 53 53 52 51 51 52 51 51 51 52 51 51 51 50 50 48
36 37 39 40 40 41 42 41 41 42 48 53 56 56 56 57 58 58 58 58 58 57 56 55 55 55 55 55 54 53 52 52 52 51 51 50 51 51 52 52 51 51 50
36 37 39 40 40 39 39 40 41 44 45 51 55 56 57 57 57 57 57 58 58 59 58 58 56 56 55 55 55 55 53 53 54 53 52 51 49 49 49 51 52 52 52
37 39 40 40 40 40 40 40 40 40 40 45 46 48 50 50 52 54 54 52 54 55 57 58 58 58 57 56 56 56 56 55 54 55 54 53 53 51 50 51 49 50 51
38 39 40 41 41 41 41 41 41 41 40 40 41 41 41 45 47 46 44 45 48 50 50 52 54 57 58 58 57 57 57 57 56 55 55 55 54 54 53 51 51 51 50
39 40 41 41 41 41 41 41 40 41 41 41 41 41 40 41 41 42 42 43 44 46 45 44 46 48 53 57 59 59 59 58 58 58 58 56 55 54 53 53 53 52 52
38 39 39 40 41 40 40 41 41 41 41 41 41 42 42 42 42 42 42 42 42 43 43 43 43 43 44 45 48 54 58 59 59 59 58 58 58 57 56 55 54 53 53
38 38 39 40 40 40 40 40 41 41 42 42 42 42 43 43 43 43 43 43 43 43 43 44 44 44 44 44 44 46 48 51 54 56 57 56 56 57 58 57 55 53 53
37 38 39 40 40 40 40 40 41 42 43 43 43 43 43 42 42 42 42 42 42 42 42 43 43 43 43 44 44 44 45 46 47 48 50 53 53 54 55 55 56 55 52
36 38 39 40 40 40 40 41 42 43 43 42 42 42 42 41 41 40 39 39 40 41 40 40 41 41 41 41 42 42 43 44 44 45 46 48 49 51 53 54 54 54 53
36 38 39 39 40 40 42 42 42 40 40 41 39 39 41 39 39 39 38 38 38 38 38 38 39 38 37 38 39 39 40 42 42 41 44 45 46 47 48 49 50 50 51
36 38 39 39 40 42 42 41 39 37 37 38 37 37 39 37 36 34 34 34 33 33 34 35 33 31 33 36 37 37 40 37 38 40 43 44 45 45 46 46 47 47 48
37 38 35 39 42 42 42 39 37 35 35 36 34 35 34 31 30 30 30 30 30 29 30 28 27 27 32 27 32 37 34 37 40 42 44 43 42 40 42 45 45 45 46
38 35 35 41 42 41 39 36 33 32 33 31 32 31 29 28 28 27 26 26 27 25 25 22 22 28 23 24 32 29 34 40 39 41 35 34 37 38 41 42 43 44 46
36 34 41 42 41 39 35 32 29 28 29 28 29 27 26 25 25 24 23 23 22 21 21 18 18 26 16 22 25 26 32 38 29 29 27 32 37 38 41 39 33 38 42
34 41 41 39 37 35 31 29 27 27 26 27 22 21 19 18 19 18 18 18 17 18 17 16 18 16 14 24 24 28 33 26 25 25 24 29 33 35 35 28 32 37 39
40 39 38 36 35 30 28 27 26 24 22 18 15 14 13 13 13 14 15 14 14 15 13 15 13 12 17 17 24 32 26 19 18 24 24 25 30 35 29 28 30 33 34
38 36 34 32 31 28 27 25 23 15 15 12 11 11 11 11 11 12 11 12 11 11 12 12 12 12 11 17 22 24 18 16 19 25 25 27 32 31 31 30 30 31 32
35 33 32 31 28 24 22 18 12 8 9 9 9 10 11 10 10 10 11 10 10 11 12 11 11 12 13 18 18 19 18 21 23 24 26 30 30 30 30 29 29 30 32
33 31 30 26 22 16 11 7 7 6 7 8 9 10 11 11 10 11 11 11 12 12 12 12 12 12 13 16 18 20 21 22 23 25 30 28 26 27 28 28 29 31 33
31 29 26 20 11 8 7 6 6 6 8 9 10 11 11 11 11 11 12 12 13 13 14 13 13 13 16 18 21 23 24 24 24 25 26 25 26 27 28 30 31 35 36
26 22 18 13 9 8 7 6 6 8 9 10 11 11 12 12 12 12 13 13 14 14 14 14 15 18 19 22 22 24 24 24 27 27 24 25 27 28 29 28 32 34 34
22 16 14 12 9 9 8 7 8 9 10 11 12 12 12 12 13 14 14 14 14 14 15 16 19 20 21 22 23 23 24 27 26 24 25 24 25 25 27 28 30 32 32
14 14 11 9 8 9 9 9 10 11 12 12 12 13 13 14 14 15 15 14 14 15 17 20 20 21 21 23 23 24 26 26 28 26 23 24 23 23 24 27 29 29 32
14 11 10 9 9 9 9 10 11 12 12 13 13 13 14 14 14 14 14 15 16 19 20 20 20 21 23 22 23 24 24 28 24 21 23 20 21 22 24 26 27 28 31
11 9 10 9 9 10 11 11 12 13 13 13 13 14 15 15 15 14 14 17 19 20 20 20 20 20 20 22 20 22 27 25 19 20 20 21 21 22 24 25 26 27 29

GFSMW_sfc_30mbdewp_015.txt.gz
Dewpoint
37 39 40 40 40 41 42 42 43 46 50 54 54 55 55 56 57 57 56 55 55 54 54 53 54 54 53 53 53 52 52 52 52 51 51 52 52 52 52 52 52 51 51
36 39 40 39 39 39 40 40 43 45 49 54 56 56 56 57 57 58 58 58 58 58 57 56 55 55 54 54 54 54 53 53 53 52 52 51 51 52 52 52 52 52 52
37 39 39 40 40 39 40 40 40 41 45 51 54 55 55 54 52 52 51 51 52 53 54 56 57 57 57 55 56 55 54 54 55 53 52 51 50 50 51 51 52 52 52
39 39 40 40 40 40 41 41 41 41 41 42 43 44 45 44 47 47 46 46 47 47 46 47 48 51 55 57 57 57 56 55 54 55 54 54 54 52 51 52 52 51 51
38 39 40 41 41 41 41 41 41 41 42 41 41 41 41 42 43 43 42 43 43 45 43 43 44 44 44 45 47 54 57 57 57 56 56 56 55 54 53 50 52 53 52
39 40 41 41 40 41 41 41 41 41 42 42 42 42 42 42 42 42 41 42 42 43 43 43 43 43 43 44 44 46 47 50 55 56 56 55 54 55 54 52 53 52 53
38 39 40 40 40 40 41 41 41 42 42 42 42 42 42 42 41 41 40 40 41 41 41 42 43 43 43 43 44 45 45 46 47 48 50 53 53 53 53 52 50 50 53
38 39 40 40 40 40 40 41 42 42 43 43 42 42 41 41 40 40 40 39 40 41 40 40 41 42 42 41 41 43 44 45 45 46 47 48 49 51 52 51 50 48 48
38 38 40 40 40 40 40 42 42 42 41 41 42 41 40 40 39 38 39 38 38 37 38 39 39 39 38 37 38 39 40 41 43 45 46 44 45 48 48 49 50 48 44
37 38 39 40 40 40 42 42 42 41 40 39 39 40 39 38 37 36 35 35 36 35 35 36 35 34 32 33 36 36 36 39 41 38 40 42 44 46 46 46 46 46 46
37 38 39 40 40 42 42 40 38 38 37 37 37 37 35 34 33 32 32 32 32 31 30 30 28 25 27 32 26 27 33 37 33 36 39 41 44 44 42 40 41 42 44
37 38 39 39 42 42 40 38 36 35 36 34 35 33 31 29 27 26 27 27 26 26 25 24 20 19 23 28 19 22 32 25 32 36 39 42 36 33 34 37 37 41 42
37 38 38 41 42 41 38 35 33 33 32 32 31 28 25 24 24 24 24 23 23 21 20 20 17 17 20 23 14 25 22 24 27 37 37 28 28 29 34 34 35 40 40
37 36 40 42 41 39 35 32 30 30 29 30 26 22 21 21 20 20 20 19 20 16 17 16 15 16 18 13 15 23 22 25 30 25 26 26 25 26 31 33 36 32 29
37 36 41 41 39 36 32 29 28 27 27 22 19 17 17 17 16 16 16 16 15 14 14 14 13 14 12 10 18 20 23 29 22 18 15 18 25 27 24 28 35 32 30
35 40 40 38 36 33 29 27 26 23 22 14 13 14 13 13 13 13 13 13 12 12 12 12 13 12 12 14 18 21 24 23 17 16 19 25 24 23 29 32 31 31 31
39 40 38 36 34 29 27 25 21 15 14 11 10 11 12 12 12 12 12 11 11 11 11 11 12 12 12 15 19 21 21 18 19 20 22 23 24 27 31 29 28 30 30
39 37 34 32 29 26 24 20 11 8 10 9 9 10 11 11 11 11 11 11 11 11 11 12 12 13 13 16 19 20 20 21 21 22 23 24 26 28 26 25 26 27 28
36 33 31 30 25 22 17 10 7 7 7 8 9 10 11 11 11 11 11 12 12 12 12 13 13 13 13 17 19 21 22 23 23 24 25 26 25 25 24 25 26 27 26
33 31 29 25 22 13 8 6 6 6 7 9 10 11 12 11 11 11 12 12 13 13 13 14 14 15 15 17 21 23 23 23 24 27 29 26 24 23 25 25 27 30 32
31 29 27 17 9 7 7 7 6 6 8 10 11 12 12 12 12 12 13 13 14 14 14 14 15 16 18 21 22 22 23 23 27 29 24 24 24 25 24 23 27 29 31
27 23 17 11 9 8 7 6 5 9 10 11 12 12 12 12 12 13 14 14 14 14 14 15 16 19 20 21 21 23 22 24 26 23 24 27 23 22 22 22 22 25 29
21 16 14 11 9 9 9 6 8 10 11 12 12 12 13 13 14 14 14 14 14 14 15 16 19 20 20 21 22 22 25 26 23 24 29 22 21 21 21 21 24 26 26
17 15 11 9 8 9 9 9 10 11 12 12 12 13 13 15 15 15 15 14 14 15 17 19 20 20 21 21 21 25 26 23 24 31 21 19 19 20 20 22 23 25 25
15 11 10 9 8 9 10 10 11 12 12 13 13 13 14 15 15 15 14 14 16 18 19 20 20 20 20 20 21 23 21 23 30 21 20 18 19 19 19 20 21 23 24
11 9 9 8 9 10 10 11 12 13 13 13 13 14 16 16 16 15 14 16 18 19 19 19 19 19 19 20 21 20 21 24 19 19 18 18 18 19 19 19 21 23 23

GFSMW_sfc_30mbdewp_018.txt.gz
Dewpoint
38 39 39 39 40 40 41 43 46 49 52 54 54 54 54 55 56 57 57 57 56 56 55 54 54 54 54 54 54 54 53 53 53 51 52 52 52 52 52 52 52 52 52
38 38 39 39 39 40 40 41 42 45 51 54 56 56 56 56 54 51 50 50 50 50 51 52 53 55 55 56 55 55 54 54 54 53 53 52 52 53 53 52 52 52 52
37 38 39 40 40 40 40 41 41 41 43 47 51 51 48 47 46 45 44 45 46 44 43 44 45 46 50 51 54 55 56 54 55 55 53 51 50 52 53 52 52 52 52
39 39 39 40 40 40 41 41 42 42 42 42 43 43 43 42 43 43 42 42 44 43 42 43 43 43 44 43 44 44 49 52 52 55 55 55 54 50 49 52 54 52 52
39 40 40 40 41 41 41 42 42 42 42 42 42 42 42 42 42 41 39 40 41 43 42 42 42 42 43 43 43 43 44 45 46 48 51 51 51 52 51 48 49 51 54
39 40 41 41 41 41 41 42 42 42 42 43 43 42 40 39 38 39 38 39 40 41 40 40 41 42 42 42 42 43 43 44 45 46 45 46 47 47 48 47 47 47 49
39 40 39 40 40 40 41 42 42 42 42 42 41 41 40 39 39 38 37 37 37 38 37 38 39 39 40 39 39 40 42 42 43 43 44 46 46 46 46 45 44 45 46
39 39 40 40 40 40 42 42 42 41 42 41 40 40 39 38 37 36 36 35 35 36 35 36 37 36 35 32 34 37 38 38 40 42 43 42 41 43 45 45 44 41 41
38 39 40 40 40 41 42 42 41 40 39 40 39 37 36 34 33 33 33 33 33 31 30 33 32 30 26 28 32 29 26 31 37 36 37 38 40 42 45 45 43 40 36
38 39 40 39 40 42 42 41 40 38 37 38 37 34 32 31 30 28 26 27 28 29 28 25 25 19 21 21 30 21 18 29 27 24 34 36 39 41 41 35 36 37 36
37 38 40 39 41 42 39 38 37 36 35 35 33 29 27 25 24 23 24 24 24 24 22 22 19 17 18 18 26 15 16 24 21 26 28 37 37 29 30 30 35 34 31
37 39 39 40 42 39 37 35 34 33 33 33 28 24 22 21 19 19 21 21 21 20 18 19 16 16 16 18 15 14 21 21 23 25 29 26 25 26 26 29 27 29 32
37 39 39 42 40 37 34 31 31 30 31 28 22 19 17 17 16 16 18 18 17 16 15 16 15 13 15 13 13 14 18 20 23 28 23 19 17 16 22 25 25 27 30
37 38 40 41 39 35 31 29 28 27 27 21 16 14 14 14 13 14 15 15 15 14 13 13 13 13 14 13 12 17 20 22 24 23 19 17 17 22 25 23 25 28 31
36 39 41 39 36 32 29 27 25 25 18 13 12 12 13 13 13 13 13 14 14 13 13 12 12 13 13 10 18 20 21 22 21 19 20 20 22 24 24 25 27 28 27
36 41 40 38 34 30 27 26 20 20 13 11 11 11 11 12 12 12 12 12 12 12 12 12 12 12 12 15 19 21 21 21 20 21 22 22 23 23 26 26 26 25 25
38 40 38 35 30 28 26 23 12 12 10 9 9 10 11 12 12 12 12 11 12 12 12 12 12 13 13 16 20 22 21 22 22 22 22 23 23 26 27 26 26 26 25
39 38 35 30 28 26 23 14 8 8 8 8 8 10 11 12 12 11 11 12 12 12 12 12 13 14 14 18 20 22 22 22 23 23 24 24 27 28 24 24 27 29 30
38 34 32 29 25 20 14 8 6 6 6 8 9 11 11 12 12 11 11 12 13 13 13 13 14 14 15 18 21 22 22 22 23 24 24 28 25 22 24 30 28 25 26
33 31 28 24 16 9 7 6 5 5 7 9 10 11 12 12 11 12 12 13 14 13 14 14 14 15 16 19 22 21 21 22 23 24 29 23 21 24 26 21 22 25 21
30 28 23 14 8 7 7 6 6 6 9 11 12 12 12 12 12 12 13 14 14 14 15 14 14 16 18 20 21 21 21 21 26 27 21 21 23 31 20 20 21 21 22
28 21 15 10 9 8 8 6 6 9 11 11 11 12 12 12 13 13 14 15 15 14 14 14 16 18 20 20 21 21 21 23 24 21 21 24 29 20 19 20 21 21 23
21 17 14 10 9 9 8 7 8 10 11 11 11 11 12 13 14 15 15 15 15 14 14 15 18 19 19 20 21 21 24 23 21 22 27 25 20 18 19 19 19 20 20
18 15 11 8 8 9 9 9 10 11 12 11 11 12 13 15 15 16 16 15 14 14 16 18 19 19 20 20 20 24 24 22 24 29 25 20 17 18 18 18 18 19 20
15 11 9 8 7 9 9 10 11 12 12 12 12 13 14 15 16 16 15 15 15 18 19 19 19 20 20 19 20 22 20 22 26 18 17 17 17 17 17 17 18 18 20
11 9 8 7 7 9 10 10 11 12 13 12 12 13 15 16 16 15 15 17 18 19 18 19 19 19 19 20 21 20 21 23 16 15 17 18 17 16 17 18 18 18 19

GFSMW_sfc_30mbdewp_021.txt.gz
Dewpoint
38 39 40 40 41 41 43 45 49 52 54 54 54 55 56 54 50 48 47 46 48 47 48 48 48 49 51 51 52 53 54 53 54 54 53 54 54 54 54 54 54 53 53
37 39 39 40 40 41 41 42 44 48 55 56 57 55 49 47 46 44 44 43 41 42 41 42 42 42 43 42 42 45 46 48 50 52 52 50 49 50 54 54 54 54 54
37 38 39 40 41 41 41 42 42 43 46 48 46 45 45 44 42 41 41 42 41 40 40 41 41 41 41 40 41 41 42 41 42 45 47 46 44 49 49 50 52 53 54
39 39 39 40 41 41 43 43 43 43 43 44 43 43 42 40 41 40 40 39 40 39 38 39 40 39 40 38 38 38 40 41 40 41 41 44 44 41 40 40 46 47 49
39 39 40 41 41 42 42 43 43 43 43 43 43 41 40 40 39 38 37 37 38 38 36 37 37 36 36 35 37 37 38 38 39 40 41 42 43 43 43 41 40 43 43
40 40 41 41 41 42 43 43 43 42 42 41 40 39 38 37 36 36 34 34 34 35 31 33 32 32 30 31 31 35 34 34 37 39 41 42 40 39 40 39 39 40 41
40 40 40 40 41 41 42 43 42 41 41 40 39 38 37 36 34 33 30 28 27 28 26 27 26 24 23 24 26 33 30 29 33 37 41 33 35 35 37 39 38 39 40
40 40 40 40 41 42 42 42 41 41 40 38 37 35 34 32 30 27 25 24 24 25 24 23 21 18 16 18 20 28 24 21 30 37 27 28 29 33 37 40 40 33 33
39 40 40 40 41 42 41 40 39 39 39 36 33 31 28 25 23 22 22 22 22 17 18 19 18 16 15 15 18 22 14 18 28 22 23 27 32 37 37 36 31 31 28
39 40 40 40 41 42 41 39 38 37 36 33 29 26 22 20 19 18 17 18 17 17 16 15 15 13 14 14 16 15 14 16 20 19 23 28 30 29 29 29 27 27 29
38 40 40 40 42 39 38 37 35 35 32 28 23 20 18 16 15 15 15 16 15 15 13 13 13 12 11 12 12 11 11 16 18 21 23 28 23 21 21 19 23 27 25
38 39 39 41 39 37 35 33 32 32 29 23 18 16 16 14 12 12 14 14 13 13 13 12 11 10 11 12 11 11 14 17 19 20 24 23 19 18 17 18 22 25 25
38 39 40 41 37 34 31 30 29 30 24 19 14 13 12 12 11 11 12 12 12 12 11 11 10 10 11 11 11 13 17 19 20 20 21 19 19 19 20 23 24 26 26
38 39 41 39 36 32 29 27 27 24 19 14 12 11 11 11 11 12 12 12 12 12 11 11 11 11 11 12 12 18 20 20 21 21 20 20 20 20 23 23 25 26 27
37 40 41 38 33 29 27 25 25 17 13 11 11 11 12 13 12 12 12 12 12 12 12 11 11 11 12 9 18 20 21 21 21 21 21 21 22 24 24 24 25 26 26
37 40 40 36 32 28 27 23 20 15 11 9 9 12 12 13 13 12 12 12 12 11 12 11 11 11 11 16 20 22 22 22 22 21 22 22 23 23 24 27 24 24 24
38 40 39 35 30 28 26 18 11 12 9 9 10 11 12 12 12 12 12 12 12 12 11 11 11 11 13 17 20 22 22 22 21 21 22 23 23 25 29 25 23 27 30
40 39 36 30 28 26 19 10 8 8 8 9 9 11 12 12 12 12 11 12 12 12 11 11 12 12 13 18 21 23 21 21 20 21 22 23 25 26 22 23 31 27 21
39 36 31 28 24 19 12 7 6 6 7 8 10 11 12 12 12 11 11 12 12 12 11 12 12 13 14 18 21 22 21 20 20 21 22 26 22 20 23 31 27 20 21
34 31 27 22 14 9 7 6 5 5 7 9 11 12 12 12 11 12 12 13 14 13 13 13 13 14 15 18 21 21 20 20 21 23 25 21 19 20 30 22 20 20 20
29 26 22 14 9 8 7 6 5 5 9 11 12 12 12 12 12 12 14 14 14 14 14 13 13 15 17 19 20 20 20 21 25 26 21 19 21 32 21 19 19 20 20
28 19 13 10 9 8 7 6 4 9 10 12 12 11 11 12 12 14 14 15 15 14 13 13 15 17 19 19 20 20 20 21 23 21 20 24 27 18 18 18 19 19 20
23 17 13 10 9 9 8 5 7 10 11 11 10 11 11 12 14 15 14 15 15 14 14 15 17 18 19 20 20 20 23 24 20 21 25 20 16 16 17 17 18 18 18
18 15 12 9 9 8 8 9 10 11 12 10 10 11 11 14 14 15 15 15 15 15 16 17 18 20 20 20 20 25 24 21 23 28 17 15 15 17 16 16 17 18 18
17 13 10 8 6 8 9 10 11 12 11 11 11 11 12 14 15 16 15 15 16 18 18 18 19 20 21 20 21 20 18 21 25 16 15 14 16 17 15 16 17 17 18
14 10 8 7 7 9 9 10 11 12 12 11 11 12 14 16 15 15 15 17 19 19 18 19 19 19 19 20 20 18 20 23 16 15 15 15 16 16 16 16 17 18 18

GFSMW_sfc_30mbdewp_024.txt.gz
Dewpoint
38 39 40 41 43 45 48 51 53 54 53 53 54 55 51 49 46 44 43 42 42 41 41 41 40 39 39 38 38 38 37 37 39 37 39 39 42 48 44 48 52 49 49
36 38 40 41 41 42 45 49 53 55 56 55 51 49 46 44 43 41 40 38 37 37 37 38 37 38 37 37 37 37 37 36 37 37 36 33 36 36 40 38 38 42 42
35 37 39 41 41 42 42 46 49 48 49 47 46 44 43 41 39 38 38 37 36 36 37 37 36 36 36 35 35 34 36 35 35 35 35 36 33 37 35 35 35 37 40
36 37 39 40 42 43 43 43 43 43 43 43 43 41 39 38 37 36 37 37 36 33 33 33 32 31 30 29 28 28 30 29 28 30 31 34 35 34 34 32 34 34 37
36 38 40 41 43 44 44 43 42 41 41 40 39 37 37 37 37 36 35 34 34 31 26 26 26 24 22 23 22 25 26 23 22 26 29 32 34 33 30 32 27 29 29
37 39 41 41 43 44 43 42 40 40 39 39 38 38 36 36 35 33 31 29 27 25 22 19 19 17 16 19 17 23 25 21 22 24 29 33 30 25 27 26 28 30 30
38 39 40 40 41 42 42 41 39 38 38 37 36 36 35 33 30 27 24 22 20 19 17 16 14 13 14 14 14 22 24 19 22 28 30 23 20 21 23 25 31 30 33
38 39 40 41 41 42 41 40 39 38 37 36 33 32 31 27 24 21 19 16 14 12 14 14 13 11 11 11 12 16 20 14 15 25 21 19 21 23 28 31 30 31 26
39 39 40 41 41 41 41 40 39 37 35 33 29 26 23 21 19 15 13 13 12 10 10 11 11 10 10 10 12 13 11 11 13 15 17 19 20 26 26 24 22 22 20
39 39 40 40 41 41 39 38 37 35 33 29 25 22 17 14 11 10 10 10 9 9 9 8 8 9 8 8 9 9 9 10 13 14 16 18 20 24 22 19 17 16 16
39 39 39 41 42 40 38 36 35 33 29 25 21 18 13 9 8 8 8 8 7 8 8 7 7 6 6 7 7 7 8 11 14 16 16 17 19 19 17 17 16 17 18
39 39 40 41 39 38 36 34 33 30 26 21 17 13 11 8 7 7 7 7 7 7 8 7 7 6 7 8 7 8 10 13 14 16 16 17 17 17 16 17 17 19 20
39 40 40 40 38 36 34 31 31 27 22 18 14 11 9 8 7 7 7 8 8 8 7 7 7 7 8 8 9 8 13 15 16 16 17 18 18 17 17 18 20 21 22
38 39 40 40 37 34 31 29 28 24 18 14 11 10 9 9 8 8 9 8 8 8 8 8 8 8 8 9 7 14 16 17 17 18 19 18 18 18 19 20 20 22 26
38 39 40 39 36 32 29 28 25 19 14 11 10 10 10 10 9 10 9 9 10 9 9 9 8 7 8 6 15 18 19 19 18 19 17 17 19 21 22 22 24 26 25
37 39 40 38 34 31 28 26 23 15 11 8 8 10 9 10 11 10 9 9 9 9 10 8 7 7 7 11 18 22 21 19 18 17 17 17 18 18 22 23 22 22 24
37 40 40 37 33 30 27 23 17 12 8 7 7 8 9 9 9 9 9 9 10 10 9 8 7 7 9 12 19 22 21 19 17 17 16 16 16 21 23 21 20 22 27
39 40 39 35 31 28 24 15 11 8 7 7 6 8 9 8 8 7 7 8 9 9 8 8 8 9 8 14 19 22 20 18 17 16 17 17 20 22 19 20 24 31 23
40 39 36 31 28 25 17 12 7 6 6 6 6 8 8 8 7 7 8 9 9 9 8 9 9 9 9 14 20 21 19 17 16 16 17 22 20 18 19 27 26 21 20
38 34 30 28 24 16 12 9 6 4 5 7 8 8 8 8 7 8 9 10 10 9 9 8 8 9 12 16 20 21 19 18 17 19 22 19 18 19 25 23 19 20 19
33 29 26 23 16 11 9 7 5 4 7 9 9 8 8 7 8 8 10 10 9 9 8 7 8 12 15 16 19 20 19 19 22 24 20 18 19 25 19 17 18 17 19
28 26 21 16 12 10 7 6 3 7 9 9 9 8 8 8 8 10 10 9 9 8 7 8 11 14 15 16 18 20 20 21 23 21 20 21 25 17 16 17 17 18 18
25 22 19 14 10 9 6 4 7 9 9 9 7 7 8 8 10 9 9 8 8 8 9 11 13 14 15 15 17 18 20 22 19 19 22 24 16 15 15 16 16 16 17
23 20 17 14 10 9 8 7 9 9 9 8 7 8 8 10 10 10 9 8 8 10 12 14 15 16 16 16 17 21 24 20 21 24 25 15 14 14 14 14 15 16 18
21 19 16 12 8 7 7 8 9 10 9 8 8 8 9 10 9 8 8 11 13 16 18 17 18 18 17 17 19 21 19 21 23 22 16 13 13 14 14 15 16 17 19
20 17 12 7 6 7 7 9 10 10 10 9 8 9 11 10 8 8 9 12 16 17 18 19 19 18 18 19 20 18 20 23 19 16 13 13 15 15 15 15 16 19 20

GFSMW_sfc_30mbdewp_027.txt.gz
Dewpoint
36 38 40 42 45 48 50 52 52 52 53 53 54 54 50 47 44 42 40 39 38 38 38 38 37 37 37 37 37 37 38 37 37 37 38 37 37 38 39 37 36 37 38
35 38 40 40 42 46 50 53 54 54 53 53 50 48 46 44 42 40 37 36 36 37 36 37 36 36 36 35 34 33 34 33 33 32 32 31 33 35 34 31 35 34 37
35 37 39 41 41 44 48 48 50 49 49 48 46 44 43 41 38 37 37 36 34 33 33 32 31 31 30 29 28 27 30 28 28 27 28 27 25 31 32 32 32 30 30
35 37 39 41 42 43 43 44 44 44 44 44 43 40 38 36 36 37 37 36 34 29 26 26 25 23 22 22 23 21 26 25 22 23 23 28 29 30 29 26 26 27 25
35 37 40 41 43 44 43 42 41 40 39 38 38 37 37 37 36 36 35 33 31 27 22 20 20 18 18 18 20 20 24 24 21 23 24 26 30 30 23 20 20 24 25
36 39 41 42 44 44 42 40 38 38 38 38 38 37 36 35 35 32 30 28 25 23 19 17 15 14 16 17 17 18 23 25 23 23 24 28 26 21 21 21 23 24 28
37 39 40 41 42 42 41 39 38 37 37 37 36 35 34 32 30 28 25 22 20 17 15 14 13 12 13 14 15 19 23 24 22 21 21 24 22 21 22 23 26 29 26
38 39 39 41 41 41 39 38 38 36 36 34 32 31 30 28 24 21 19 16 15 12 12 12 11 11 11 11 12 17 20 18 17 18 18 19 20 20 22 23 27 24 22
38 38 40 41 41 41 40 39 37 36 34 31 28 26 23 21 19 16 14 13 11 8 8 9 9 9 9 9 11 13 12 12 13 15 17 17 19 21 21 25 25 22 18
38 38 40 40 40 40 40 39 37 34 31 29 26 23 18 15 13 12 11 10 8 7 8 7 7 7 7 7 8 10 11 10 12 14 16 17 18 19 21 22 21 20 19
38 39 39 40 41 40 38 37 35 32 29 26 24 21 16 12 11 9 7 7 6 6 7 6 6 6 7 7 8 8 9 9 12 14 16 17 18 19 19 20 19 20 20
38 39 39 41 40 39 37 36 34 31 27 24 21 17 14 11 9 7 7 6 6 6 7 7 7 7 7 8 8 8 8 9 13 15 16 17 17 19 19 19 19 20 20
38 38 39 40 39 38 36 35 32 29 25 21 18 15 12 10 8 7 7 7 7 7 8 9 8 8 8 8 8 8 8 13 15 16 17 18 19 18 18 19 20 21 22
38 39 39 40 38 37 34 33 30 27 22 18 15 14 12 10 9 8 9 8 8 9 9 10 10 9 8 9 9 9 14 17 17 18 19 19 18 17 18 20 21 24 25
38 39 39 39 38 35 33 31 28 23 19 15 13 13 11 10 10 10 10 9 10 10 11 11 10 9 9 7 12 15 18 20 19 19 18 17 19 18 19 19 22 23 27
37 38 39 39 37 34 31 30 25 19 15 13 10 10 9 9 10 10 9 9 10 11 11 11 10 9 8 10 14 17 20 20 20 18 17 17 17 17 18 21 21 23 21
37 38 40 39 36 33 30 29 23 16 13 9 7 8 8 8 8 8 8 9 10 10 10 10 9 8 10 11 14 18 21 21 19 17 16 16 16 19 22 23 21 23 24
37 39 40 38 35 31 29 22 17 12 9 8 7 7 7 7 7 7 8 9 10 10 9 9 9 10 9 11 15 19 21 19 18 17 17 17 19 23 21 20 26 28 25
39 40 39 35 32 28 22 16 12 9 8 8 6 6 6 6 7 7 8 10 10 10 10 10 10 8 8 11 16 19 20 20 18 18 18 20 21 20 20 25 28 22 19
40 38 34 31 28 21 17 14 10 7 6 6 6 6 7 7 6 8 9 10 10 10 10 9 8 7 9 13 17 19 20 20 19 20 24 21 19 20 25 23 18 19 17
35 32 30 28 21 17 15 12 9 6 6 7 7 7 7 7 8 9 10 10 9 9 8 7 7 9 12 14 17 18 19 19 20 25 22 20 19 26 21 17 16 16 19
31 29 26 20 17 16 13 9 5 6 7 8 8 7 8 9 9 9 9 9 9 7 6 7 9 13 13 15 17 18 19 19 23 22 21 19 28 18 16 15 15 17 17
28 26 21 17 15 10 9 7 7 7 7 7 6 7 9 9 9 10 9 9 7 6 7 9 12 14 16 17 17 18 19 21 20 19 20 27 16 15 14 14 15 16 16
26 24 21 17 13 10 7 6 7 8 8 6 7 9 9 10 10 10 9 7 6 9 12 15 17 18 18 18 18 19 22 21 21 25 26 16 14 14 14 15 15 16 18
25 23 22 18 13 7 6 7 8 8 8 8 9 9 10 10 10 9 7 7 9 13 16 18 18 19 18 18 19 19 19 21 24 19 17 14 13 14 15 15 15 17 20
25 23 19 14 8 5 5 7 8 9 9 10 10 10 10 10 9 7 7 9 12 14 14 16 17 17 18 18 18 18 19 22 17 15 13 13 15 15 15 15 18 20 20

GFSMW_sfc_30mbdewp_030.txt.gz
Dewpoint
37 39 41 44 48 50 51 52 53 53 54 54 55 50 46 43 41 39 37 38 38 39 38 39 37 37 37 35 33 33 32 32 33 32 30 29 33 31 32 28 28 36 32
37 39 41 44 49 53 54 54 54 53 52 51 49 47 45 42 40 39 37 36 34 34 33 32 33 30 31 30 27 27 30 31 30 28 25 26 27 30 27 29 34 30 29
37 39 41 43 48 49 50 50 50 49 47 46 44 43 43 41 40 39 37 34 29 28 29 27 26 25 25 24 24 24 26 28 26 24 24 26 26 26 29 30 31 22 19
37 39 41 43 44 46 46 47 47 47 47 45 44 42 39 38 38 38 38 33 29 23 22 23 22 21 22 21 22 21 23 27 24 24 25 26 27 26 28 29 21 21 21
37 40 42 43 44 45 44 42 40 40 39 39 39 39 39 39 38 36 33 31 28 22 20 20 19 18 20 19 20 19 21 27 25 24 24 24 28 29 23 19 18 21 23
38 41 43 45 45 43 41 40 39 39 40 39 39 38 37 35 33 29 28 26 24 22 18 18 17 16 17 18 18 21 20 25 25 24 22 22 26 24 22 20 20 20 21
39 42 43 44 43 41 40 39 38 38 37 36 35 34 32 28 24 24 21 18 18 17 15 15 13 14 15 15 15 18 19 21 21 22 19 21 20 21 21 20 20 20 20
40 41 42 43 42 41 39 38 37 35 34 32 30 28 27 23 20 17 17 15 14 13 13 13 12 12 12 12 12 15 18 16 15 14 16 18 19 20 20 20 21 19 21
40 40 42 42 42 40 39 38 36 34 31 28 25 22 20 18 16 14 14 13 12 9 10 10 10 10 10 10 11 13 12 13 12 13 15 16 18 20 21 21 21 20 20
39 40 41 42 41 40 39 37 35 32 29 26 22 18 15 13 13 12 9 9 8 8 9 9 8 9 9 9 9 11 12 10 12 12 14 16 18 19 19 22 21 21 19
38 40 41 41 41 40 39 36 32 30 27 25 21 16 13 12 10 9 8 7 8 8 8 8 9 9 9 10 10 10 9 9 10 13 15 17 17 18 19 20 21 20 20
39 40 40 40 40 39 37 35 32 28 25 22 18 16 14 11 9 8 8 8 8 8 9 10 10 10 10 11 10 9 10 10 13 15 17 18 18 19 19 20 18 20 20
39 39 41 40 39 38 36 34 30 27 23 20 17 14 12 11 9 9 9 9 9 9 11 11 11 11 12 11 10 10 11 15 17 18 19 19 19 19 19 18 19 19 20
39 39 40 40 39 37 35 32 28 24 20 17 15 14 12 11 10 11 11 10 10 11 12 12 12 13 12 11 10 12 15 17 19 21 21 20 20 18 18 18 19 20 23
38 39 40 39 38 36 33 30 26 21 18 16 15 13 12 11 11 12 12 11 12 12 13 13 13 13 12 9 12 15 16 18 20 21 21 20 19 19 19 19 21 21 21
38 39 40 39 37 34 32 27 22 18 16 14 12 11 10 10 11 11 10 10 12 12 12 12 12 11 11 12 14 16 17 19 20 21 20 19 18 18 20 20 20 22 24
39 39 40 38 35 33 30 24 19 16 12 9 9 9 9 9 9 9 9 10 11 11 11 11 11 10 11 12 14 15 18 20 20 20 19 18 17 19 20 22 23 29 27
38 40 40 37 34 31 29 21 15 11 10 9 8 8 8 7 8 8 9 10 11 11 11 11 11 10 10 11 13 16 19 19 20 20 20 19 20 22 22 23 27 27 29
40 40 37 34 30 25 18 14 11 10 9 8 7 6 7 7 8 8 9 10 11 11 11 10 10 9 8 12 14 17 18 19 19 20 21 22 23 22 21 23 28 23 22
39 36 33 30 24 18 15 12 10 9 7 6 7 7 7 7 7 8 9 11 11 11 11 10 9 9 9 13 16 18 18 18 19 20 25 24 20 19 25 25 19 20 16
33 32 30 25 19 17 15 10 9 6 7 7 8 8 8 8 9 10 10 11 10 10 10 8 7 9 12 15 17 19 19 19 21 25 22 22 19 27 23 18 16 16 19
31 29 20 18 16 17 12 9 6 7 8 8 8 8 8 10 10 10 10 10 10 9 8 7 10 13 16 19 19 19 19 21 23 21 19 20 25 18 17 16 16 17 18
27 21 18 16 13 12 9 7 7 8 7 7 7 8 10 10 11 10 10 10 9 7 8 10 13 16 18 19 19 19 21 22 20 19 22 25 17 15 14 15 16 16 16
24 20 17 14 11 9 7 8 8 8 8 7 8 10 10 12 11 11 11 9 7 9 10 13 16 17 17 18 18 19 21 20 21 25 26 17 14 14 15 15 15 16 20
24 21 19 15 12 8 7 8 8 9 9 9 10 11 11 11 11 10 9 9 10 13 14 15 16 16 16 17 18 18 18 20 23 20 16 13 13 14 15 15 16 18 20
25 23 20 14 9 6 7 8 9 9 10 11 11 12 12 12 11 9 9 12 13 14 15 15 15 16 17 18 18 17 19 21 18 16 13 14 15 16 16 17 18 19 19

GFSMW_sfc_30mbdewp_033.txt.gz
Dewpoint
38 40 42 45 49 50 51 52 53 56 55 51 47 43 40 38 38 37 36 36 36 33 33 33 30 31 30 27 26 28 29 29 28 29 20 25 29 27 24 17 30 30 30
39 41 44 48 52 53 53 53 52 52 52 49 46 43 39 39 38 35 32 30 30 30 28 27 26 25 25 24 23 23 26 30 28 23 25 22 25 25 19 27 28 28 19
39 41 45 49 51 50 50 49 48 47 45 44 42 40 40 39 37 35 31 26 24 25 25 23 22 22 23 21 22 21 23 27 27 25 24 20 22 20 27 26 28 20 20
40 42 46 47 47 47 48 47 46 45 44 43 42 40 39 38 38 36 32 26 21 20 21 20 20 20 20 18 20 21 21 24 25 25 26 24 25 24 26 28 21 21 20
40 42 44 45 44 43 42 41 42 42 41 41 39 39 38 38 37 35 30 25 20 18 19 18 18 17 18 18 18 20 17 21 26 23 24 21 22 25 25 17 19 20 20
41 43 44 44 42 40 39 40 39 39 39 39 38 37 34 31 28 25 24 22 21 18 16 15 15 15 16 16 16 18 17 21 21 22 21 19 18 21 18 17 17 19 18
42 44 43 42 40 39 39 38 37 36 35 34 32 29 25 24 21 20 17 16 15 14 13 13 12 12 13 13 14 16 17 17 17 16 15 17 20 20 19 19 18 17 20
43 44 43 41 40 39 38 37 35 33 31 29 27 24 21 19 18 16 15 14 12 11 11 11 10 10 11 11 12 14 15 14 12 12 13 17 17 19 19 19 20 18 17
42 43 43 41 40 38 37 35 33 30 27 24 21 19 17 15 14 13 12 11 11 9 10 9 9 10 10 10 11 12 11 12 12 12 15 15 15 19 21 22 21 21 18
41 42 42 41 40 38 36 34 31 27 24 20 17 14 13 13 11 10 8 8 8 8 9 9 9 10 10 11 11 11 12 11 12 13 15 15 17 19 19 21 22 20 20
40 42 42 41 40 38 35 32 29 26 23 18 15 13 11 10 9 9 8 8 8 8 9 10 10 11 11 11 11 10 10 11 13 16 16 18 19 20 20 20 21 22 20
41 41 41 40 39 37 33 30 28 25 21 17 15 13 11 10 8 8 9 9 9 9 10 11 12 12 12 13 12 10 10 13 15 17 19 19 20 20 21 21 20 19 19
40 41 40 39 38 35 33 30 27 23 19 17 14 13 11 10 9 10 10 10 10 10 12 12 13 13 14 14 12 11 11 15 17 19 20 20 21 21 21 20 19 19 20
40 40 39 39 38 36 33 28 25 21 18 15 14 12 11 11 10 12 11 11 11 12 12 13 14 14 14 13 12 13 16 17 18 20 21 21 22 21 20 19 19 21 21
39 40 39 39 37 35 31 27 22 18 17 16 14 12 11 11 12 12 11 11 12 13 13 13 13 13 12 10 15 16 17 17 19 20 21 21 21 20 20 19 19 19 22
39 40 40 38 36 34 28 23 20 17 16 14 12 12 11 11 11 10 10 10 11 12 12 12 12 11 11 14 16 16 16 17 18 20 20 21 21 20 21 21 21 22 22
39 40 39 38 34 31 25 20 17 15 12 11 10 10 9 9 9 9 9 9 10 11 11 11 11 11 11 13 14 16 17 18 19 19 20 20 20 21 22 24 23 25 27
39 40 38 35 32 27 21 17 13 11 10 9 9 9 8 7 8 8 8 9 10 11 11 11 11 11 10 13 14 17 18 18 19 20 20 20 22 25 22 21 23 28 28
40 39 36 32 28 22 16 13 12 11 10 8 7 7 7 7 8 8 9 10 10 11 11 11 11 9 9 14 16 19 19 19 19 19 20 24 22 20 20 26 28 24 23
36 33 28 23 19 15 13 12 10 10 8 7 7 7 8 7 8 9 10 10 11 11 11 10 9 11 10 17 19 21 20 19 19 24 25 22 18 18 28 23 21 17 16
31 26 22 19 16 14 13 11 9 7 7 8 8 8 8 8 9 10 10 11 11 10 10 9 8 11 15 18 20 20 19 20 25 24 21 19 20 30 19 17 16 16 20
26 22 19 17 16 13 11 8 6 8 8 8 8 8 9 10 11 11 11 11 10 9 8 8 11 13 16 19 19 19 20 23 20 21 19 22 26 17 16 16 17 19 20
21 19 17 16 14 11 8 7 7 8 8 7 7 9 11 11 11 11 11 11 9 8 9 10 14 16 17 18 19 20 21 19 20 22 24 22 17 15 15 16 17 18 18
19 17 14 12 10 9 8 8 8 8 7 7 9 11 11 14 11 12 11 9 9 11 13 15 15 16 16 17 17 19 19 20 24 24 20 16 14 15 15 16 16 19 20
19 17 15 12 8 8 8 8 8 8 8 10 11 11 13 12 12 12 10 12 13 15 16 16 16 15 16 16 18 18 19 21 22 18 15 13 14 15 15 16 17 17 19
21 19 16 13 8 7 8 9 10 10 10 10 11 12 14 13 13 11 12 14 15 15 15 16 16 16 17 18 18 19 21 19 17 15 13 14 16 16 15 16 17 18 18

GFSMW_sfc_30mbdewp_036.txt.gz
Dewpoint
37 39 41 44 48 49 49 50 52 53 49 47 43 40 38 38 36 35 34 33 31 30 29 27 26 27 24 23 23 23 26 29 26 23 18 22 29 25 16 22 28 27 20
38 40 44 48 51 51 52 53 54 53 49 45 42 39 38 36 33 30 28 27 26 25 24 24 23 23 22 21 21 22 22 28 28 22 25 20 22 23 13 25 27 21 20
38 41 46 51 52 51 51 51 50 47 44 40 39 38 37 35 31 27 24 22 23 23 21 21 21 21 20 19 21 21 19 21 27 25 18 11 15 19 23 18 23 16 22
39 43 49 50 50 49 48 47 46 44 42 40 39 37 35 33 35 29 24 20 20 20 20 19 19 19 19 18 18 21 18 21 22 24 25 24 21 17 18 25 18 21 17
40 45 49 48 47 46 45 45 44 43 42 40 39 38 37 37 34 28 21 19 18 17 17 17 16 16 17 16 16 17 16 20 23 22 24 22 20 21 23 16 15 17 18
43 46 45 44 43 42 42 42 41 41 40 39 39 38 36 33 30 26 22 19 17 16 15 14 14 14 14 15 15 16 16 17 18 18 17 17 17 18 16 12 14 16 17
44 44 43 40 39 40 40 39 39 37 37 36 34 32 28 24 21 20 18 15 13 13 12 12 11 12 13 13 13 14 15 16 14 13 13 17 18 19 16 17 17 16 18
44 43 41 39 39 38 37 36 35 33 31 28 25 23 21 20 18 16 14 13 12 11 11 10 10 10 11 11 12 14 14 13 12 12 14 16 16 17 18 20 19 18 17
43 42 40 39 38 37 35 34 31 29 26 23 20 18 17 16 14 13 12 11 10 9 9 9 10 11 11 11 12 13 11 12 13 13 15 16 17 19 20 21 21 21 18
42 41 39 39 38 36 34 31 28 25 22 19 16 15 13 12 10 9 8 8 8 9 9 10 11 11 12 12 12 12 12 11 12 14 16 17 19 20 21 22 22 21 21
42 41 40 38 37 35 32 29 25 21 18 15 14 12 10 10 9 8 8 8 9 9 10 11 11 12 12 13 13 12 11 11 13 16 17 19 20 20 21 22 22 22 21
42 41 39 38 36 33 30 27 24 19 16 14 12 11 10 9 8 9 10 10 9 10 11 12 13 13 13 14 14 12 12 11 14 16 19 20 20 20 22 22 21 21 20
42 41 39 37 35 32 29 27 23 19 16 14 13 12 10 9 9 10 11 11 11 11 12 13 13 14 14 14 13 13 13 15 16 17 19 20 20 20 21 22 21 20 21
41 40 39 37 35 32 29 26 22 18 16 14 13 12 11 10 11 12 11 11 12 12 13 14 14 14 13 13 12 16 17 17 17 18 20 20 21 21 21 21 20 22 20
40 40 39 37 34 32 28 24 20 17 15 15 13 12 12 12 12 11 11 11 12 13 13 13 12 12 12 10 17 18 18 17 17 18 20 20 21 22 20 20 21 21 24
40 39 39 37 35 31 26 21 18 17 16 15 13 12 11 11 11 10 10 10 11 12 12 11 12 11 11 15 17 18 17 18 18 19 19 20 21 21 22 21 22 22 22
40 39 39 37 34 29 23 20 17 17 15 13 11 10 10 9 9 9 9 9 10 11 11 11 11 11 12 15 17 19 20 19 19 19 19 20 20 23 24 23 21 23 28
40 40 39 36 32 25 21 17 15 14 12 11 10 10 8 8 8 8 8 9 10 11 11 10 11 11 10 16 19 21 21 20 20 20 20 20 24 22 20 20 25 27 23
41 40 37 32 25 21 17 14 13 12 11 9 9 8 7 7 8 8 9 10 10 11 11 11 11 9 11 16 19 21 20 20 20 20 21 25 22 19 21 27 24 20 17
38 34 30 25 20 16 14 13 11 11 9 8 7 7 8 7 8 9 10 11 11 11 11 10 9 11 11 15 19 20 20 20 20 24 26 23 19 21 27 19 17 16 15
30 26 24 21 16 14 13 12 11 9 8 8 8 8 8 9 10 11 11 11 11 11 9 9 10 11 13 17 20 20 20 20 26 22 20 20 23 23 18 17 16 17 24
24 21 19 16 14 13 13 10 9 8 9 9 8 8 9 11 11 11 11 11 10 10 10 11 12 14 16 19 19 20 20 22 19 21 21 24 22 17 17 17 18 21 19
21 20 18 14 13 12 10 8 8 9 8 7 8 10 11 12 11 11 11 10 11 11 12 14 15 16 16 17 19 20 20 20 21 23 22 20 17 16 16 17 18 17 17
19 17 15 13 11 9 9 8 8 8 7 7 10 11 11 15 12 12 11 12 13 14 16 16 16 16 16 17 18 19 19 22 24 24 20 16 15 15 16 16 16 16 17
17 15 13 10 9 9 8 9 8 8 8 10 11 11 13 13 13 12 12 15 16 17 16 16 16 16 17 17 19 18 19 21 20 18 15 13 14 15 15 15 16 17 17
17 15 11 9 8 8 8 9 10 9 9 10 11 13 15 13 13 13 13 17 16 17 16 16 17 17 18 18 18 19 20 19 17 16 14 15 15 15 15 16 17 17 17

GFSMW_sfc_30mbdewp_039.txt.gz
Dewpoint
38 37 39 41 46 45 47 49 53 50 49 46 43 42 40 38 36 34 32 30 29 27 25 25 23 23 21 20 21 23 21 27 26 20 20 22 27 26 17 22 25 21 19
36 38 41 45 48 48 49 52 51 49 48 45 41 39 37 34 31 28 26 25 24 23 22 21 20 20 19 19 20 18 18 22 27 22 24 15 14 21 13 19 26 18 20
37 37 41 47 50 50 52 53 50 47 43 40 38 35 32 29 25 23 23 22 21 21 20 19 19 19 19 18 20 18 18 19 24 25 16 8 9 18 20 14 23 16 21
37 38 43 49 50 51 51 50 47 43 40 40 37 36 33 30 28 23 21 19 19 19 19 18 18 18 18 16 19 18 17 20 19 22 23 22 22 13 14 22 16 18 13
37 39 45 50 50 49 48 46 43 41 40 39 37 36 34 30 25 20 17 16 17 16 17 16 15 16 16 15 15 15 15 18 20 20 22 20 19 21 21 12 13 11 13
38 43 49 48 46 45 45 44 42 41 40 39 38 36 32 27 23 21 18 16 16 15 14 13 13 13 14 14 14 15 14 15 15 15 14 16 17 17 16 13 12 13 14
42 46 47 45 43 43 43 42 41 39 38 37 36 34 30 27 23 20 18 14 13 12 11 11 10 12 12 12 13 14 14 15 13 13 13 17 17 18 17 16 15 14 17
44 46 46 43 42 41 41 39 38 36 34 33 30 27 25 23 20 18 15 13 11 11 10 10 10 11 12 12 12 14 14 13 13 12 14 15 17 18 19 19 19 18 16
44 45 42 41 40 39 38 36 34 31 29 25 23 21 19 17 15 12 12 11 11 10 10 10 11 12 12 12 13 14 12 12 12 13 15 16 18 20 21 21 22 21 18
43 41 40 39 37 36 34 32 30 27 22 20 18 16 14 12 11 9 8 8 9 10 10 11 12 12 13 13 13 13 13 12 12 14 16 17 19 20 22 22 22 22 21
41 39 38 37 35 33 30 27 24 21 18 16 14 12 10 9 8 8 8 9 9 10 11 12 12 13 13 14 13 13 12 12 13 14 16 17 20 21 21 21 22 22 22
40 39 37 36 34 31 28 24 20 18 16 14 12 11 10 9 9 9 10 10 10 11 12 13 13 14 14 14 13 12 12 14 15 16 17 18 18 20 21 21 21 22 22
39 38 37 35 32 29 26 22 18 16 14 13 11 10 9 9 10 10 11 11 11 12 13 13 13 13 14 13 12 12 15 16 17 17 18 18 20 20 21 21 21 22 23
39 38 36 34 32 28 25 20 17 16 14 13 11 10 10 10 11 11 11 11 12 12 13 13 12 13 13 12 12 16 18 18 18 18 19 20 20 21 21 20 20 23 20
39 38 36 34 31 28 24 20 17 15 15 14 13 12 12 12 12 11 11 11 12 12 13 12 12 12 12 10 18 20 19 19 18 19 19 20 21 21 21 20 20 20 23
39 38 37 34 30 27 23 19 17 16 15 14 13 13 12 11 10 10 10 10 11 11 11 11 11 11 11 16 19 21 22 20 20 19 19 20 21 20 22 22 22 21 21
40 39 37 34 31 26 22 19 17 17 15 14 13 12 11 10 9 9 9 10 10 11 11 11 11 10 11 16 20 21 22 21 20 20 20 20 20 22 24 23 21 27 27
40 39 37 34 29 24 20 18 17 16 14 12 11 11 9 8 8 9 9 10 10 11 11 10 11 10 10 18 19 21 21 21 20 20 20 20 21 25 21 24 29 22 20
40 39 37 32 25 22 18 16 15 14 12 10 10 8 8 7 8 9 10 10 11 11 11 11 10 10 12 18 19 21 20 20 20 21 22 25 22 20 23 26 20 18 18
39 36 31 26 23 19 16 15 13 12 11 9 8 8 8 8 9 10 10 11 11 11 11 10 10 13 13 17 20 21 20 20 20 25 24 22 20 21 26 19 18 17 16
34 30 27 24 19 16 15 13 12 11 10 8 8 8 9 10 11 11 11 11 11 11 10 11 12 13 15 18 20 20 20 20 21 19 21 21 22 22 18 18 18 18 23
29 25 21 17 15 15 14 12 11 9 9 9 9 9 10 11 11 11 11 11 11 11 12 14 15 16 17 19 19 20 20 20 19 22 22 22 22 18 18 18 19 20 19
22 20 17 15 14 14 13 11 8 9 9 8 9 10 12 12 12 11 11 11 12 13 14 15 16 16 17 17 19 21 20 19 22 22 21 20 18 17 16 17 18 18 16
19 18 17 15 13 11 10 9 9 8 7 8 10 11 13 14 13 12 12 13 14 15 16 16 16 17 17 17 18 20 19 23 21 21 19 17 15 16 16 15 15 16 17
18 17 15 13 10 9 9 9 8 8 8 10 11 13 14 13 13 12 13 16 16 17 17 17 17 17 17 18 19 19 20 20 19 18 16 14 14 15 15 15 15 16 17
16 14 12 10 9 9 8 9 9 9 10 10 11 15 14 13 13 13 14 17 17 18 17 17 16 17 18 19 19 19 20 19 18 17 14 15 15 15 15 16 16 16 16

GFSMW_sfc_30mbdewp_042.txt.gz
Dewpoint
40 40 38 38 41 43 46 50 55 56 52 48 46 45 42 39 36 34 34 30 29 26 24 22 21 21 19 18 17 20 18 24 25 17 17 21 22 27 20 18 26 18 19
39 38 38 40 45 44 47 52 52 51 50 49 44 43 41 35 32 31 30 28 23 22 20 19 19 19 18 18 16 15 16 20 26 20 20 10 10 16 12 19 24 17 20
39 38 39 41 46 47 48 52 50 48 45 41 38 37 33 29 26 26 24 22 21 20 19 19 18 18 19 18 17 17 17 14 20 25 14 4 6 17 17 17 24 15 17
38 39 39 43 47 49 51 51 47 44 41 41 38 39 39 33 25 22 21 20 20 18 18 17 17 17 17 16 17 17 18 19 16 19 20 20 20 10 11 19 15 16 12
39 38 39 42 48 50 51 48 44 41 40 39 39 36 33 28 23 20 17 16 17 17 16 15 15 15 16 15 14 14 14 17 17 17 18 18 18 21 19 10 12 13 13
39 38 41 47 49 48 47 44 42 40 39 38 36 33 27 21 19 18 16 15 16 15 13 13 13 14 14 13 14 14 13 14 14 14 14 15 15 16 14 14 14 14 13
38 41 44 47 47 47 45 43 41 39 39 37 34 28 23 22 20 18 16 13 12 11 10 11 11 12 13 13 14 14 14 14 12 12 12 17 16 18 18 17 16 15 16
39 43 46 47 46 45 44 42 40 38 37 35 31 28 25 23 20 17 14 12 11 11 11 11 11 12 12 13 14 15 13 13 12 11 13 15 16 18 19 19 18 17 14
41 45 46 46 44 43 42 40 38 35 32 29 26 24 21 19 15 13 12 12 11 10 11 11 12 12 13 13 13 14 13 13 13 13 14 16 17 19 21 21 21 20 17
43 46 45 43 42 40 38 35 33 30 26 24 21 18 15 12 11 10 9 9 10 11 11 12 12 13 13 14 13 13 13 12 13 14 15 16 18 19 21 21 22 22 21
44 43 41 39 37 35 33 29 26 23 20 17 14 12 10 9 9 8 9 9 11 11 12 13 13 13 13 13 12 12 12 13 15 16 17 17 18 19 20 22 22 22 22
41 39 37 36 34 31 28 25 22 19 16 13 12 10 9 9 9 9 10 10 11 12 13 13 13 13 13 13 12 11 14 15 16 17 17 18 18 19 20 21 21 22 22
38 37 36 34 31 28 24 21 18 16 14 12 11 10 9 9 10 10 11 11 12 13 13 13 12 12 13 12 11 13 16 18 18 18 18 19 19 20 21 21 21 22 22
37 36 34 32 28 25 21 18 16 14 13 12 11 10 10 10 10 11 11 12 12 12 12 12 12 12 11 11 12 18 20 20 19 19 20 19 20 20 21 21 21 21 20
37 35 33 30 27 22 19 17 15 14 13 12 12 12 12 12 11 11 12 12 12 12 12 11 11 11 11 10 19 21 22 21 20 20 20 20 21 23 22 21 21 21 22
37 35 33 29 26 22 18 16 15 15 14 14 13 14 12 11 11 10 11 11 11 11 11 11 11 10 11 16 20 22 22 22 20 20 20 21 21 21 22 22 22 22 26
37 35 32 29 26 21 18 16 16 16 15 14 14 12 11 10 10 10 10 10 10 11 11 10 11 10 11 17 21 21 22 21 20 20 20 20 21 23 22 24 24 29 25
37 35 33 29 25 21 19 17 16 16 14 13 12 11 10 9 9 10 10 10 10 10 10 10 11 11 11 19 20 21 22 21 20 20 20 21 22 24 22 23 29 24 20
38 36 33 28 24 20 18 17 16 15 13 11 10 9 9 9 10 10 10 10 10 10 10 11 10 11 14 19 20 22 21 20 20 21 21 24 22 21 22 26 21 19 19
38 35 30 26 22 19 17 16 15 13 11 10 9 8 9 10 10 10 10 11 11 11 11 11 12 15 14 18 21 21 21 20 20 21 20 22 21 21 26 19 19 18 17
35 31 28 25 20 17 16 15 13 12 11 9 9 9 10 10 11 11 11 11 10 11 11 13 14 15 16 19 20 20 21 20 20 19 21 21 22 22 19 19 18 19 22
31 28 23 19 17 16 16 14 12 11 10 9 9 10 11 11 11 11 11 11 12 12 13 15 16 17 17 19 19 21 21 21 19 21 21 20 21 19 18 18 20 20 19
25 22 19 17 16 16 15 13 10 9 9 9 11 11 12 12 12 11 11 12 13 14 15 16 17 17 17 17 19 21 21 20 21 21 20 20 19 17 17 17 19 18 16
21 19 18 16 14 13 12 10 9 9 8 10 11 13 15 12 12 12 12 14 14 15 17 17 17 17 17 18 18 20 20 21 21 21 19 18 16 16 16 15 15 15 16
19 19 16 14 11 11 9 9 8 8 9 11 12 13 13 12 12 13 13 16 17 18 18 18 18 17 17 17 19 20 20 20 19 19 17 14 14 14 14 14 15 16 16
17 15 12 11 9 9 8 8 9 10 10 10 13 16 13 13 13 13 14 17 17 18 18 17 16 17 18 19 20 20 20 19 19 17 14 14 15 14 14 15 15 16 16

GFSMW_sfc_30mbdewp_045.txt.gz
Dewpoint
37 40 41 41 40 41 44 47 54 59 59 55 53 50 48 45 43 38 37 37 35 28 24 24 22 22 19 17 16 21 20 20 23 18 17 20 21 27 24 16 24 20 20
35 38 39 39 40 41 44 49 55 57 55 55 51 48 47 45 42 38 36 33 29 24 22 22 21 20 18 17 18 19 18 19 25 16 19 12 12 18 16 23 22 18 18
29 33 38 39 41 43 44 50 53 53 51 46 44 42 40 39 36 33 31 27 23 21 21 21 20 21 20 18 19 19 20 16 21 20 14 8 7 14 15 17 22 15 14
29 30 32 39 42 45 48 51 50 48 45 45 44 44 43 40 35 32 30 26 22 20 19 19 18 19 19 18 17 17 18 19 15 18 17 19 17 8 6 15 15 15 12
28 29 32 37 42 47 50 50 47 45 43 43 45 45 42 37 31 27 24 22 18 18 18 18 19 17 17 17 16 16 16 16 16 16 15 16 16 20 17 6 9 12 13
28 31 35 40 45 49 50 47 45 42 42 42 42 42 37 30 22 22 18 17 16 16 17 16 17 16 16 16 16 16 16 15 16 16 15 14 13 11 12 12 12 13 12
30 34 39 43 47 49 48 45 43 41 39 38 35 33 26 23 19 18 16 14 13 13 14 14 14 15 16 17 17 18 18 17 15 14 13 17 16 17 17 16 14 14 15
31 37 41 45 47 48 46 44 42 39 37 34 29 25 25 22 19 17 15 14 12 13 14 14 14 14 15 15 16 18 17 17 16 14 14 16 17 18 18 17 17 17 13
27 36 43 46 47 47 45 43 40 38 35 30 27 24 22 20 17 15 14 13 13 12 14 14 14 15 15 15 16 16 14 14 15 15 16 16 17 19 19 20 20 18 16
26 37 45 46 46 45 42 40 38 34 31 27 24 20 17 15 14 13 12 12 12 13 14 14 14 14 14 14 14 13 14 14 16 17 17 17 18 19 20 20 20 20 19
32 41 45 45 43 40 38 35 31 28 25 21 17 15 13 11 10 10 11 12 12 13 13 14 14 13 13 13 11 12 14 16 17 18 18 18 19 19 19 20 20 20 19
40 44 42 39 38 35 32 30 27 23 19 16 13 12 11 10 10 10 11 12 12 13 14 13 12 13 13 12 11 13 16 17 18 19 19 19 19 18 18 19 19 20 21
40 38 37 36 34 31 28 25 21 17 14 13 11 10 10 10 10 11 12 13 13 13 13 12 12 12 12 11 11 15 18 20 20 20 20 19 18 18 18 20 21 21 22
37 37 35 32 29 26 23 20 16 14 13 12 11 11 11 11 11 12 13 13 13 13 12 12 12 12 11 11 14 19 21 22 22 21 21 20 20 20 21 22 21 21 20
36 34 31 28 24 22 19 16 14 13 13 13 13 12 12 12 13 13 13 13 13 13 13 12 11 11 11 9 19 22 22 22 22 21 20 20 21 23 23 22 21 20 23
35 33 29 26 23 20 17 15 14 14 14 14 13 14 13 12 13 13 12 13 12 12 12 11 11 10 10 17 21 22 22 22 21 20 19 20 22 22 22 22 22 23 24
34 30 28 25 21 18 16 15 15 15 14 14 14 12 12 12 12 12 12 11 11 11 11 10 11 10 12 19 21 22 22 21 21 20 20 20 20 22 23 23 24 28 27
33 30 27 23 20 18 16 16 15 15 15 14 12 12 11 11 12 11 11 11 11 10 10 10 11 11 12 21 21 22 22 21 20 21 21 21 21 23 22 22 30 25 20
34 31 27 22 19 17 17 16 16 15 13 12 11 10 10 11 11 11 11 11 10 10 10 11 12 13 16 20 21 22 21 20 20 21 21 21 20 21 22 27 24 19 18
34 30 25 22 19 17 17 16 15 13 12 11 10 10 11 11 11 11 11 11 11 11 11 11 14 16 15 19 21 21 20 20 20 21 20 20 20 21 26 21 19 18 16
32 28 25 22 19 17 17 15 14 12 11 10 10 11 11 11 11 11 11 10 11 12 12 14 15 16 17 18 20 21 21 21 21 19 20 20 20 24 20 19 18 18 23
30 27 23 20 18 17 16 14 13 11 10 10 11 12 12 11 11 11 11 11 12 12 13 16 16 17 17 19 19 21 21 21 20 21 21 20 22 20 19 19 19 21 20
26 24 20 18 17 17 15 13 10 10 10 11 12 12 12 12 12 11 12 12 13 14 15 17 16 16 17 17 19 21 22 20 22 22 20 21 19 17 17 17 19 18 15
22 20 19 17 16 15 13 11 10 10 11 11 13 13 12 12 12 13 13 14 14 16 17 17 17 17 16 17 18 20 20 21 22 21 20 18 16 16 16 15 15 15 16
20 19 17 14 12 11 10 9 10 10 11 12 14 15 13 12 12 13 13 16 17 18 17 18 17 16 16 17 20 20 20 21 20 19 17 13 13 13 13 14 15 15 16
17 15 13 12 10 9 8 9 11 11 11 13 14 14 13 13 13 13 13 17 17 18 17 16 16 17 18 19 20 20 20 19 19 17 13 13 14 14 14 14 15 16 16

GFSMW_sfc_30mbdewp_048.txt.gz
Dewpoint
35 37 38 41 43 43 43 42 44 50 56 58 59 61 61 57 55 53 50 47 40 34 28 26 26 25 23 21 19 21 21 21 20 16 14 19 20 26 25 21 20 20 18
22 28 34 38 40 42 43 43 46 51 57 58 58 57 55 50 49 47 45 41 36 29 28 26 24 23 20 20 19 20 19 19 21 16 19 13 14 18 24 17 20 15 16
20 19 20 33 39 40 42 44 47 53 57 57 57 52 48 44 42 41 40 35 28 24 25 24 23 22 21 20 20 21 20 17 19 17 15 12 11 11 12 18 13 15 12
24 24 22 20 32 39 43 44 48 53 56 54 51 50 51 46 41 39 36 29 25 24 22 21 21 21 20 19 17 18 16 17 15 16 14 16 13 7 6 10 12 13 11
23 25 26 27 26 36 44 47 50 53 52 52 52 52 50 43 37 33 30 28 26 24 21 20 20 18 18 18 18 17 16 14 15 14 13 13 13 15 14 9 9 11 13
23 25 27 29 30 35 47 50 50 50 50 51 51 52 45 38 32 29 28 26 26 22 18 18 18 18 18 18 17 17 17 14 15 14 13 12 12 10 11 11 11 13 12
20 24 26 30 34 37 48 50 49 48 49 50 50 48 42 37 33 29 26 22 18 17 17 16 16 17 18 18 18 19 20 19 16 14 12 14 14 14 15 15 13 12 13
21 23 24 29 36 42 47 48 48 47 47 48 48 43 35 31 28 24 21 17 16 16 16 15 15 16 16 16 17 18 17 18 16 15 14 14 15 16 16 16 15 14 11
24 26 27 35 37 43 47 47 46 45 44 44 40 34 28 24 19 17 16 15 15 15 15 15 15 15 15 14 17 14 12 13 14 15 17 17 17 18 18 18 17 16 14
32 34 32 32 41 44 47 47 45 43 41 38 35 30 23 19 17 16 15 15 13 13 15 14 15 14 13 12 12 11 12 12 15 15 17 17 17 17 18 18 18 17 16
36 36 37 32 41 46 47 45 42 39 36 34 29 26 19 16 15 15 15 13 13 13 13 13 13 12 11 10 9 10 12 15 16 18 18 18 18 17 16 15 16 16 16
35 37 36 40 45 45 44 42 38 36 32 27 22 18 15 15 14 14 13 12 12 12 12 12 10 10 10 9 7 10 14 16 17 18 18 18 16 16 15 16 16 17 18
36 36 41 42 43 42 40 37 34 29 25 21 16 14 14 14 13 12 12 12 12 13 12 11 10 9 10 9 8 13 16 18 19 19 19 18 17 16 16 17 19 19 20
39 39 40 40 40 39 36 31 24 20 19 16 15 14 14 13 12 12 12 12 13 12 11 11 11 10 9 9 13 17 19 19 19 20 20 19 17 17 18 19 19 19 20
38 38 38 37 35 30 25 20 17 16 16 15 16 15 14 13 12 13 13 13 12 12 12 11 10 10 11 8 18 19 20 19 19 19 18 17 18 21 23 21 21 20 21
36 35 33 31 26 22 18 17 15 16 17 17 16 14 13 13 13 13 13 13 13 12 12 11 10 10 8 18 22 23 20 19 18 17 16 17 18 19 21 22 22 24 25
34 32 30 26 23 20 18 17 16 17 16 16 14 13 13 13 13 13 13 13 12 12 11 10 10 9 11 19 22 22 21 19 18 17 17 17 18 19 19 20 21 23 28
34 30 26 23 21 19 17 16 17 17 16 14 12 12 12 12 13 13 12 12 12 11 10 10 10 11 11 20 21 22 20 18 18 18 18 19 19 18 19 20 26 27 20
31 29 26 23 21 19 17 18 17 17 15 13 11 11 11 12 12 12 11 11 11 11 10 11 11 11 12 17 21 22 18 17 18 18 18 19 18 19 21 24 27 18 16
31 27 24 22 19 18 18 17 17 16 13 12 10 10 11 12 12 12 12 12 11 11 10 10 12 13 12 15 20 21 19 18 17 18 18 18 19 20 24 23 19 18 15
28 24 22 20 18 18 18 17 16 14 12 9 9 11 12 12 12 12 12 12 12 11 10 11 11 12 13 15 19 21 20 19 19 18 16 17 19 21 21 20 18 17 21
29 26 22 19 18 18 18 17 15 12 10 11 12 12 12 11 12 12 12 12 12 11 10 11 10 11 12 14 16 21 22 21 19 18 18 19 21 20 20 19 19 21 21
27 25 21 19 18 18 18 14 11 11 12 13 13 12 12 12 12 12 12 12 11 10 10 11 10 10 11 12 15 19 20 20 20 21 20 21 19 18 16 16 19 18 15
26 23 20 19 18 16 14 11 11 11 12 12 12 12 12 12 13 13 13 12 11 11 12 11 11 11 11 12 14 18 18 18 21 20 20 17 16 14 15 14 14 15 16
23 22 20 18 15 12 11 10 11 12 12 13 13 15 14 12 12 12 12 13 14 17 14 12 12 12 12 14 20 21 20 21 20 20 16 12 11 12 12 13 15 15 16
21 19 17 15 12 10 10 11 12 12 12 13 13 13 13 12 12 12 10 17 18 18 16 16 16 15 17 19 21 21 21 20 19 17 12 11 13 13 14 15 16 17 18

GFSMW_sfc_30mbdewp_051.txt.gz
Dewpoint
31 32 35 37 37 39 41 41 42 44 47 53 57 58 58 62 62 62 61 60 55 47 38 34 33 31 30 27 26 25 24 24 21 20 19 23 24 28 26 27 21 21 20
24 28 32 34 37 40 43 43 42 44 48 54 56 57 60 56 56 54 52 48 43 38 36 33 31 27 25 24 23 24 23 22 22 18 22 19 19 21 24 23 20 19 18
23 22 22 30 36 38 41 43 43 44 49 54 57 56 52 50 48 47 45 42 40 37 36 32 31 30 26 25 24 25 23 22 20 19 19 17 17 14 14 17 19 16 17
24 24 23 21 25 36 41 43 44 45 50 55 57 54 52 49 46 45 40 37 34 32 30 29 26 25 25 24 22 20 18 20 19 20 16 19 16 11 10 13 15 14 13
23 24 25 26 25 26 41 44 45 47 52 56 56 54 51 50 44 39 34 31 30 29 30 29 28 23 23 21 21 19 17 16 17 17 16 15 15 15 15 15 13 15 16
19 20 23 26 28 30 37 45 46 48 53 56 53 52 52 44 38 34 31 31 31 29 26 24 23 22 22 21 20 20 19 17 18 16 15 15 15 13 15 14 15 16 16
17 18 22 25 27 31 34 42 48 50 53 53 52 53 47 42 38 33 32 30 29 26 24 23 21 21 22 20 20 23 24 22 20 17 14 14 15 15 16 16 17 16 16
20 21 21 22 25 32 35 40 48 49 50 51 52 51 45 42 36 33 28 24 24 22 21 19 18 19 18 19 21 22 20 21 19 18 17 17 16 17 17 18 18 17 16
24 25 25 28 28 29 36 42 47 48 49 51 51 47 41 36 31 26 22 21 20 19 19 18 16 16 16 16 19 18 14 14 15 16 17 18 18 19 19 19 19 19 17
31 31 33 32 35 33 37 44 46 47 49 50 46 40 35 27 22 19 18 18 17 17 18 16 16 15 14 13 13 12 13 12 14 16 17 18 18 18 19 20 19 18 17
29 30 34 35 36 35 40 45 46 46 47 44 38 33 25 21 20 18 18 16 16 16 15 15 14 13 12 10 10 10 12 14 15 17 18 18 18 18 17 17 17 17 17
37 37 39 39 37 35 43 46 45 44 41 37 32 26 20 18 17 17 17 16 15 14 13 12 11 10 10 8 8 9 12 15 16 17 18 18 17 17 17 17 17 18 18
39 39 37 36 36 40 45 44 41 39 36 32 27 20 18 17 16 15 16 14 13 13 12 11 10 9 10 9 8 11 13 16 17 18 18 19 19 17 17 18 18 20 20
38 39 39 38 42 44 43 40 37 33 29 23 20 18 17 16 15 14 14 14 13 12 12 11 10 10 10 10 12 16 18 19 19 19 19 19 18 17 18 20 21 20 21
37 38 40 40 41 40 38 33 29 27 22 19 19 17 16 16 14 15 14 14 13 12 12 11 11 11 13 9 17 20 20 18 18 18 18 17 18 19 21 21 22 22 22
37 37 38 38 38 33 28 23 21 19 20 20 18 16 16 15 16 15 14 14 13 13 12 12 11 11 9 19 23 24 21 19 18 17 17 17 18 17 20 21 21 21 22
35 35 34 30 27 24 21 18 19 20 20 18 16 16 16 16 15 15 15 14 13 13 12 12 11 10 12 19 22 23 21 19 18 17 17 18 17 19 19 19 20 22 24
33 31 27 24 21 20 19 19 19 19 18 16 16 16 15 15 15 15 15 14 13 13 12 12 11 12 12 18 21 23 20 17 17 17 18 18 18 19 19 21 23 26 26
31 27 24 21 21 21 21 20 18 17 16 15 14 14 14 14 14 13 12 12 12 12 11 12 12 11 10 16 20 22 19 17 17 17 17 19 19 18 21 21 24 24 20
29 26 26 25 25 26 28 26 23 20 18 14 13 12 13 13 13 13 13 13 13 12 12 11 12 12 11 13 18 21 19 17 18 19 19 18 18 20 21 22 21 20 19
30 32 32 32 33 33 31 27 23 16 13 12 12 13 13 13 13 13 13 13 13 13 12 11 11 11 12 13 16 19 21 20 20 21 18 19 19 21 22 21 20 19 20
25 23 21 21 21 21 19 17 13 11 11 13 14 13 13 13 14 13 13 13 13 12 11 10 10 10 10 12 13 18 21 21 20 19 19 21 21 21 20 19 18 19 20
29 26 22 21 19 19 18 14 12 13 14 13 13 13 13 13 14 13 13 12 12 11 10 10 10 10 11 11 12 16 19 20 19 20 21 21 20 19 16 15 17 17 16
27 24 21 20 20 17 14 12 13 13 13 13 13 13 13 12 13 13 13 12 11 10 11 10 10 10 10 11 14 19 20 19 21 22 21 19 17 13 14 14 14 15 16
24 23 21 19 15 12 11 12 12 12 12 13 13 14 14 12 12 13 12 12 13 16 14 12 12 11 12 14 20 21 21 21 21 20 19 15 11 12 14 14 16 16 17
24 22 18 14 12 11 11 12 14 14 14 14 14 14 13 12 12 12 11 15 16 17 18 17 16 16 17 19 21 21 21 21 20 18 14 11 14 15 15 16 17 18 19

GFSMW_sfc_30mbdewp_054.txt.gz
Dewpoint
30 29 32 33 33 35 42 43 44 44 48 55 60 61 60 62 63 63 61 61 57 44 41 38 35 34 32 30 27 26 27 24 23 23 23 25 28 28 26 27 25 24 22
27 29 31 33 35 37 38 41 43 44 45 49 57 60 60 57 56 58 58 54 47 42 36 34 33 29 27 25 25 27 24 24 22 18 23 22 22 24 24 28 22 21 19
25 25 26 31 34 36 38 42 43 45 46 50 57 55 54 52 50 48 45 43 42 41 40 37 35 35 34 31 28 25 25 23 22 19 19 16 19 14 20 23 22 16 19
26 26 26 24 28 35 37 41 44 44 47 52 56 56 56 55 50 46 43 41 40 38 38 37 36 33 30 26 23 23 21 24 20 20 19 19 17 12 8 16 17 17 16
25 25 26 27 28 30 37 39 42 44 46 52 56 55 53 48 46 40 37 36 34 33 34 31 28 28 25 20 21 20 18 19 20 19 17 16 17 16 15 15 15 17 18
18 21 23 28 29 30 32 38 44 45 47 54 56 53 49 45 40 36 33 32 32 32 30 29 28 27 25 23 22 21 20 19 19 18 17 17 16 16 16 16 16 16 18
20 21 21 22 26 28 32 33 44 45 49 56 54 52 46 43 39 35 33 31 30 30 31 29 27 28 25 23 24 25 24 22 22 18 17 16 17 18 17 17 18 18 18
20 21 23 25 27 30 32 33 39 48 53 54 52 47 43 41 37 35 32 30 28 28 28 25 25 23 22 23 25 25 23 23 23 19 18 18 18 19 19 19 19 18 18
25 26 26 26 27 30 34 35 42 48 53 53 48 44 42 39 36 33 30 28 25 24 22 21 20 20 19 20 22 21 17 16 17 17 18 19 20 20 21 21 20 19 17
31 32 32 32 33 33 33 37 44 49 51 52 46 42 38 35 31 27 25 24 21 20 20 19 18 17 16 16 16 15 13 13 16 18 17 19 20 20 20 20 20 19 18
37 38 39 39 34 35 36 39 45 49 51 45 39 34 29 27 25 22 21 19 19 18 18 17 16 15 13 12 12 11 13 14 16 17 18 19 19 19 19 18 18 18 19
40 41 41 40 39 37 38 43 46 49 41 36 28 25 23 22 20 18 17 18 17 16 16 15 13 12 10 9 8 10 13 15 16 17 19 19 19 19 19 18 18 19 19
39 39 39 40 41 39 38 46 47 40 35 29 24 23 23 21 19 17 17 17 15 15 13 12 11 11 11 10 9 13 14 16 18 19 19 19 20 19 19 18 20 21 22
37 38 43 44 40 38 45 44 39 35 28 24 22 22 21 18 17 15 15 15 14 13 13 12 12 11 11 11 14 17 19 20 20 20 20 19 19 18 18 20 20 22 22
37 38 44 45 44 42 40 35 31 26 24 22 21 19 17 16 15 15 15 15 14 13 13 12 12 12 13 16 20 23 22 21 20 19 19 18 20 20 20 20 22 22 22
36 37 42 43 38 33 31 27 23 22 22 22 21 18 17 16 16 15 15 15 14 13 13 13 12 14 10 20 23 24 23 22 20 19 18 18 20 19 20 21 21 21 21
35 36 31 27 25 24 23 22 21 21 21 20 19 18 18 17 16 16 15 14 14 14 12 12 12 12 17 20 22 23 23 22 20 18 18 18 18 19 20 21 21 22 23
34 28 25 22 21 20 20 21 21 20 19 19 19 19 17 17 17 16 15 14 14 13 12 12 12 12 16 19 20 23 22 20 18 18 18 18 18 20 20 20 23 23 25
28 25 21 20 20 20 21 21 20 19 19 18 19 19 18 16 15 14 13 13 12 12 12 12 12 12 14 18 18 21 21 19 18 19 19 21 20 21 21 22 22 23 22
23 22 24 25 23 22 23 24 26 26 24 22 18 16 15 15 14 13 13 15 14 13 12 12 12 16 11 14 17 20 20 20 20 21 22 22 20 21 22 22 22 21 20
30 29 29 30 33 34 32 29 29 26 24 20 18 15 14 14 14 14 14 14 14 13 12 12 11 11 12 13 15 17 20 20 21 22 20 20 21 22 23 22 20 19 20
35 35 34 35 37 37 35 32 30 28 22 17 14 14 14 14 14 13 13 13 13 12 11 11 11 11 11 14 15 15 18 21 21 20 20 21 22 22 21 20 17 19 20
33 35 36 36 37 32 22 12 14 15 14 13 13 14 14 14 14 14 13 12 12 11 11 11 11 11 12 12 16 19 20 22 21 21 22 22 21 20 17 16 17 17 16
23 21 20 19 18 15 13 14 14 14 13 14 15 14 13 13 13 14 13 12 12 12 12 11 12 12 13 14 17 21 21 22 22 23 22 21 18 15 15 15 15 16 17
24 22 19 14 13 13 13 13 13 14 14 14 14 15 14 13 13 13 13 13 17 15 13 16 15 14 16 17 21 22 21 22 22 21 19 16 13 15 15 16 16 17 17
23 18 15 13 12 12 13 14 14 14 15 16 15 14 13 13 12 12 13 16 16 15 17 17 16 16 17 20 20 21 22 21 20 17 14 13 15 16 16 16 17 18 18

GFSMW_sfc_30mbdewp_057.txt.gz
Dewpoint
31 31 31 31 32 35 40 44 49 57 60 63 63 63 62 62 62 61 57 59 55 50 47 43 38 34 32 30 28 28 25 20 22 19 21 26 28 27 27 27 24 24 23
28 30 31 31 32 32 35 43 45 52 57 61 63 63 61 60 60 61 60 56 49 46 43 38 35 32 29 27 25 25 24 23 22 16 24 20 21 24 27 28 26 22 20
26 27 28 29 31 34 35 38 43 45 48 55 59 57 55 53 54 51 48 46 44 42 39 36 33 31 32 29 28 27 26 23 21 20 19 15 16 16 19 25 23 17 19
26 26 26 26 27 32 35 37 41 44 45 54 57 58 58 57 54 49 46 43 42 40 37 36 36 35 36 32 26 24 24 25 20 20 20 20 17 5 2 15 19 18 17
27 26 27 27 27 27 33 36 39 43 46 52 56 58 58 53 48 45 43 41 41 40 40 38 35 34 33 26 22 21 20 22 21 21 18 17 18 17 14 11 16 17 17
22 25 25 28 29 29 32 36 40 42 45 49 56 57 54 50 47 42 40 40 39 37 35 32 32 31 29 27 25 21 19 19 19 18 17 17 16 17 16 16 16 16 18
20 20 21 21 24 26 29 33 34 39 45 53 55 54 52 50 47 42 39 37 36 34 32 31 29 29 30 29 27 24 23 22 18 17 17 18 18 19 18 17 17 18 19
22 21 22 24 25 27 28 31 32 37 49 55 52 50 48 46 43 41 39 37 35 33 29 28 29 30 30 29 27 25 24 23 22 18 18 19 19 20 20 19 18 18 19
35 35 35 31 27 27 30 31 33 41 54 52 48 46 45 43 41 38 37 34 32 30 28 28 27 27 25 25 24 21 17 19 18 18 19 19 21 21 21 21 21 19 17
36 37 38 38 38 37 32 34 35 44 53 48 45 44 42 40 37 35 32 29 28 25 25 25 25 23 21 21 20 17 15 15 17 19 17 18 20 20 20 20 21 20 18
38 39 40 41 41 41 39 36 37 47 49 45 41 39 38 36 33 29 27 25 23 23 22 22 20 19 16 16 15 16 14 14 16 17 18 19 20 20 20 20 19 18 19
40 41 41 40 40 41 41 38 41 50 42 38 36 32 30 30 28 26 24 21 21 20 19 17 16 15 12 11 11 11 12 15 16 17 18 19 20 19 20 19 18 19 20
40 38 38 38 40 41 41 39 47 40 34 32 29 27 25 24 22 20 20 20 19 19 17 15 13 12 11 10 12 13 15 17 18 19 19 19 20 19 20 19 19 20 20
37 37 40 44 41 44 44 45 37 33 30 28 26 24 23 20 19 19 19 21 21 19 15 15 13 13 12 13 18 20 21 21 20 20 20 20 19 19 18 19 20 21 21
37 37 43 38 34 39 40 35 32 30 27 27 25 24 22 20 20 20 21 20 17 15 14 13 12 13 15 17 20 23 23 22 20 20 20 19 21 21 21 21 21 22 22
37 31 32 36 34 28 29 28 28 29 27 25 23 20 21 22 21 20 18 18 15 14 13 13 13 11 18 24 24 25 23 22 21 20 20 19 21 20 21 20 21 22 22
34 26 23 22 27 33 30 28 26 23 21 19 19 21 22 24 25 23 19 19 14 14 14 14 13 15 21 22 23 24 23 21 20 18 18 18 19 21 20 22 22 22 23
26 23 21 20 21 22 22 21 22 21 21 21 23 27 29 28 25 19 16 17 17 15 12 12 13 15 21 21 22 23 21 20 19 19 19 20 21 21 22 22 23 24 24
23 21 21 21 22 21 21 20 21 21 22 23 26 29 29 25 23 24 25 21 14 13 14 14 13 12 20 19 19 21 20 20 20 21 21 23 22 23 22 23 23 23 23
23 24 23 23 24 24 24 24 25 26 26 26 27 29 26 23 20 14 14 14 14 14 14 13 12 15 11 16 16 18 20 19 20 21 22 23 22 22 23 23 22 21 19
27 31 32 31 28 29 30 31 31 30 30 28 25 25 24 20 15 16 16 17 14 13 12 12 12 11 13 13 16 16 18 19 21 22 21 21 22 23 23 22 21 19 20
33 33 32 33 34 34 33 32 31 32 31 28 26 24 22 19 19 17 15 14 14 12 11 11 11 12 12 17 17 19 21 22 22 21 21 22 24 22 21 19 18 19 20
33 34 33 33 34 35 34 32 32 32 30 27 23 19 16 16 14 13 13 12 12 11 11 11 12 12 13 14 19 21 22 23 22 22 23 23 22 18 17 17 18 18 16
35 36 36 35 33 30 26 23 18 16 14 14 16 16 14 14 14 14 13 13 12 12 12 12 12 12 14 16 18 22 22 23 22 23 23 20 16 16 16 17 17 17 17
30 29 26 20 18 16 15 15 15 16 18 19 18 16 15 13 13 14 13 15 17 11 9 14 14 14 16 18 21 21 21 22 22 20 17 14 14 15 16 16 16 17 17
21 18 15 14 14 14 14 14 16 17 18 15 14 14 13 13 13 13 14 19 17 16 17 16 16 16 17 18 20 21 21 21 18 15 13 14 15 16 16 16 16 17 18

GFSMW_sfc_30mbdewp_060.txt.gz
Dewpoint
31 33 34 33 33 34 35 41 54 61 63 63 63 63 62 62 60 58 55 56 56 54 50 46 41 37 36 32 28 26 23 19 22 20 22 27 29 26 28 27 25 25 23
28 30 31 31 31 31 33 37 44 58 62 63 63 63 63 62 61 61 57 57 55 51 48 43 38 35 33 30 27 27 24 22 21 15 23 19 21 24 26 28 26 24 21
28 28 28 29 30 31 32 33 39 50 60 63 62 58 57 56 57 58 56 55 52 51 45 41 37 34 34 30 28 29 28 23 20 20 20 16 13 16 18 24 22 19 19
27 27 27 27 27 29 31 34 37 43 53 61 62 59 59 58 58 55 51 47 49 49 44 39 36 37 35 32 33 31 29 24 19 20 19 20 16 3 1 16 19 19 17
27 27 27 27 27 27 28 32 36 41 45 56 60 60 60 57 52 51 49 47 45 45 44 41 39 39 37 33 30 28 26 24 23 22 18 17 18 17 12 8 14 18 18
21 25 27 28 28 28 29 33 36 38 43 52 58 59 58 53 50 48 47 45 44 43 43 41 40 38 33 29 28 25 23 20 20 19 17 16 14 17 16 15 16 15 18
28 25 24 22 23 29 30 31 34 36 41 46 54 58 56 53 52 47 47 44 42 42 38 39 36 34 31 29 28 26 23 21 18 18 18 18 18 19 18 17 16 17 19
34 35 36 35 32 28 28 29 32 31 37 47 53 56 54 53 51 48 46 44 42 40 39 37 35 32 31 30 28 27 26 24 20 17 18 19 19 20 20 18 17 17 18
35 37 38 38 39 38 36 32 32 32 41 51 53 52 52 49 47 44 44 42 41 39 36 35 33 30 29 29 27 25 22 21 19 19 19 19 21 21 21 21 21 18 15
36 37 39 40 40 40 40 40 39 35 47 50 49 48 47 46 44 44 42 41 39 36 35 32 29 28 27 25 23 18 18 17 18 19 18 18 20 20 21 21 21 21 19
36 39 41 41 41 41 41 41 40 40 49 47 46 44 43 43 42 41 39 38 35 32 29 26 26 24 24 23 19 17 15 15 16 18 18 19 20 20 20 20 20 19 19
39 41 40 39 39 39 40 40 41 42 48 44 43 43 41 40 39 37 35 32 29 28 24 22 20 19 18 15 15 13 14 15 16 17 18 19 20 19 20 20 19 19 19
40 38 38 41 41 39 41 41 41 44 43 39 38 37 36 34 33 30 27 27 25 22 19 19 18 16 14 12 13 14 16 17 19 20 20 20 20 20 20 20 19 19 20
39 37 42 38 31 31 41 43 42 40 37 35 33 32 30 29 27 23 23 22 21 21 19 16 14 14 15 17 19 21 21 21 20 20 20 20 20 19 18 19 19 20 21
37 34 36 37 30 29 31 33 33 33 33 32 29 26 26 23 22 23 23 21 19 17 16 14 14 17 18 20 23 22 22 20 19 20 20 20 22 24 22 21 22 22 22
34 26 24 34 34 31 30 31 33 33 31 29 27 26 24 25 26 24 22 21 22 21 22 23 23 21 25 27 27 24 21 21 20 19 19 19 20 21 23 23 22 22 23
28 23 22 24 31 34 35 34 35 35 32 30 27 26 26 25 25 26 26 26 24 24 24 23 22 22 25 26 25 26 20 19 19 18 19 19 20 23 22 23 24 23 24
26 21 21 22 23 25 25 24 23 26 29 29 29 30 31 31 30 29 27 25 26 24 24 19 17 21 23 24 23 24 20 19 20 20 20 21 22 23 23 23 23 24 24
22 21 22 22 21 21 23 25 27 28 29 30 31 32 32 32 31 31 30 28 26 21 15 15 15 20 22 21 21 22 20 19 19 20 21 23 23 23 23 24 24 24 23
24 23 24 25 24 25 26 26 27 28 29 31 32 32 32 31 31 28 28 26 23 20 16 14 12 15 13 19 17 20 20 18 19 21 22 23 22 23 24 23 22 21 19
31 31 28 29 29 29 29 29 30 30 32 32 32 31 31 29 23 22 21 19 16 14 13 12 11 12 14 14 17 19 20 21 22 22 21 21 24 24 23 21 19 18 20
32 32 33 33 33 33 33 32 30 31 32 31 31 31 31 31 27 22 18 16 14 12 11 12 12 13 13 20 20 21 23 24 22 22 22 22 24 22 20 19 19 20 20
33 33 33 34 34 34 33 31 31 31 31 31 30 30 30 29 26 21 15 12 12 11 11 12 11 11 14 15 21 23 23 23 23 23 24 23 21 17 17 18 19 19 16
33 33 32 33 33 34 33 32 32 32 31 31 30 30 28 18 14 14 13 13 12 11 11 10 9 12 15 17 20 22 22 23 23 24 19 17 15 16 17 17 16 17 17
35 35 34 33 28 27 28 27 26 21 18 18 17 17 17 14 14 14 14 13 12 9 9 12 13 14 15 17 21 21 21 22 21 18 14 13 14 15 15 16 16 16 17
34 29 22 19 17 17 16 16 17 19 22 24 18 15 13 13 14 16 18 20 18 18 17 19 16 16 18 19 21 22 21 20 18 15 13 14 15 15 16 16 16 17 17

GFSMW_sfc_30mbdewp_063.txt.gz
Dewpoint
32 31 32 35 35 35 37 41 57 62 64 64 63 63 62 62 61 60 58 56 56 56 55 52 48 43 40 36 32 28 24 20 22 22 24 27 29 26 27 27 26 26 24
29 29 30 31 32 33 33 37 52 59 63 64 63 63 63 63 62 60 58 57 56 56 54 50 46 42 38 32 29 29 24 21 22 17 22 20 22 26 26 28 25 24 22
29 29 29 29 30 31 31 32 39 54 61 63 63 60 60 58 59 59 58 56 56 55 54 49 44 40 40 35 31 29 27 23 24 23 22 18 16 20 18 25 23 21 19
28 29 29 28 28 29 30 31 33 41 58 62 62 61 60 59 60 60 58 54 55 54 51 47 43 41 40 38 37 36 32 27 23 21 20 19 18 6 3 17 19 19 18
26 27 28 28 28 28 28 29 32 37 48 60 62 61 60 60 57 56 54 51 53 52 49 45 42 43 44 43 40 37 31 28 26 21 18 17 18 16 8 4 14 19 19
32 33 31 28 26 28 29 29 32 33 41 53 61 61 60 56 54 54 53 49 49 49 47 45 44 44 42 40 38 36 31 24 24 22 20 17 14 15 14 13 15 15 16
36 37 37 37 36 35 29 29 32 35 39 45 55 60 60 56 55 54 53 49 47 46 45 45 45 43 40 38 35 30 25 23 21 19 18 19 18 20 18 16 15 14 19
36 37 38 39 39 40 39 36 33 30 33 43 48 55 58 56 54 52 52 50 48 46 43 44 43 40 37 34 31 28 26 24 21 18 19 19 19 20 19 17 16 15 18
35 37 38 40 41 41 41 41 40 39 37 37 49 53 55 54 52 50 49 48 46 43 43 41 39 37 34 30 28 26 25 21 21 19 20 20 22 22 21 21 20 17 13
36 38 40 41 41 40 40 41 41 41 40 43 49 51 52 51 48 47 46 44 44 42 41 40 37 34 31 28 26 22 21 19 20 21 19 19 21 21 21 21 21 21 18
38 40 40 40 40 41 41 41 41 41 41 45 47 48 48 46 45 45 44 43 41 40 39 36 33 29 26 24 21 20 18 18 19 19 18 19 20 20 21 21 20 20 20
41 40 38 40 40 36 35 36 39 41 42 45 46 45 44 44 43 42 42 41 39 37 35 30 27 26 25 21 19 16 17 17 17 18 19 19 20 20 20 20 20 20 20
41 38 39 40 33 30 31 34 40 40 44 44 44 42 42 42 41 40 40 36 33 28 26 25 23 20 18 15 15 16 18 20 22 23 20 20 20 19 20 20 19 19 19
40 36 35 37 31 29 30 32 35 41 40 40 39 37 36 36 34 32 32 29 25 24 23 20 17 18 19 21 24 26 27 26 22 21 20 20 20 19 18 19 20 20 20
37 30 29 35 33 31 32 34 32 32 33 33 33 33 32 27 27 26 24 23 19 17 16 16 20 23 24 25 27 27 25 20 19 20 20 20 23 24 23 23 23 23 22
32 26 26 32 35 34 34 34 32 29 29 27 27 26 26 26 24 22 21 22 22 23 25 27 29 32 34 34 32 27 21 20 18 17 18 19 20 23 24 24 24 24 24
27 23 22 26 28 33 35 34 33 32 30 28 28 27 28 28 28 28 28 28 28 28 29 29 30 32 33 33 31 27 21 18 18 18 19 19 20 24 23 24 25 25 25
23 21 22 23 26 27 25 30 32 32 33 32 32 32 31 31 31 31 30 30 30 31 31 31 32 32 32 31 28 23 19 19 19 20 21 21 22 24 24 24 24 24 25
22 22 23 22 24 28 29 31 31 32 32 32 33 33 33 32 31 31 31 32 32 31 30 29 29 27 25 23 25 21 19 18 18 20 21 23 23 23 24 25 24 23 23
24 24 24 24 25 25 27 28 29 30 31 32 32 33 33 32 31 31 31 31 31 29 28 23 20 21 19 21 18 23 20 19 20 22 22 23 23 24 25 24 21 19 18
29 29 29 29 29 29 30 31 32 31 32 32 32 32 32 31 32 31 31 29 25 17 13 12 13 14 15 17 19 24 21 22 23 22 22 22 25 25 23 22 19 19 21
31 32 32 33 33 32 32 31 30 32 33 32 31 31 31 32 31 26 21 18 14 12 12 12 12 13 13 20 21 23 24 24 23 22 22 23 25 22 20 18 19 21 21
32 33 33 33 34 33 32 30 31 32 32 31 31 31 31 31 30 25 16 13 12 12 11 12 11 11 14 17 23 23 23 23 23 23 24 22 19 17 17 18 19 20 16
32 32 33 33 34 33 33 32 32 32 31 31 31 32 31 27 17 14 13 13 12 11 11 10 8 11 15 17 20 21 22 23 22 22 16 16 16 16 16 16 16 16 17
33 33 33 33 32 32 32 32 32 31 30 30 30 25 19 14 14 14 12 9 9 8 9 10 12 13 14 17 21 22 22 22 20 19 14 14 14 15 15 16 16 17 17
35 35 33 26 27 27 26 26 22 21 20 19 18 16 14 15 17 17 19 20 19 19 19 19 17 16 19 21 21 22 21 20 18 15 14 14 15 15 16 16 16 17 17

GFSMW_sfc_30mbdewp_066.txt.gz
Dewpoint
34 34 33 34 34 36 37 39 57 64 64 64 63 63 62 62 62 61 58 57 58 58 57 56 55 51 48 45 36 31 27 23 22 23 24 27 29 27 30 32 28 28 25
31 31 31 31 32 32 35 37 42 59 64 64 64 63 63 63 62 62 60 57 57 57 57 55 53 49 45 40 34 31 26 22 24 19 21 19 23 27 27 28 26 25 23
29 29 30 30 30 30 31 33 37 48 62 64 64 62 62 60 60 60 60 59 57 57 56 54 52 48 45 41 35 32 31 28 24 26 25 21 21 22 20 26 27 23 20
26 28 29 29 29 29 30 32 33 37 56 63 63 62 61 60 61 61 60 59 58 57 56 54 51 48 45 42 37 39 41 35 29 25 25 22 22 15 10 18 20 19 19
28 28 27 28 28 29 29 29 30 34 40 58 62 62 61 61 60 59 60 56 56 57 55 52 49 46 45 44 42 41 38 38 35 31 26 20 18 14 8 5 16 20 19
37 37 38 38 38 37 33 31 32 33 36 44 60 61 61 59 57 56 56 53 54 54 53 49 47 46 46 46 44 42 39 35 34 31 22 21 16 14 13 10 14 15 16
37 37 38 39 40 41 41 39 37 33 34 41 51 61 61 59 57 56 56 53 51 51 51 49 47 46 46 45 43 40 38 33 30 28 26 23 19 20 19 14 14 12 17
37 38 39 40 41 40 40 40 40 40 39 35 41 50 59 58 57 56 56 54 53 52 49 48 47 46 44 42 40 38 34 30 27 22 21 20 20 20 19 16 15 13 16
37 39 40 41 39 39 40 41 41 41 41 40 41 44 51 56 56 54 53 52 51 48 48 48 46 44 41 38 36 34 28 25 23 22 21 21 22 22 22 22 19 14 10
38 40 40 39 40 40 39 38 39 40 41 41 42 45 49 53 53 51 50 49 47 46 45 44 43 41 37 32 29 27 23 22 22 22 21 22 23 22 23 22 21 20 16
40 41 39 39 40 35 34 34 35 37 40 41 43 45 48 48 48 48 46 45 44 44 43 42 40 37 32 27 24 23 21 20 20 20 20 20 21 21 21 22 21 21 20
41 40 38 39 34 30 31 32 33 37 41 41 43 45 45 45 45 45 44 42 42 41 39 37 33 28 24 22 21 20 21 21 20 21 21 21 21 21 21 20 20 20 20
41 37 36 36 32 30 31 32 33 36 42 43 43 43 43 43 43 42 41 40 39 36 32 29 26 24 23 24 25 26 25 25 26 27 28 28 27 25 22 20 20 20 19
38 33 32 35 33 32 33 33 32 35 38 40 39 40 40 39 39 38 37 35 32 30 28 23 21 20 21 23 26 28 29 29 28 28 27 26 22 19 19 20 20 21 21
36 29 28 34 34 33 34 32 30 31 33 35 36 33 33 32 30 28 26 25 24 22 22 22 25 26 28 29 30 30 29 27 26 26 26 25 26 26 25 24 24 24 23
32 26 25 32 34 34 34 32 30 28 28 27 27 27 25 23 22 22 21 22 23 26 29 30 32 33 35 34 32 29 28 28 26 24 22 20 21 24 25 24 24 25 25
27 24 24 26 26 33 34 32 32 32 30 29 29 29 29 29 29 28 27 28 29 30 32 33 34 34 36 35 33 32 29 27 23 18 19 20 21 24 23 24 25 25 26
24 22 23 25 27 27 31 32 33 32 32 32 31 32 31 32 32 32 31 30 31 31 32 33 33 32 35 35 32 30 27 20 19 20 21 21 22 23 24 24 25 25 25
22 23 23 25 28 29 31 32 32 33 32 32 33 33 32 32 31 31 32 32 32 31 31 31 32 32 32 34 31 24 19 19 19 21 22 23 23 24 26 25 24 22 22
23 23 25 26 26 28 29 30 32 32 32 32 33 33 33 32 32 32 31 31 31 30 31 30 31 31 30 29 24 23 19 19 21 23 22 24 24 25 25 24 22 19 18
27 28 28 28 29 31 32 32 32 31 32 33 32 32 32 32 32 31 31 31 30 29 26 24 20 17 17 21 24 25 23 23 23 22 22 23 25 24 23 21 19 19 21
30 31 32 32 32 32 32 31 30 32 32 32 32 32 32 32 32 30 27 21 17 13 12 13 13 13 14 21 23 24 24 24 23 22 23 24 23 20 19 18 20 21 21
32 33 33 33 32 32 33 31 31 32 32 32 32 32 32 32 31 24 15 13 13 12 12 12 11 10 15 18 24 24 23 24 23 23 23 21 18 17 17 18 20 19 16
32 32 33 33 32 33 33 32 33 32 31 31 31 31 29 21 15 14 13 12 12 12 12 9 8 12 15 18 20 22 22 23 21 22 16 16 16 17 17 16 16 17 17
32 33 33 33 32 32 32 32 32 32 31 32 30 25 18 14 13 13 10 8 9 10 8 9 11 13 15 18 22 22 22 22 20 19 14 14 15 15 15 16 16 17 17
33 33 32 32 32 32 32 32 31 30 29 25 19 15 14 15 17 18 20 21 20 20 19 19 18 17 20 21 22 22 21 20 18 15 14 15 15 15 16 16 16 16 17

GFSMW_sfc_30mbdewp_069.txt.gz
Dewpoint
35 36 36 36 36 36 37 40 58 64 65 64 63 63 62 62 62 62 60 60 60 60 59 59 58 58 56 53 48 40 34 30 27 28 27 29 31 30 36 38 34 33 29
33 33 33 33 34 34 35 38 42 57 64 63 63 63 63 63 63 63 61 59 59 59 59 59 58 56 55 52 45 37 32 29 28 27 27 26 26 29 29 31 30 30 27
28 30 30 31 32 32 32 34 37 44 61 64 64 63 63 61 62 62 62 60 59 59 58 58 57 55 53 50 45 39 38 34 28 28 30 26 27 26 25 28 29 27 26
26 27 29 29 30 31 31 32 34 37 51 63 63 61 60 60 60 61 62 61 59 58 58 57 57 55 53 50 46 41 40 39 35 31 27 28 28 22 20 20 25 25 23
36 37 36 36 36 32 31 30 31 33 36 54 62 61 60 60 61 61 61 61 60 59 58 57 56 54 52 50 46 41 42 42 40 37 32 28 26 20 16 15 19 21 22
37 38 40 41 41 42 41 38 34 34 36 38 54 61 60 59 60 59 60 58 58 59 58 57 55 54 51 50 47 45 43 43 42 39 34 29 27 22 15 11 17 20 19
38 39 40 41 40 40 41 41 41 40 39 38 42 54 60 60 60 60 58 56 55 56 56 55 54 52 51 50 48 46 44 43 40 37 32 28 24 25 25 24 19 15 18
38 40 41 40 40 40 40 40 40 40 41 41 40 42 51 58 59 59 58 57 56 55 56 55 52 51 50 49 48 46 45 42 39 33 29 24 24 23 20 18 17 13 16
39 40 40 39 40 39 37 37 37 38 40 41 41 42 44 48 56 57 57 57 55 53 52 52 51 50 49 47 45 43 39 36 31 28 25 24 24 24 24 26 24 22 16
39 41 39 39 39 35 34 34 35 36 38 41 42 42 44 47 51 54 54 53 50 50 50 50 49 47 45 44 43 37 31 27 25 24 22 24 25 25 25 24 21 20 16
39 41 38 40 35 32 32 33 34 35 38 42 41 43 44 47 49 49 49 48 47 47 47 46 45 43 40 36 32 27 24 22 21 23 22 22 24 25 24 24 24 24 24
40 39 38 36 33 32 33 33 33 35 39 42 42 44 45 46 47 46 46 45 45 44 43 41 39 34 29 27 23 22 21 21 23 25 25 27 30 30 29 28 26 23 23
40 36 34 35 34 32 33 33 33 34 39 42 42 43 44 44 44 44 43 42 41 39 38 33 28 25 24 24 25 26 27 29 29 30 29 29 30 31 30 28 24 22 21
37 31 32 35 34 34 33 31 30 32 36 39 40 41 41 42 41 40 38 34 32 30 28 26 25 24 25 27 28 30 30 30 30 30 30 30 30 30 29 27 26 26 26
35 28 31 34 34 34 33 31 30 29 30 31 32 33 33 31 30 32 29 28 27 26 27 28 28 28 28 28 29 30 29 29 30 31 31 31 30 31 30 30 29 27 24
31 26 27 30 34 34 33 32 31 30 29 28 28 27 26 25 23 24 25 26 27 30 32 33 33 33 34 34 33 31 31 31 30 29 28 29 30 30 30 28 25 25 25
28 25 26 26 28 33 33 32 32 32 31 31 31 30 30 30 29 29 30 31 32 34 34 35 36 36 36 36 35 33 31 29 28 26 23 24 24 27 25 24 26 26 27
25 23 25 27 27 30 32 33 32 32 33 33 32 32 32 32 32 31 32 33 33 33 33 34 35 35 36 34 31 29 28 27 22 24 26 24 23 23 25 25 27 27 25
23 24 25 28 29 31 31 32 32 33 33 33 32 32 32 32 32 32 32 32 32 32 32 32 32 32 32 31 30 26 22 20 22 25 24 24 23 25 26 26 25 22 21
23 23 25 26 28 29 32 32 32 32 32 32 33 33 33 32 32 32 31 32 32 31 32 31 33 33 32 31 32 26 20 24 23 23 22 24 25 25 25 23 22 19 17
26 27 28 29 31 32 33 32 32 31 32 33 33 33 33 32 32 32 32 31 30 30 29 29 29 27 22 29 28 26 24 24 23 22 22 23 25 23 21 20 19 18 21
30 31 31 32 32 33 33 31 30 32 33 33 32 32 33 33 32 32 31 29 21 16 15 16 15 14 19 24 24 24 24 25 23 22 23 23 21 19 19 19 20 21 21
32 32 32 32 32 33 33 31 32 33 33 32 32 32 32 32 26 19 16 14 14 13 12 12 10 12 16 20 24 24 24 24 23 22 22 19 17 18 17 19 20 19 17
31 32 31 31 31 33 33 33 33 33 32 32 31 32 29 18 15 14 13 13 12 13 11 8 9 13 16 19 21 22 23 23 21 21 16 16 17 17 17 17 17 17 17
32 32 32 32 32 33 33 32 32 32 32 32 31 24 17 14 13 12 10 9 10 10 7 10 12 14 17 20 23 23 22 22 20 19 13 14 15 15 16 16 17 17 17
32 33 33 32 32 32 32 32 32 32 31 27 23 15 14 15 18 20 21 22 20 19 20 20 18 18 20 21 22 22 21 20 19 13 14 15 15 16 16 16 16 17 17

GFSMW_sfc_30mbdewp_072.txt.gz
Dewpoint
33 34 35 36 37 37 38 39 46 56 61 64 63 63 63 63 63 63 61 61 60 58 58 58 58 57 58 57 55 52 49 45 43 36 36 33 32 31 33 37 36 35 33
31 33 34 36 36 36 37 38 39 47 57 62 63 64 63 63 63 64 63 62 61 60 59 58 57 57 57 58 56 52 49 48 40 42 42 40 33 30 30 34 34 33 32
30 30 30 32 35 35 35 36 37 39 46 57 60 62 63 63 63 63 63 63 62 61 60 60 58 57 57 57 57 53 50 46 40 40 45 42 42 32 31 30 32 31 31
27 27 29 30 32 34 35 36 36 37 40 48 55 58 59 59 60 61 62 62 63 62 61 61 60 59 57 56 57 54 51 50 44 37 34 35 34 32 29 27 29 29 28
35 36 38 39 39 38 36 35 34 35 36 40 51 56 57 58 60 60 61 61 62 62 61 61 61 60 58 57 56 53 51 50 49 43 37 33 31 27 28 34 24 26 27
38 40 41 42 42 43 43 43 36 35 36 36 42 53 55 57 59 59 60 61 61 61 61 60 60 60 59 57 56 54 52 50 50 46 42 37 36 34 30 30 26 24 24
39 40 41 40 41 42 42 41 41 41 41 40 40 40 51 56 57 57 59 59 59 59 59 59 59 59 59 57 56 54 52 51 50 47 44 38 32 29 30 28 25 20 19
40 40 40 41 41 40 39 39 39 40 40 41 42 41 43 50 56 58 58 58 59 59 59 59 59 58 58 56 55 54 53 51 50 47 40 31 28 29 28 30 30 29 25
40 41 40 41 39 37 37 37 37 38 39 41 43 42 42 44 49 54 58 59 59 59 58 58 57 56 55 54 53 52 51 48 46 40 32 29 29 31 32 30 29 28 27
40 41 39 40 37 35 36 37 37 37 39 41 42 43 43 44 45 48 52 55 56 55 54 54 53 52 51 51 49 48 45 41 36 32 28 27 28 29 29 28 27 27 23
39 41 39 38 36 35 35 36 36 37 40 43 43 43 44 45 47 49 50 51 51 51 51 51 50 49 48 46 42 37 33 31 31 32 31 30 27 27 27 28 29 30 31
39 41 38 36 35 34 35 35 35 37 41 43 44 45 46 46 47 47 48 48 48 48 47 47 46 43 40 35 30 27 26 27 27 28 28 29 31 31 33 33 32 32 31
40 39 35 36 35 35 35 33 33 36 40 42 42 43 44 44 45 45 45 45 45 44 42 39 34 31 27 26 25 25 27 28 29 30 31 32 32 32 32 32 31 31 30
40 36 34 35 35 35 33 32 32 33 37 37 39 38 40 41 40 39 37 36 33 31 30 29 27 28 28 29 29 31 31 31 32 32 32 32 32 31 31 31 29 28 28
38 34 34 35 35 35 33 32 31 31 31 31 30 30 30 32 31 31 29 28 28 27 28 29 30 31 31 32 32 32 31 31 32 32 32 32 32 32 30 30 29 28 26
36 30 31 32 35 35 33 32 32 32 32 31 30 29 28 28 28 29 30 30 30 31 33 33 34 34 34 34 34 33 32 32 31 30 30 30 31 31 31 30 29 29 27
32 29 28 28 32 34 34 33 33 32 32 31 31 31 30 30 31 31 32 33 34 35 35 35 35 35 36 37 36 34 32 31 29 27 26 25 25 29 27 25 26 26 27
29 27 27 28 30 33 34 33 33 33 33 32 32 32 32 32 33 34 34 34 34 34 34 34 35 35 36 35 32 29 28 26 25 26 27 26 25 24 24 25 26 27 26
26 26 28 29 31 32 33 34 33 33 32 32 32 32 32 33 33 33 33 34 33 32 32 32 32 32 32 31 28 23 21 23 25 26 26 24 22 23 27 25 27 23 21
24 25 28 29 30 31 32 33 33 33 32 32 33 34 33 33 32 32 32 32 33 32 32 32 33 34 30 31 28 25 27 23 21 21 21 24 25 25 25 22 20 19 15
26 26 27 29 31 32 32 32 33 33 33 33 33 33 33 33 33 33 33 32 32 32 31 30 28 27 30 29 28 25 22 22 21 20 20 21 24 23 21 21 18 17 21
29 29 30 31 32 33 33 32 31 33 33 33 33 33 34 34 34 33 32 31 25 21 20 20 19 20 23 25 25 25 25 25 21 20 20 21 21 19 20 19 20 22 22
29 30 30 31 32 33 33 31 33 34 34 33 33 33 33 32 30 25 19 15 14 13 12 12 10 10 16 21 25 25 24 23 20 20 21 19 17 18 16 18 21 21 17
30 30 30 30 31 33 34 34 34 34 34 33 33 33 25 17 15 14 13 12 12 11 11 7 7 11 15 19 21 22 21 22 19 21 16 15 16 17 17 17 17 17 18
30 30 29 29 32 34 33 33 33 33 32 32 30 23 18 14 13 12 11 10 12 10 6 7 9 12 15 20 22 22 21 21 19 19 10 11 13 14 15 16 17 17 18
30 31 30 31 33 33 32 32 33 33 32 30 23 15 14 12 13 15 17 21 18 18 19 20 16 19 21 22 23 22 22 20 19 11 10 12 15 16 17 17 18 19 20

GFSMW_sfc_30mbdewp_075.txt.gz
Dewpoint
27 28 30 33 37 39 40 42 50 59 62 64 65 65 64 65 63 62 61 60 59 58 57 56 55 55 55 56 55 54 53 52 51 47 40 41 39 37 36 39 39 38 38
28 28 30 33 35 36 37 38 39 42 53 59 63 63 63 64 64 65 63 62 61 60 58 58 57 57 56 56 56 55 53 52 51 46 45 44 41 37 35 36 37 37 36
25 26 30 32 35 36 36 37 38 39 42 51 61 63 63 64 64 63 64 64 63 62 61 60 59 58 57 56 57 56 54 51 50 47 48 46 46 38 36 34 36 35 35
30 30 30 30 32 35 37 37 37 38 39 42 50 57 59 61 62 62 62 63 63 63 62 61 61 60 58 57 58 58 56 52 50 46 47 46 39 40 35 33 33 34 33
28 29 32 35 36 39 38 38 37 37 37 38 41 48 53 57 58 59 59 61 62 62 62 62 61 61 60 58 57 58 57 53 52 46 43 42 40 37 33 35 30 31 31
36 39 41 41 42 44 43 42 37 34 35 36 38 42 49 53 56 57 58 59 61 62 61 62 61 61 61 60 59 58 58 55 54 51 48 43 42 40 34 34 32 30 29
38 39 39 40 42 42 42 40 41 40 40 39 38 37 42 50 54 55 57 58 59 60 60 60 61 61 61 60 60 59 58 56 55 53 50 45 43 37 38 38 29 24 21
39 39 40 41 41 40 40 39 40 40 40 41 42 41 40 41 46 54 56 56 58 57 59 59 60 60 60 60 59 58 58 56 55 54 52 46 37 34 32 32 29 28 30
40 40 40 41 39 38 38 38 38 39 39 41 41 42 42 42 43 47 54 57 58 59 59 59 58 59 59 59 58 57 55 54 53 47 39 35 35 36 37 37 38 38 36
40 40 40 40 38 37 38 38 38 38 40 42 43 43 43 43 44 45 46 50 56 57 56 56 57 56 55 54 54 52 50 47 42 39 37 36 35 35 35 34 31 31 31
39 40 40 38 37 37 37 37 37 38 41 43 44 44 44 45 46 46 48 50 51 51 52 53 52 51 51 50 49 47 42 39 37 36 34 33 34 33 33 34 34 33 32
36 41 39 37 36 36 36 36 36 37 41 43 44 44 45 46 46 47 47 48 49 49 49 49 48 47 45 40 38 37 36 35 33 33 33 33 33 33 34 34 33 33 33
36 40 37 36 36 36 35 34 34 37 40 41 41 42 43 43 44 44 45 45 45 44 43 41 39 35 33 30 29 30 31 32 32 32 33 33 33 33 33 33 32 32 31
34 38 36 36 35 36 34 33 33 34 35 36 35 35 36 36 35 33 33 32 32 31 30 30 29 29 29 30 30 32 33 33 33 33 34 34 34 33 32 32 31 29 28
36 37 36 36 36 35 33 33 33 33 34 32 31 30 30 31 31 30 30 30 30 31 31 31 32 33 33 33 33 33 33 33 33 33 33 33 34 33 31 29 29 28 27
37 36 34 35 35 35 34 34 33 34 33 32 31 30 30 31 31 32 33 33 34 34 34 34 34 35 36 35 35 33 33 33 32 30 31 32 32 31 31 30 29 29 27
37 33 32 32 35 35 35 34 34 34 33 32 31 31 32 33 34 34 34 34 35 35 35 35 35 35 36 36 35 34 31 30 30 30 30 28 29 28 26 24 26 28 28
34 32 30 30 33 34 34 34 33 33 33 33 32 32 33 34 35 35 35 35 35 35 34 34 34 34 35 35 33 30 29 29 28 27 26 25 24 23 24 25 27 28 27
31 30 29 30 33 34 34 34 34 33 32 32 32 33 34 34 34 34 33 34 33 32 32 32 32 31 30 29 27 24 24 25 27 28 28 24 22 25 27 26 27 25 22
27 28 29 31 31 32 33 34 34 34 33 33 33 34 34 34 33 33 32 33 33 33 33 33 32 30 29 28 27 27 27 26 22 21 21 24 25 26 25 23 20 18 18
26 27 28 30 31 32 32 33 34 34 33 34 34 34 34 34 33 33 34 33 32 32 31 29 28 29 28 28 26 24 22 21 21 20 19 20 23 22 21 22 21 17 20
27 28 30 31 32 33 33 33 32 34 34 34 33 34 34 34 34 33 33 32 30 25 21 21 21 23 24 25 26 26 25 24 20 18 19 20 22 19 20 20 19 22 23
29 30 30 31 32 33 33 32 33 34 34 34 34 34 34 34 33 30 24 16 15 15 14 13 11 12 18 22 25 25 24 24 20 21 22 20 17 17 16 16 21 22 18
30 29 29 29 31 33 33 34 34 35 34 34 34 32 29 24 18 15 14 13 12 11 11 9 8 12 15 19 21 21 21 23 20 22 20 13 16 15 17 17 17 18 18
30 30 29 29 31 33 34 34 34 34 34 33 31 25 17 14 14 13 14 12 14 15 7 9 10 12 15 21 23 23 22 22 20 20 11 10 11 13 15 17 18 18 18
31 30 29 29 33 33 33 33 34 33 33 30 24 18 14 12 12 15 18 22 20 21 21 20 17 20 22 22 23 23 22 21 19 15 9 10 14 16 18 18 19 20 21

GFSMW_sfc_30mbdewp_078.txt.gz
Dewpoint
28 28 36 38 40 43 45 55 62 64 64 64 64 65 64 65 64 62 61 59 59 58 56 55 53 53 53 54 55 55 55 53 51 47 43 42 40 39 39 40 41 41 40
27 28 29 31 33 40 41 41 44 54 63 65 64 64 64 64 65 65 65 62 60 59 58 56 55 55 55 54 55 54 54 53 53 48 42 40 41 39 37 38 39 39 40
28 28 29 32 35 37 38 39 39 41 42 60 64 63 63 63 63 63 63 64 63 61 59 58 57 57 56 56 56 56 54 53 52 49 45 46 45 39 39 36 38 38 38
29 30 31 31 34 39 39 39 40 40 40 42 59 63 62 62 63 62 63 63 64 64 63 61 59 59 59 57 57 57 56 54 51 50 47 49 43 40 36 35 35 37 36
28 29 32 36 40 40 39 39 38 38 38 39 41 46 60 62 62 63 63 62 63 63 63 63 62 61 60 59 58 58 57 55 53 50 47 47 44 39 37 33 32 34 34
35 39 41 42 43 44 44 43 39 36 36 36 37 39 40 46 55 59 58 59 62 62 62 62 62 62 61 61 60 59 58 58 54 51 48 46 45 44 39 36 32 31 31
38 40 41 42 43 42 42 40 41 41 41 41 40 39 38 39 44 52 57 57 58 61 61 61 61 61 61 61 61 60 59 58 55 54 50 48 47 44 43 42 35 30 24
39 40 41 42 41 40 40 40 39 40 40 41 42 43 43 42 42 44 50 56 57 58 59 60 60 60 60 61 61 60 59 59 57 56 55 49 42 40 38 39 36 30 32
40 40 41 40 39 38 39 39 38 39 40 41 42 43 43 43 44 44 45 49 57 59 59 59 58 58 59 60 60 59 58 58 56 53 47 41 39 39 39 38 40 39 36
40 40 41 38 37 38 38 38 38 38 41 44 44 44 44 44 44 45 45 49 54 54 55 56 57 57 56 56 56 53 51 49 44 42 41 39 38 38 37 38 39 41 39
40 40 39 37 37 37 37 36 37 39 42 43 44 45 45 46 47 47 48 49 49 51 52 53 53 52 51 51 50 47 45 44 41 40 38 36 36 35 36 37 36 36 36
40 40 38 37 36 36 35 35 36 38 41 42 43 43 44 44 45 46 46 48 48 49 49 48 46 44 41 40 41 40 39 38 37 36 35 35 36 36 36 35 34 34 34
39 40 37 36 36 36 34 34 34 36 38 38 38 38 37 37 36 35 34 34 34 34 32 32 31 29 29 31 32 33 33 34 34 35 35 35 35 34 34 33 33 32 31
36 39 37 36 36 35 34 33 34 34 34 33 32 32 33 32 31 31 31 31 31 31 31 31 31 31 32 32 33 33 34 34 34 35 34 34 34 33 33 32 32 30 28
36 38 37 36 36 34 33 34 34 34 33 31 30 31 31 31 32 32 32 32 32 33 33 33 33 33 33 33 33 33 33 33 33 33 34 34 35 34 32 30 29 29 27
36 37 37 35 36 35 34 34 34 34 33 32 31 32 32 33 34 34 34 34 35 35 35 36 36 35 35 35 34 33 33 32 31 31 32 32 33 34 33 32 31 30 28
38 34 34 35 36 35 34 34 34 33 33 32 32 33 34 35 35 35 35 35 35 35 35 35 35 35 35 36 36 33 31 31 31 31 31 31 31 30 29 26 26 28 29
34 33 32 33 35 35 34 34 34 34 33 32 32 34 35 35 35 35 35 35 35 34 34 34 35 35 36 35 34 30 29 29 29 28 27 26 26 25 26 27 28 28 27
32 31 30 32 34 35 34 34 33 33 33 33 33 34 35 34 34 33 33 33 32 32 32 32 31 29 29 28 27 27 27 26 26 26 27 25 23 26 27 25 23 22 20
29 29 31 33 33 33 34 34 34 33 33 33 34 35 35 34 33 33 32 33 33 33 33 31 30 29 28 28 27 27 26 25 25 23 24 25 25 25 24 22 21 20 18
29 30 31 31 32 32 33 34 34 33 34 34 34 34 34 33 34 34 34 33 32 31 29 29 29 29 28 27 26 25 24 22 21 20 20 22 23 22 21 22 20 19 22
28 29 31 32 33 33 35 34 33 34 34 34 34 34 34 34 34 33 32 32 31 26 23 23 24 25 26 27 27 26 24 24 19 18 20 22 22 19 20 20 20 22 23
29 31 31 32 33 34 35 33 33 34 34 33 34 34 34 34 34 33 31 26 20 18 18 17 17 19 24 25 25 24 23 23 20 21 21 20 16 17 17 18 20 21 18
30 30 31 31 32 33 34 34 34 34 34 34 34 34 34 33 31 23 16 15 14 12 12 11 11 13 17 20 23 22 23 24 22 22 21 15 14 14 15 16 18 18 19
30 30 29 30 32 33 34 34 35 34 34 33 32 30 25 16 15 20 16 15 17 15 9 10 12 14 17 23 24 23 22 23 20 20 15 10 12 14 17 18 19 19 20
31 30 29 30 33 33 33 34 34 34 33 32 28 20 15 14 15 18 21 22 22 23 22 20 18 22 23 23 23 22 22 22 19 17 10 11 14 17 19 19 20 20 21

GFSMW_sfc_30mbdewp_081.txt.gz
Dewpoint
32 35 39 46 59 60 60 64 63 63 63 63 63 63 64 64 62 60 59 58 58 58 57 55 53 53 53 54 54 55 55 53 51 47 44 43 42 41 42 42 43 46 47
30 29 36 39 43 53 58 60 63 64 64 64 64 64 64 64 64 64 64 61 59 58 57 56 54 53 53 53 54 54 54 54 51 47 43 41 41 41 40 40 41 42 42
28 29 30 34 35 39 42 46 51 61 64 65 64 63 64 63 63 63 63 64 64 60 58 57 56 54 54 53 54 54 54 53 53 49 45 43 42 42 40 39 39 40 41
30 30 31 34 37 38 39 39 39 40 43 64 64 63 62 62 62 62 63 63 63 64 63 60 57 56 56 55 55 56 55 54 53 52 48 49 47 43 40 36 37 38 39
30 30 34 37 40 40 40 39 38 38 37 38 58 62 62 62 62 62 62 62 62 63 63 63 62 59 58 58 57 57 56 55 54 53 51 48 46 41 38 37 35 37 37
36 39 41 43 43 43 42 41 38 37 38 38 38 38 42 44 49 60 62 62 62 62 62 62 62 62 61 60 60 59 58 57 55 54 51 50 49 47 41 37 34 35 34
40 40 41 43 42 41 40 41 41 40 41 42 42 43 42 40 40 43 53 57 59 61 61 61 61 61 62 61 61 61 60 59 58 55 53 51 50 49 47 45 37 34 30
39 40 42 42 41 40 40 39 39 39 40 41 42 42 43 43 43 44 45 51 57 58 61 61 61 61 61 61 61 61 60 60 59 57 56 52 50 47 47 47 43 35 31
40 41 42 41 39 39 39 38 39 39 42 44 44 44 44 43 43 44 46 47 56 58 59 59 59 59 59 58 59 59 59 59 57 56 54 48 43 43 42 41 42 42 40
40 41 39 38 38 38 38 38 39 42 43 44 44 45 46 46 47 47 49 51 52 53 54 55 57 56 56 56 56 53 51 51 46 44 43 41 40 40 41 41 42 43 42
40 40 38 37 37 37 36 37 39 42 42 43 44 44 44 46 47 47 48 48 49 50 51 52 51 50 49 50 49 46 45 44 41 40 39 38 38 38 38 38 39 38 38
40 39 37 37 36 35 35 36 38 41 41 41 42 41 41 41 40 38 39 44 44 46 45 43 40 38 37 40 40 40 40 40 39 37 37 36 37 36 37 37 36 35 35
39 38 37 36 36 34 34 34 36 37 36 36 36 35 35 33 33 33 33 33 33 32 32 31 31 32 33 35 35 35 36 36 36 36 36 36 35 35 34 34 33 33 32
40 38 36 36 35 34 34 34 34 33 32 32 32 32 32 32 31 32 32 32 32 32 33 33 33 33 34 34 34 35 35 35 35 35 35 35 34 34 33 33 32 31 29
39 38 36 36 35 33 33 34 33 32 31 31 32 32 32 33 33 33 33 34 34 34 34 33 33 33 33 34 34 34 34 33 33 34 35 35 35 35 33 31 31 30 29
36 37 36 36 34 33 34 34 33 33 32 32 32 33 34 34 35 35 35 35 36 36 36 35 35 35 35 35 35 33 32 32 32 31 32 34 35 35 35 34 33 30 28
37 37 35 36 35 34 34 34 33 33 32 32 33 34 35 35 35 35 35 35 35 35 36 35 35 35 35 36 35 33 31 31 31 31 31 31 31 29 27 27 27 28 29
36 36 35 36 35 35 35 34 34 33 33 33 34 36 36 36 36 35 35 34 34 34 35 35 36 36 37 36 34 31 30 29 29 28 28 26 26 26 26 28 28 28 27
33 33 34 35 35 34 34 34 33 33 33 33 34 35 35 35 34 33 33 33 33 32 32 30 30 30 29 29 29 27 26 25 24 25 26 25 24 27 27 23 22 20 19
31 31 33 34 34 34 34 33 33 32 32 33 34 35 35 34 33 32 32 33 32 30 29 28 28 30 28 28 28 26 25 23 24 25 24 25 25 25 23 22 21 19 18
30 32 33 33 33 33 35 34 33 33 34 34 35 34 34 33 34 33 33 33 32 31 29 28 27 26 27 27 27 26 23 22 20 20 20 22 23 22 21 21 20 19 21
31 31 32 32 33 34 35 34 34 34 34 34 34 34 34 34 34 32 32 31 28 27 27 27 26 27 27 28 27 25 25 23 19 19 21 22 21 19 19 19 19 22 23
29 31 32 32 33 35 35 34 34 34 34 34 33 34 34 33 33 32 31 30 24 22 21 21 21 23 25 25 25 24 23 22 20 21 22 22 16 18 18 18 20 21 18
29 31 32 32 32 34 34 34 34 34 33 33 34 34 33 33 33 32 29 21 19 17 16 14 13 15 19 21 23 22 22 24 22 22 19 18 15 15 16 17 18 18 19
30 31 31 31 32 34 34 34 34 33 33 33 33 33 33 31 24 20 16 15 15 14 12 11 12 13 17 22 24 23 22 22 21 20 16 10 12 15 17 18 20 21 21
31 30 30 31 32 33 34 35 34 34 33 33 32 29 25 18 19 18 20 23 25 21 19 18 18 22 21 25 24 23 22 22 21 17 11 10 14 16 18 19 19 20 20

GFSMW_sfc_30mbdewp_084.txt.gz
Dewpoint
34 33 43 60 60 61 63 63 63 63 63 63 63 63 63 62 59 58 57 58 58 58 57 54 53 53 54 55 55 55 54 54 52 48 46 45 43 42 44 44 49 53 52
32 31 34 42 59 60 61 63 63 63 63 63 63 63 63 64 62 61 60 58 58 58 58 56 54 53 53 53 54 54 54 54 52 49 44 46 45 43 42 42 43 45 49
31 29 30 36 45 56 60 62 63 63 63 64 64 63 63 63 63 63 63 63 62 59 58 57 56 54 53 52 53 54 54 53 53 49 50 44 45 43 42 41 40 41 42
29 30 30 34 38 43 44 50 54 61 62 64 63 63 62 62 62 63 63 63 64 64 61 58 57 56 54 53 53 54 54 54 53 52 50 48 46 44 44 38 39 39 40
31 30 32 38 39 39 39 39 39 39 42 63 64 63 62 62 61 62 62 61 62 63 63 63 60 57 56 56 55 55 55 54 54 53 52 49 47 42 43 44 40 40 40
31 33 40 42 42 42 41 39 38 38 37 39 48 61 62 59 58 60 61 61 61 61 62 62 62 62 60 58 58 57 57 56 55 55 54 52 51 49 45 43 41 40 38
35 39 41 41 41 40 40 40 40 41 42 42 42 41 40 40 41 44 51 57 60 61 61 61 61 61 61 61 61 60 59 59 58 57 56 54 53 52 50 49 44 41 37
39 40 42 41 40 39 39 39 40 40 42 42 42 43 43 43 43 43 44 49 55 58 60 61 61 61 61 61 61 61 60 60 59 58 57 55 53 52 51 50 47 40 36
40 41 41 40 39 39 38 39 39 42 43 44 45 45 45 44 44 44 45 47 55 58 58 60 60 61 60 59 59 58 58 58 55 54 54 51 46 45 46 46 46 47 44
41 41 40 38 38 38 38 39 42 42 43 44 44 45 45 46 47 48 50 51 52 53 55 56 56 56 56 56 56 54 50 49 45 44 44 43 42 42 43 43 44 44 43
41 39 38 38 38 37 37 38 41 42 42 43 43 44 44 45 45 46 47 48 49 50 51 51 50 49 49 49 48 46 45 44 42 41 40 40 40 39 40 40 40 39 39
40 38 37 37 36 36 36 38 41 41 41 42 41 40 38 38 37 38 40 44 45 43 42 40 39 39 41 42 42 42 41 41 39 38 38 37 37 37 37 37 36 35 35
39 37 36 36 35 34 35 37 39 38 37 37 36 36 35 34 34 33 33 34 33 33 33 33 34 35 36 37 37 37 37 37 37 37 37 36 36 35 35 34 33 33 32
39 37 36 36 35 34 34 34 35 34 33 34 34 33 32 32 33 33 33 33 33 34 34 34 35 35 35 35 36 36 36 35 35 35 35 35 34 34 33 33 32 30 28
38 37 36 36 34 33 33 34 33 32 32 32 33 32 33 34 34 34 34 35 34 34 34 34 34 34 34 35 35 34 34 34 34 35 35 35 35 34 33 31 30 30 29
40 38 36 36 34 33 33 33 33 32 32 32 33 34 35 35 35 35 36 36 36 36 35 35 35 35 36 36 35 33 32 33 32 32 33 35 35 35 34 34 32 30 28
32 39 37 36 34 34 34 33 33 33 32 33 34 35 35 35 35 36 36 35 36 36 35 35 35 35 36 36 35 33 31 31 31 31 31 30 29 26 26 27 28 28 29
33 37 36 36 34 34 34 34 33 33 33 34 36 36 36 36 36 35 35 35 35 35 36 36 36 37 37 36 35 32 29 29 28 27 25 24 25 26 27 27 27 26 26
37 36 36 36 35 34 34 34 33 33 33 34 35 35 36 35 34 33 33 34 34 33 33 33 33 32 32 32 30 27 26 24 25 25 25 23 25 27 28 22 21 20 19
33 35 36 36 35 34 34 34 33 33 33 34 35 36 35 34 33 33 32 33 31 30 28 27 28 29 29 29 28 24 23 22 23 24 25 26 25 24 23 22 20 17 17
32 33 34 34 34 34 34 33 33 33 34 35 35 35 35 34 33 33 33 32 30 28 27 26 26 26 27 28 28 25 22 21 21 20 20 21 24 22 21 23 20 18 20
32 33 33 34 34 35 35 34 33 34 35 35 34 34 34 34 34 33 33 31 28 27 26 25 26 27 28 28 26 26 25 23 19 18 21 21 22 19 19 20 20 21 24
32 32 32 33 33 36 35 34 34 34 34 34 34 34 34 34 33 32 30 28 27 26 26 25 25 25 26 26 25 24 24 23 20 20 22 23 19 17 18 19 19 21 18
30 31 32 32 32 35 35 35 34 34 34 33 33 34 33 33 32 32 30 25 23 22 22 21 21 22 22 22 23 22 24 25 22 23 20 19 17 17 17 17 19 18 19
30 31 31 31 32 33 34 34 34 34 33 33 33 33 33 33 32 31 28 22 20 19 17 16 14 14 16 19 23 23 22 21 21 21 16 11 12 14 17 18 20 21 21
31 31 31 31 32 33 34 34 34 33 33 33 33 33 33 28 25 21 18 21 22 22 21 18 14 15 19 24 27 25 23 23 22 18 13 10 12 14 17 18 19 20 20

GFSMW_sfc_30mbdewp_087.txt.gz
Dewpoint
35 34 51 62 62 62 63 63 64 64 63 63 62 62 61 58 58 58 61 62 61 59 55 54 53 54 55 55 56 55 55 54 53 52 50 48 46 44 44 45 49 55 55
33 33 33 45 60 61 62 63 63 63 63 63 63 63 63 62 59 58 58 59 60 59 58 55 54 53 53 54 55 55 54 54 52 51 46 49 49 45 44 43 44 46 52
32 32 32 33 48 59 61 62 63 63 63 63 63 63 63 63 63 61 60 59 58 59 58 57 56 54 53 53 53 54 54 53 53 50 51 47 48 45 44 42 42 42 43
31 31 30 30 37 52 58 61 63 63 63 63 63 62 62 61 62 63 62 62 62 61 59 58 57 56 54 53 53 53 54 54 52 52 50 49 46 46 47 41 40 40 40
33 30 32 35 38 40 44 50 55 57 58 63 63 62 62 62 61 62 62 62 63 63 63 61 59 57 56 55 54 54 54 54 53 53 52 51 48 45 47 49 48 41 41
32 31 39 41 41 41 39 38 39 39 44 58 62 62 62 61 60 60 61 61 61 61 62 63 62 60 58 57 56 55 55 54 54 54 54 52 51 50 47 46 48 44 42
32 34 39 40 40 39 39 40 40 40 41 42 44 50 55 57 57 56 55 56 58 60 61 61 61 62 61 60 59 58 57 57 56 55 55 55 54 53 51 50 49 46 41
34 37 39 40 39 39 39 40 40 40 42 42 42 43 43 42 42 41 42 46 52 55 58 61 61 61 61 61 61 60 60 60 59 58 57 56 55 53 52 52 49 44 41
38 39 40 40 39 39 39 40 41 43 43 44 44 44 44 44 43 44 45 46 50 56 57 58 59 60 60 60 60 59 58 56 52 51 52 51 47 47 47 48 49 49 45
40 41 40 39 39 38 39 40 42 42 43 44 44 44 45 46 47 47 48 50 52 53 54 55 56 56 56 56 56 53 51 50 46 46 46 44 43 43 43 44 44 45 45
41 40 38 38 38 38 39 41 42 42 42 43 43 43 44 44 45 46 47 48 49 50 50 50 50 50 50 50 49 47 46 46 43 42 42 41 41 40 40 40 40 40 41
40 38 38 37 36 36 38 40 41 41 42 42 41 39 38 38 38 39 42 45 44 42 42 41 41 43 43 44 44 44 42 42 41 40 39 39 38 38 38 37 37 36 36
38 37 37 36 35 35 37 40 39 38 38 38 37 36 35 35 35 35 34 34 35 34 34 36 37 38 39 39 39 39 39 39 39 38 38 37 37 36 35 35 34 33 33
38 36 36 36 35 34 35 37 35 35 35 35 34 34 33 33 34 34 34 34 34 34 35 35 36 36 36 36 36 36 36 36 36 36 36 36 35 34 33 33 31 29 29
38 37 36 36 34 34 34 34 33 33 33 34 33 33 33 34 34 35 35 35 34 34 34 34 35 35 35 35 35 35 35 35 34 34 34 34 35 35 34 31 30 29 28
39 37 36 36 34 34 33 33 33 32 33 33 33 34 35 35 35 36 36 36 36 36 36 36 36 36 37 37 36 34 34 34 33 33 34 34 34 35 34 33 32 29 26
39 38 37 36 35 34 34 33 33 33 33 33 34 35 35 35 36 36 36 36 35 36 35 35 36 36 36 36 36 34 32 32 32 32 31 28 27 26 27 29 30 30 31
32 38 38 36 35 34 34 34 33 33 33 34 35 36 36 36 36 36 35 36 36 36 36 36 37 36 36 36 35 32 30 29 28 26 24 23 25 27 27 27 26 24 22
36 35 37 36 35 34 34 34 33 33 34 35 36 36 36 35 35 34 34 35 35 34 34 34 35 35 35 35 32 27 25 24 24 24 24 25 26 29 27 22 21 20 19
35 36 36 36 35 34 34 34 33 33 33 35 35 36 36 35 34 34 33 33 33 32 31 30 29 30 29 29 27 23 23 22 23 25 26 27 25 24 24 21 19 16 15
34 35 36 35 35 34 34 34 33 33 34 35 36 36 35 34 34 33 33 32 30 28 28 27 26 27 28 28 27 25 22 21 21 21 20 22 24 22 21 24 20 17 20
34 34 35 35 35 35 34 34 34 34 35 35 35 35 34 35 34 33 32 30 27 26 25 25 26 27 28 29 28 26 24 23 19 18 20 21 23 19 19 20 21 21 24
32 33 33 34 35 36 35 34 34 35 35 35 34 34 34 34 34 33 31 28 27 25 24 24 24 26 26 25 25 25 25 23 19 20 22 24 22 18 18 18 20 22 18
34 34 33 33 33 35 35 35 35 35 34 34 34 34 34 33 33 32 29 27 26 25 24 24 23 24 24 24 24 24 25 25 23 23 20 19 19 18 18 18 19 18 18
32 31 32 32 32 33 34 35 35 34 34 34 34 34 33 33 32 31 29 26 25 25 23 22 21 21 20 20 23 22 21 21 21 22 16 11 11 12 15 18 19 20 21
31 31 31 31 32 32 33 34 34 34 33 33 33 33 34 32 32 30 27 27 24 25 24 22 18 16 18 21 26 27 25 24 23 19 15 10 10 13 14 16 18 20 20

GFSMW_sfc_30mbdewp_090.txt.gz
Dewpoint
39 36 40 62 62 63 64 64 64 63 64 64 63 63 62 61 61 62 64 64 62 60 57 57 56 56 56 56 56 56 56 55 54 53 52 52 50 49 46 46 46 52 55
36 36 35 42 61 61 62 63 64 63 63 63 63 63 62 61 60 60 60 63 62 61 58 57 56 54 54 55 55 55 54 54 53 53 49 51 51 48 46 45 44 45 50
34 34 33 33 42 60 61 62 63 64 63 63 63 62 62 62 61 59 58 58 60 60 59 57 56 54 54 53 54 54 54 53 53 51 52 48 49 47 46 43 43 43 44
33 32 32 32 32 42 60 62 63 63 63 63 63 62 61 60 61 61 60 59 59 59 59 58 57 56 54 53 54 54 54 54 53 52 51 50 48 48 48 44 41 41 41
34 33 32 31 33 39 50 59 62 63 63 63 63 62 62 62 61 62 62 62 61 61 61 59 59 58 57 56 55 54 54 54 53 53 53 52 49 47 49 50 51 43 41
34 33 33 38 39 40 41 48 55 53 57 62 62 62 61 61 60 60 61 61 61 61 62 62 62 60 58 57 57 55 54 54 54 54 54 52 51 49 48 48 50 49 46
33 33 35 38 39 39 39 42 45 45 47 55 57 59 60 62 61 60 59 59 60 60 61 61 61 61 61 59 57 56 56 56 55 55 55 54 54 53 51 51 49 49 45
33 33 36 39 39 39 39 40 41 41 42 42 43 44 45 47 48 46 45 48 51 54 56 58 60 61 61 61 60 59 58 57 57 57 57 57 56 54 53 52 51 46 44
32 35 39 39 39 39 39 40 41 42 43 43 43 44 44 43 43 44 45 45 47 52 56 56 57 59 60 60 60 60 59 57 56 54 53 53 48 48 49 49 50 50 46
38 39 40 39 39 39 40 42 42 42 43 44 44 44 45 45 46 47 47 49 50 52 53 55 56 56 57 58 57 54 52 51 48 48 48 47 44 44 45 45 46 46 47
39 39 39 38 38 39 41 42 42 42 42 43 43 43 43 43 44 46 47 48 48 49 49 49 50 50 51 51 50 49 48 47 45 44 45 43 42 42 42 42 41 41 42
40 38 38 37 37 38 40 41 41 41 42 42 40 39 39 39 40 41 42 44 42 41 42 42 44 44 45 46 46 46 44 44 43 42 41 40 40 39 39 38 38 37 37
38 37 37 36 36 37 39 40 39 39 39 38 37 36 36 36 36 36 36 36 36 36 37 38 39 40 40 41 41 41 40 40 40 40 39 38 38 37 36 35 35 34 34
38 37 36 36 35 36 38 38 36 36 36 36 35 35 34 34 35 34 35 35 35 35 36 36 37 37 37 38 38 38 37 37 37 37 37 36 36 35 34 32 30 30 30
37 37 36 36 35 34 36 36 34 34 35 35 34 34 34 34 35 35 35 35 35 35 35 35 36 36 36 36 36 36 36 35 35 35 34 34 35 35 34 31 30 28 27
38 37 37 36 35 34 34 34 33 33 34 34 34 34 35 35 35 36 36 36 35 36 36 36 37 37 38 38 37 36 35 35 35 34 34 34 35 35 34 32 30 28 25
39 38 37 37 35 34 34 34 33 33 33 34 34 35 35 35 36 36 36 35 35 36 36 36 36 37 38 38 37 35 33 33 33 32 30 28 28 27 28 31 31 31 31
39 40 38 37 36 35 34 34 33 33 33 34 35 35 36 36 36 36 36 36 36 36 36 36 36 36 36 37 35 34 32 31 30 26 23 25 26 27 26 26 25 23 23
34 33 39 38 36 35 34 34 33 33 34 35 35 36 36 36 35 35 35 35 35 35 35 36 36 36 36 35 33 28 25 23 23 23 25 26 28 29 25 22 20 19 19
35 36 37 36 35 34 34 33 33 33 34 35 36 36 36 35 35 35 34 34 34 34 33 33 33 34 32 31 28 24 23 22 24 26 27 27 25 24 26 20 18 14 14
35 36 36 35 35 34 34 34 33 33 34 35 36 36 36 35 35 34 34 33 32 31 30 29 28 28 28 27 25 24 21 22 23 23 22 23 24 22 21 24 20 17 19
34 36 36 35 35 35 35 34 34 35 35 35 36 35 35 35 34 33 32 31 29 28 26 26 26 28 29 29 27 26 23 24 19 18 20 20 23 19 19 20 22 21 26
32 34 35 35 35 36 36 35 35 35 35 35 35 35 35 35 34 33 31 29 27 26 25 25 26 26 26 26 27 26 25 23 18 19 21 24 24 20 19 18 20 23 19
32 33 33 34 35 36 35 35 35 35 35 34 34 34 34 34 33 33 30 28 26 25 24 24 24 25 25 24 24 25 25 25 23 24 21 19 19 20 19 18 19 18 18
40 37 36 34 33 34 35 35 35 35 34 34 34 34 34 34 33 31 30 28 27 25 23 22 22 22 22 23 24 23 23 23 21 21 17 11 10 11 13 16 18 20 20
33 31 31 32 32 33 33 34 35 34 34 34 34 34 33 33 32 31 30 30 28 29 28 26 23 22 22 23 25 26 25 24 23 20 15 12 10 10 12 14 16 19 20

GFSMW_sfc_30mbdewp_093.txt.gz
Dewpoint
44 39 38 61 62 64 64 65 66 66 66 65 64 64 64 64 65 66 65 64 63 61 59 59 58 59 59 58 58 58 57 56 56 55 55 54 54 54 53 51 49 50 53
44 40 38 45 61 62 63 64 64 64 65 65 65 64 64 63 64 64 65 65 64 62 60 59 58 58 58 57 57 56 55 56 55 55 52 52 52 52 50 50 48 48 48
41 39 37 36 43 58 61 63 64 63 64 65 64 63 63 62 61 60 61 62 64 63 61 60 59 58 57 56 56 56 55 54 55 54 54 50 50 50 49 46 47 46 46
35 35 36 34 39 41 53 62 63 64 64 64 63 62 62 61 62 61 61 60 60 61 61 60 59 58 57 56 55 56 55 55 54 54 53 52 51 49 49 49 44 43 43
34 33 33 33 32 35 41 57 62 63 64 63 63 62 62 62 62 62 62 60 60 60 60 60 60 59 58 57 57 56 56 56 54 54 54 53 51 50 50 50 52 47 44
36 36 36 35 36 39 40 51 61 62 62 63 63 62 62 61 61 61 61 62 62 62 61 61 60 59 59 58 58 57 56 55 55 55 54 53 52 51 50 49 51 52 50
35 35 35 36 37 38 39 45 55 56 57 62 62 62 62 61 61 61 60 60 60 61 61 62 62 62 61 59 59 58 57 56 55 55 55 55 54 53 51 51 51 50 48
33 34 35 36 38 39 40 42 47 47 48 52 54 54 55 57 56 55 55 55 55 56 56 58 60 61 62 61 60 59 58 57 57 56 56 56 56 55 54 53 52 48 47
32 33 35 38 39 39 40 41 42 43 44 44 45 45 45 45 45 44 45 45 46 50 54 56 57 57 60 60 61 60 59 58 58 58 57 56 52 51 51 52 52 51 46
34 34 38 39 39 40 41 42 43 43 43 44 44 44 45 45 46 46 47 48 50 51 53 54 55 56 56 58 59 58 57 56 53 52 52 50 48 47 47 48 48 48 49
38 38 39 39 39 40 41 42 42 42 42 43 43 43 43 43 45 46 47 48 48 49 50 50 51 51 52 53 53 52 51 50 48 47 47 46 45 45 44 44 43 43 45
39 38 38 38 39 40 41 41 42 42 42 42 41 40 40 40 41 42 43 44 43 42 43 45 46 46 47 48 49 48 47 47 46 45 43 42 41 41 41 41 40 40 40
38 37 37 37 38 39 40 40 40 40 39 39 38 37 37 38 38 38 37 38 38 38 39 41 42 42 43 43 44 44 43 42 42 41 41 40 40 39 38 37 36 36 36
37 37 36 36 36 38 39 38 38 38 38 37 37 36 36 36 36 36 36 36 36 37 38 38 39 39 39 40 40 40 39 39 38 38 38 38 38 37 35 33 33 33 33
37 37 36 36 35 36 38 36 35 35 36 36 36 35 35 35 36 36 36 35 36 36 36 37 37 38 38 38 38 38 37 37 36 36 35 36 36 35 33 32 30 30 29
38 37 37 36 35 35 36 35 34 34 35 35 35 35 35 35 36 36 36 36 36 36 37 37 37 38 38 39 38 37 36 36 36 35 35 36 36 35 33 31 30 27 26
39 38 37 37 36 35 35 35 34 33 34 35 34 35 35 36 36 36 36 36 36 36 37 37 38 39 39 39 38 37 35 34 34 33 32 30 31 30 32 33 32 32 31
40 40 39 38 37 36 35 34 33 33 34 34 35 35 36 36 36 36 36 36 36 36 36 36 37 37 38 38 37 35 34 32 30 27 26 25 26 27 26 26 26 24 25
34 35 39 39 38 36 35 34 33 33 34 34 35 36 36 36 36 36 36 36 36 36 36 37 36 36 36 36 36 32 30 25 23 24 27 29 29 28 26 24 22 20 20
35 36 37 38 37 36 34 34 33 33 34 35 36 36 36 36 36 35 35 35 35 35 35 35 35 36 35 34 31 26 23 22 23 27 29 28 26 27 24 18 16 13 13
35 36 36 36 36 35 34 34 34 34 35 36 36 36 36 36 35 35 35 34 34 33 33 32 31 30 30 29 27 25 22 23 24 24 24 25 24 22 24 23 19 15 19
34 36 36 35 35 35 35 34 34 35 35 36 36 36 36 36 35 34 34 33 32 30 29 28 27 28 28 27 26 25 23 25 21 20 20 23 24 21 20 23 22 22 25
33 34 36 35 35 35 35 35 35 35 35 35 36 36 36 35 34 33 32 31 30 28 27 26 26 27 28 28 28 27 26 24 18 19 20 22 23 20 20 18 20 24 21
33 33 34 34 35 36 37 37 36 35 35 35 35 35 35 34 34 33 31 30 28 27 26 25 25 26 26 25 26 26 26 23 21 23 24 20 19 19 17 19 21 19 19
40 39 37 36 36 37 37 37 35 35 34 34 35 35 35 35 33 33 31 30 29 27 26 25 25 25 24 24 25 25 25 25 23 22 18 12 10 11 13 16 18 19 19
35 36 36 35 34 35 35 35 35 35 34 34 34 34 34 34 33 32 31 32 30 30 28 26 24 23 23 25 27 27 26 26 24 22 16 12 10 10 11 13 15 18 20

GFSMW_sfc_30mbdewp_096.txt.gz
Dewpoint
39 42 43 45 56 62 60 60 63 65 66 66 65 65 64 66 66 65 64 63 61 61 60 60 59 59 59 58 59 58 57 56 57 55 54 55 55 55 55 55 55 53 54
40 41 41 42 48 59 60 63 60 63 66 66 65 65 65 65 66 66 66 65 64 62 61 61 60 60 59 59 59 58 56 55 56 54 54 51 52 53 53 54 53 53 53
39 42 43 41 41 54 62 63 63 62 64 65 65 64 64 63 63 63 65 66 65 64 63 62 61 61 60 59 59 58 57 55 56 56 53 52 51 52 52 51 51 51 51
44 43 42 40 40 41 60 63 61 62 63 63 62 61 59 58 61 61 63 64 65 65 64 63 62 62 61 60 59 58 57 57 55 55 55 55 53 52 51 51 48 46 46
40 43 41 40 42 40 44 59 62 60 62 58 59 60 58 61 62 63 63 62 61 62 63 63 63 62 61 60 60 59 58 57 56 56 56 55 55 53 52 51 53 50 47
36 39 42 40 40 41 40 48 58 62 63 63 61 58 61 58 61 62 62 63 62 61 61 61 61 61 61 60 60 59 58 58 57 57 57 56 54 53 52 52 53 53 53
36 36 37 37 36 38 40 42 49 56 62 63 63 63 63 63 61 61 61 62 62 62 63 62 61 61 61 60 60 60 59 59 58 57 57 56 56 55 53 52 53 52 52
35 36 36 38 38 39 41 42 46 54 58 60 61 63 63 63 62 62 62 61 61 61 61 62 63 63 62 62 62 61 61 60 59 58 58 57 57 56 55 54 53 49 49
32 33 35 37 38 40 40 42 46 50 51 55 53 52 53 54 54 52 52 53 51 52 54 56 57 58 59 61 61 61 61 60 60 59 59 58 58 57 56 55 54 53 49
31 32 34 37 39 40 41 43 44 45 46 46 48 48 48 47 47 46 46 47 49 50 51 53 53 54 55 56 58 60 60 60 59 58 58 54 52 52 52 53 53 51 51
34 34 36 38 39 41 42 42 43 43 43 44 44 44 44 45 46 47 47 49 49 50 51 51 51 52 53 54 55 56 55 55 53 52 52 50 49 48 48 49 49 48 49
38 38 38 38 40 40 41 41 42 42 43 43 42 42 42 43 44 44 45 46 46 46 47 49 49 49 49 51 52 51 50 49 49 48 48 46 45 45 44 45 45 45 45
38 38 38 38 39 40 40 41 41 41 41 40 40 40 41 41 41 41 42 43 43 43 43 45 45 46 46 47 47 47 46 46 45 45 45 44 43 42 42 43 42 41 40
37 37 37 37 38 39 39 40 40 40 40 39 39 39 39 39 39 39 40 40 40 41 41 42 42 42 43 44 44 43 43 42 42 42 42 41 42 42 40 38 38 37 37
37 37 37 37 37 38 39 38 38 38 38 38 39 38 38 38 38 38 38 38 38 38 39 39 39 40 41 41 42 42 42 41 40 39 39 39 38 37 36 35 34 34 34
38 38 38 37 36 37 38 38 37 37 37 38 38 37 37 37 38 38 38 38 38 38 38 39 39 39 39 40 40 39 39 38 38 37 37 37 36 35 34 32 31 30 32
39 39 38 38 37 37 37 37 36 35 36 37 36 37 37 37 38 38 37 37 38 38 38 39 39 40 40 40 40 38 36 36 35 36 35 33 34 33 33 33 32 32 30
40 40 39 39 39 37 36 37 35 35 36 36 36 37 37 37 38 38 38 38 38 37 38 38 39 39 39 40 39 37 35 34 33 33 31 31 30 29 28 26 26 25 25
39 40 40 41 40 38 37 36 35 35 35 36 36 37 37 38 38 38 38 38 37 37 37 37 37 37 37 38 37 34 33 30 27 26 26 25 26 28 26 25 23 21 25
36 37 38 38 38 39 37 36 35 34 35 35 36 37 38 37 37 37 37 37 37 36 36 36 36 36 36 37 35 33 29 25 23 27 29 29 26 25 21 15 13 12 15
36 37 37 37 37 38 37 36 35 35 36 36 37 37 38 37 37 37 37 36 36 35 35 35 35 34 34 34 32 27 23 21 24 25 24 25 26 26 26 20 16 13 15
36 37 37 37 37 37 37 37 36 37 37 37 37 37 37 37 37 37 36 35 34 34 32 31 30 29 29 29 28 25 22 23 22 21 23 24 24 22 23 23 22 25 24
34 35 36 36 36 37 36 37 37 36 36 36 36 37 37 36 36 35 34 33 32 31 30 29 27 27 28 26 27 26 26 25 18 18 19 23 23 21 20 19 20 24 22
35 34 34 35 35 36 36 37 37 36 36 35 36 36 36 36 35 35 34 33 31 30 29 27 26 26 27 27 27 26 26 24 19 22 24 23 22 22 18 18 22 20 18
40 40 38 36 35 36 37 37 37 36 36 35 35 36 36 36 34 34 33 32 31 31 29 27 26 26 24 25 26 25 24 21 20 23 20 17 16 16 15 14 14 15 16
36 36 37 37 37 37 37 37 36 36 35 35 35 35 35 35 34 34 33 33 32 33 32 29 27 26 25 26 28 28 27 26 25 18 14 11 9 9 8 10 12 14 17

GFSMW_sfc_30mbdewp_099.txt.gz
Dewpoint
35 40 44 46 50 58 58 58 61 64 65 65 66 66 65 66 66 66 63 61 61 60 60 60 58 57 57 58 58 57 56 56 56 55 54 55 55 56 56 56 55 54 55
35 38 42 43 46 50 59 57 60 63 64 66 66 66 66 66 66 66 66 64 63 62 61 61 60 58 58 58 58 58 57 56 57 55 54 52 53 55 55 55 54 54 54
36 36 40 42 44 46 56 58 60 61 63 64 66 65 65 64 64 64 65 66 65 64 63 62 61 61 60 60 60 59 58 56 56 57 55 53 52 53 54 54 54 53 54
37 37 39 42 43 44 52 59 59 62 63 64 64 63 61 60 61 62 64 65 65 65 65 64 63 62 62 61 61 60 59 58 57 57 56 56 56 53 52 52 51 50 49
37 38 38 43 43 45 48 55 60 61 62 62 60 58 59 60 60 60 59 62 64 64 65 65 63 63 63 62 61 61 60 59 58 57 57 56 56 56 54 53 52 49 48
37 39 43 44 43 45 44 47 58 60 61 60 59 57 56 57 57 57 59 60 62 62 62 63 63 63 63 63 62 61 61 60 59 59 58 57 56 56 55 53 53 54 52
36 38 42 43 42 45 47 42 44 55 58 58 57 56 55 55 55 56 57 58 61 61 61 61 61 61 61 61 62 61 61 61 60 59 59 59 58 57 55 54 54 53 53
35 37 38 42 41 41 46 46 43 46 56 58 60 60 59 58 58 57 58 59 60 60 61 61 61 61 61 61 61 61 61 61 60 60 59 58 58 58 56 54 54 52 52
34 36 37 38 39 39 42 46 42 45 51 58 59 60 62 61 61 58 58 59 60 60 61 61 62 62 63 63 62 62 61 61 60 60 60 59 59 58 58 57 55 53 50
30 34 36 37 39 39 40 42 43 47 51 54 55 54 52 52 52 51 51 50 50 51 52 53 54 54 55 56 58 59 61 61 60 60 59 59 57 56 56 56 55 54 52
30 31 34 35 37 40 42 42 44 46 46 48 48 49 48 49 48 48 48 49 49 50 50 50 51 51 51 52 53 54 56 57 57 55 57 55 53 52 52 52 52 52 51
33 33 33 36 39 40 41 42 43 44 44 44 44 43 44 44 45 45 46 47 46 47 48 49 49 49 50 51 52 52 51 51 52 51 51 50 48 49 48 48 47 48 48
37 36 37 37 38 40 40 41 42 42 42 41 41 41 42 42 42 43 43 44 44 44 45 46 46 47 47 48 48 49 48 48 47 47 47 46 46 46 45 46 45 45 43
36 36 36 37 39 39 40 40 40 40 40 40 40 40 41 41 40 41 41 42 42 42 43 43 43 44 44 45 46 45 45 44 44 44 44 44 44 44 43 42 42 41 40
36 36 37 37 38 39 39 39 39 39 40 40 40 40 40 40 39 39 39 39 40 40 40 40 40 41 42 41 43 44 43 42 41 41 40 40 40 41 40 39 37 38 37
36 37 37 37 37 38 38 38 38 38 39 39 39 39 39 39 39 39 39 39 39 39 40 40 40 40 40 40 40 41 41 40 39 38 38 37 37 37 36 35 34 35 37
37 38 38 38 37 38 38 38 37 37 38 38 38 38 38 39 39 39 39 39 39 39 40 40 40 40 41 41 40 40 38 37 37 37 36 35 35 33 33 33 32 32 31
38 39 39 39 39 38 38 38 37 37 38 38 37 38 38 39 39 39 39 39 39 39 39 39 40 40 40 40 39 38 37 36 35 34 33 33 33 34 31 27 27 26 26
39 40 41 41 40 39 38 37 36 36 36 37 38 38 38 39 39 39 40 39 39 38 38 38 38 38 39 39 38 35 33 31 30 29 30 30 28 28 27 27 24 26 27
37 37 38 37 39 40 39 37 36 36 36 36 37 37 39 39 39 39 39 38 38 37 37 37 37 37 37 38 37 34 30 28 26 27 28 27 27 27 24 20 19 18 22
37 38 38 38 38 38 39 38 37 36 37 37 37 38 39 39 39 39 39 38 37 36 36 36 36 36 36 36 36 33 28 26 26 27 27 28 28 25 22 17 14 13 19
38 38 38 38 38 38 38 38 38 38 38 37 38 38 38 38 38 38 38 37 36 36 35 34 32 32 34 34 34 29 24 24 25 24 24 26 25 25 26 21 23 20 21
36 36 37 37 37 38 38 38 39 38 38 37 37 38 38 37 37 37 36 35 35 34 32 31 30 29 28 29 30 27 25 25 21 22 23 26 24 22 23 20 22 25 24
38 37 36 35 36 36 37 37 37 37 36 36 36 37 36 36 36 36 35 34 33 32 31 30 29 28 27 27 27 27 27 25 19 21 22 24 23 22 20 19 21 22 21
40 40 40 38 35 36 37 38 38 37 36 36 36 36 36 37 36 35 35 34 34 33 32 30 29 28 26 27 28 27 27 24 21 23 24 22 20 19 18 17 18 18 17
36 36 37 37 37 38 38 38 37 37 36 36 36 36 36 36 36 35 34 36 35 34 34 32 30 28 28 27 28 28 26 23 21 22 19 16 14 13 14 13 13 14 16

GFSMW_sfc_30mbdewp_102.txt.gz
Dewpoint
39 44 45 48 51 56 60 61 64 65 65 65 65 64 64 65 65 66 66 61 59 58 58 59 56 57 58 58 59 58 57 57 56 55 54 53 55 56 56 57 56 56 56
34 43 45 48 54 57 57 61 64 65 65 65 65 66 66 66 65 65 65 66 63 61 61 61 60 57 58 58 59 58 57 57 57 55 54 53 54 55 56 56 56 55 55
32 42 43 45 47 56 59 59 63 63 65 65 66 65 65 65 64 65 64 65 65 65 62 61 61 60 59 59 59 59 58 56 57 56 55 53 51 54 55 55 55 54 55
35 36 41 45 45 53 60 60 61 62 64 64 64 63 62 61 62 63 64 64 66 66 65 63 62 62 61 60 61 61 59 58 57 57 56 57 56 53 52 53 53 52 51
37 37 40 45 45 49 58 59 62 62 62 63 63 62 60 61 61 62 62 63 63 63 64 64 64 63 63 63 62 62 60 59 58 58 57 57 57 57 55 52 51 49 48
35 38 41 45 46 47 49 59 60 61 61 59 59 59 58 58 57 57 59 60 61 61 62 63 63 63 63 63 63 62 61 60 60 59 59 58 56 56 55 54 54 53 49
34 39 43 44 45 45 44 52 59 59 58 59 58 58 58 58 57 57 55 56 58 60 61 61 61 61 61 62 61 60 60 61 60 59 59 59 59 58 56 55 54 53 51
33 38 42 44 47 47 45 43 45 53 59 58 57 57 57 57 57 57 57 56 57 60 61 61 62 61 61 61 61 61 61 62 61 60 60 60 59 59 56 55 54 52 53
33 37 40 45 42 46 47 45 46 45 50 58 57 58 57 56 56 57 57 58 58 59 61 60 60 61 61 61 61 61 61 61 61 60 60 60 59 59 58 56 56 54 50
33 36 38 40 42 42 46 46 46 44 47 57 58 58 57 58 57 56 56 55 55 56 59 59 59 59 59 59 59 60 60 61 61 60 60 60 59 59 58 57 56 55 52
32 36 38 39 40 42 43 43 44 47 50 52 54 52 52 50 50 51 51 52 51 52 52 52 53 52 53 52 53 53 54 56 56 57 58 58 56 56 55 55 55 54 53
31 31 34 38 41 42 42 43 46 46 47 47 47 47 47 48 48 48 49 49 48 48 49 49 49 49 50 50 51 51 51 51 52 53 53 53 52 51 51 51 51 50 50
35 35 37 39 40 41 42 43 44 44 44 44 43 43 44 44 44 45 45 45 45 45 46 47 47 47 47 48 48 49 49 49 49 49 49 49 49 48 48 48 47 47 47
36 37 37 38 40 40 41 42 42 42 41 41 41 42 42 42 42 42 42 43 43 43 43 43 43 44 44 45 46 46 45 45 45 45 46 46 46 46 46 45 45 43 43
36 36 37 38 39 40 40 41 40 40 40 40 41 41 40 40 40 40 40 40 40 40 41 41 41 41 42 41 42 44 44 43 42 42 41 41 43 44 43 42 40 40 40
36 37 37 38 38 39 39 39 39 40 40 40 40 40 39 40 40 39 39 40 39 39 40 40 40 40 40 40 41 42 42 41 40 39 38 39 39 39 39 39 38 38 37
37 37 37 37 38 38 38 38 39 39 39 39 39 39 39 39 39 39 39 39 39 40 40 40 40 41 41 41 41 41 39 39 39 38 37 36 37 35 35 36 35 35 34
38 38 38 38 38 39 38 38 38 38 39 38 38 38 39 39 39 39 39 39 39 39 39 39 40 40 40 41 40 40 38 38 37 36 35 35 34 34 31 29 26 26 27
39 40 40 40 39 38 38 37 37 37 38 38 38 38 39 39 39 39 39 39 39 38 38 38 38 38 39 40 39 36 35 34 33 33 33 32 32 33 30 26 25 25 27
38 38 38 38 40 39 38 37 36 36 37 38 38 38 39 39 39 39 39 39 38 38 37 36 37 37 37 39 37 34 31 30 29 28 31 30 29 29 28 24 24 24 25
38 38 38 38 38 39 39 37 37 36 37 37 38 39 39 39 39 39 38 38 38 37 36 35 36 36 36 38 37 34 30 29 28 29 28 28 29 25 20 19 17 18 23
38 39 38 38 38 38 38 39 38 38 37 37 38 38 39 39 38 38 38 38 37 36 35 35 34 34 35 36 37 34 30 28 27 27 27 29 29 27 22 21 21 20 22
36 37 37 37 37 38 38 39 39 38 38 38 38 38 38 38 38 38 37 37 36 35 34 33 33 32 31 32 35 33 28 27 24 24 26 28 26 24 26 22 25 23 22
39 38 37 35 36 36 37 37 37 38 37 37 37 37 37 37 36 36 36 35 34 34 33 32 32 31 30 28 30 30 28 27 22 24 25 28 25 23 22 20 22 25 24
38 40 40 39 37 36 37 38 37 36 36 36 36 36 36 37 36 36 35 35 34 34 33 32 31 30 29 28 28 28 27 26 21 23 23 24 23 22 21 18 19 22 20
37 37 36 36 36 37 38 38 38 37 37 36 36 36 36 36 36 36 35 36 36 36 36 34 32 30 32 32 30 30 29 28 24 24 22 21 21 19 18 17 17 18 18

GFSMW_sfc_30mbdewp_105.txt.gz
Dewpoint
46 54 56 58 60 62 62 63 65 66 66 66 65 65 63 63 64 65 63 60 59 58 59 58 57 58 58 58 57 57 56 56 56 55 54 53 53 54 53 54 56 56 56
45 49 51 53 57 60 61 63 64 65 65 65 65 65 65 65 65 65 65 63 61 58 58 59 57 57 57 58 58 58 57 57 57 54 54 52 53 55 56 56 56 56 56
43 45 48 50 53 56 59 62 64 65 65 65 65 65 65 65 64 64 65 65 65 64 63 61 60 57 58 58 59 59 57 56 57 56 54 52 50 54 55 55 56 56 55
39 45 47 50 54 57 59 62 64 65 65 65 64 63 63 62 63 64 64 65 65 65 65 63 63 62 59 58 59 59 59 57 56 57 56 56 56 53 52 54 53 53 53
40 44 46 47 53 59 59 62 63 64 64 64 64 63 61 62 62 63 63 63 63 63 64 65 65 64 64 62 61 61 60 59 58 57 56 56 56 56 54 52 52 49 47
37 42 45 47 51 57 59 61 61 62 63 62 61 60 59 59 59 60 59 60 61 61 62 63 63 63 63 63 63 63 62 61 60 60 59 57 56 55 55 54 54 52 50
35 43 45 47 48 53 59 60 60 60 60 60 59 58 58 58 57 58 59 60 60 60 60 61 61 61 60 61 61 61 60 61 60 59 59 59 59 58 57 55 54 54 51
34 44 44 44 44 48 57 59 59 58 57 56 56 57 57 57 57 56 56 57 57 59 60 61 60 61 61 60 61 61 61 60 60 59 59 59 59 59 58 56 55 53 52
32 42 44 44 45 43 49 55 57 58 57 56 56 56 57 57 56 57 57 57 57 58 60 61 59 60 60 60 60 61 60 61 61 61 60 60 60 59 59 57 56 55 52
32 39 44 45 46 45 45 46 49 55 57 57 57 56 57 57 57 57 56 57 57 58 59 60 59 59 60 61 60 61 61 60 60 60 60 59 59 59 59 58 57 56 55
32 37 43 44 44 46 46 46 45 46 51 56 56 55 55 56 56 56 55 54 54 55 57 59 58 57 55 54 54 54 55 55 56 56 57 57 58 58 57 56 56 55 54
33 37 40 42 42 42 44 44 47 49 53 54 53 52 51 51 51 51 51 52 52 52 51 51 51 50 50 50 51 51 51 51 51 51 51 52 53 54 54 54 54 54 52
36 39 40 41 41 42 44 45 46 46 47 47 48 47 48 48 48 48 48 47 47 47 47 48 48 48 48 48 48 49 49 49 49 49 50 50 50 50 50 51 50 50 49
37 38 39 40 41 42 43 43 43 44 44 44 44 44 44 44 44 44 44 44 44 44 45 44 44 44 45 45 46 46 46 46 46 46 47 47 48 48 48 48 48 47 47
36 37 38 40 40 41 42 42 41 41 41 42 42 41 42 42 42 42 42 42 42 42 42 41 42 42 41 41 42 44 44 44 43 42 42 42 44 46 46 46 45 44 43
36 37 39 39 40 40 41 41 40 40 41 41 40 40 40 40 40 40 40 40 40 40 40 40 40 40 40 41 41 42 43 42 41 41 39 40 41 42 42 42 42 42 41
37 37 38 39 39 39 40 39 40 40 40 40 40 39 39 40 39 39 39 39 39 40 40 40 40 40 40 41 41 41 39 39 40 39 38 37 38 38 38 39 39 39 39
37 37 37 38 39 39 39 39 39 39 40 39 39 39 39 39 39 39 39 39 39 39 39 39 39 39 40 41 41 40 38 39 38 38 37 36 35 34 34 31 29 28 27
39 39 39 38 39 39 38 38 38 39 39 38 38 39 39 39 39 39 39 39 38 38 38 38 38 38 39 40 40 38 36 36 35 35 35 35 34 35 32 27 26 27 29
38 38 38 39 38 38 38 37 37 38 38 38 38 39 39 39 39 39 39 38 38 38 38 38 37 37 38 39 39 36 33 33 32 31 34 34 33 35 31 26 24 22 26
38 39 39 38 38 39 38 37 37 36 37 38 38 39 39 39 39 39 38 39 38 38 37 36 36 36 36 38 38 36 31 31 30 30 30 32 33 33 30 26 24 22 25
39 39 38 38 38 39 39 38 37 38 38 38 38 38 38 39 39 38 38 38 38 37 36 36 35 35 35 37 37 37 33 31 30 30 30 29 32 27 22 21 20 22 25
37 37 37 37 37 38 38 38 38 38 38 37 37 37 38 38 38 38 38 37 37 36 36 35 34 33 33 34 37 37 34 29 28 27 28 31 30 29 24 23 23 24 22
39 38 37 36 36 36 37 38 38 38 37 37 37 38 37 37 37 38 37 37 36 35 35 34 33 33 32 31 32 35 33 30 29 27 29 29 28 26 25 22 24 25 23
38 39 39 38 37 36 37 38 37 37 37 37 37 37 37 37 36 36 36 36 35 35 34 34 33 32 32 31 30 32 30 28 24 24 26 28 25 23 22 21 19 23 25
37 37 36 35 35 36 37 38 38 37 37 36 36 37 37 37 37 36 35 36 37 36 36 36 34 33 34 33 33 32 31 29 26 24 22 24 25 23 22 20 18 19 22

GFSMW_sfc_30mbdewp_108.txt.gz
Dewpoint
45 48 59 62 63 64 64 65 65 66 66 65 65 64 62 62 62 61 60 60 60 60 59 59 59 59 59 58 58 57 56 56 56 54 54 54 53 53 53 52 54 55 56
45 46 58 60 61 62 63 63 64 65 65 65 65 65 64 64 64 64 61 60 59 60 59 58 58 58 58 58 57 57 56 56 56 54 54 51 52 55 54 55 54 55 56
44 44 54 57 59 60 62 62 64 64 65 65 65 64 64 64 64 64 63 63 62 60 60 59 57 57 58 58 58 58 57 56 57 56 53 51 49 53 55 55 56 56 56
42 44 50 55 57 59 60 63 63 63 65 66 65 64 63 62 63 64 64 64 65 64 63 62 61 59 58 58 58 59 58 57 56 56 56 56 55 53 51 54 53 54 54
43 42 49 52 55 58 59 62 64 64 64 64 63 63 62 62 63 63 63 63 63 64 65 64 63 63 62 61 60 61 59 59 57 56 56 56 56 55 54 52 52 49 48
39 40 48 51 55 58 59 61 63 63 63 63 62 61 62 61 61 61 61 61 61 62 63 64 64 64 64 63 62 62 62 61 60 59 58 57 56 55 55 54 53 51 49
37 44 47 51 56 58 59 60 61 61 62 62 61 60 60 59 59 59 59 59 60 60 61 62 62 62 62 62 62 61 61 61 61 60 60 59 59 58 57 56 54 53 51
41 45 47 51 55 57 59 60 60 60 61 60 59 59 58 58 58 59 59 59 59 59 60 61 61 61 61 60 60 60 60 60 60 60 60 59 59 60 59 57 55 53 53
41 44 46 47 52 57 58 59 59 59 59 58 57 57 57 57 57 57 57 57 57 58 59 59 59 60 60 60 60 59 59 59 59 59 60 59 59 60 59 58 56 54 53
36 44 44 44 47 55 56 58 58 57 56 55 55 55 56 56 56 56 56 56 56 57 58 59 59 59 60 60 60 59 59 59 60 60 60 60 59 59 58 58 57 57 56
33 43 44 45 45 48 52 53 55 56 56 56 55 55 55 56 56 56 56 56 56 57 58 59 59 58 58 58 58 57 57 57 57 56 56 56 56 56 57 57 57 56 55
32 42 44 45 45 45 47 49 48 52 54 56 55 55 55 55 55 55 54 53 54 54 55 55 55 53 52 51 51 52 52 51 51 50 50 50 51 52 53 54 54 54 54
35 39 43 43 44 45 45 45 46 48 52 53 53 53 52 51 51 51 50 49 49 49 49 49 49 49 48 48 48 48 48 48 48 48 48 48 50 50 50 51 51 51 51
38 39 41 42 42 44 45 45 47 48 49 49 49 48 48 48 47 46 46 45 45 45 46 46 45 45 45 45 45 45 45 45 45 45 45 46 46 47 48 48 49 49 49
38 39 40 41 42 43 43 43 44 44 44 44 44 44 44 44 43 43 43 43 43 43 43 42 42 42 42 41 42 43 44 43 43 43 43 42 43 44 46 46 47 46 45
37 38 39 40 41 41 42 41 41 41 42 42 42 41 42 41 41 41 41 41 40 40 40 40 40 40 40 41 41 42 41 42 42 41 40 40 41 41 43 44 44 44 44
37 38 39 40 40 41 41 41 40 41 41 40 40 40 40 40 39 39 39 39 39 39 39 39 40 40 40 41 41 41 39 38 38 39 39 39 38 39 40 40 40 40 40
37 38 39 39 39 40 40 40 40 40 40 40 39 39 40 39 39 39 39 39 39 39 39 39 39 39 40 41 40 39 38 38 38 38 38 37 36 35 36 33 31 31 29
38 38 38 39 39 39 39 39 39 39 39 39 39 39 39 39 39 38 38 38 38 38 38 38 38 38 38 40 39 38 37 36 36 35 35 35 35 37 34 30 29 29 30
38 39 39 39 39 39 38 38 38 38 38 39 39 39 39 39 38 38 38 38 37 37 37 37 37 36 37 39 39 37 34 34 34 33 34 36 35 37 34 27 26 26 28
38 39 38 38 38 39 38 37 37 37 38 39 38 38 39 39 39 38 38 38 38 38 38 37 37 36 36 37 39 38 34 33 32 31 31 33 35 36 34 30 25 23 27
38 38 37 38 38 39 38 37 37 37 38 38 38 38 38 39 38 38 38 38 37 37 36 36 36 36 35 37 38 38 37 33 31 31 31 30 35 35 32 27 25 25 27
37 37 37 36 36 38 39 38 38 38 38 38 38 38 38 38 38 37 37 37 37 37 36 36 35 35 35 34 36 38 39 37 32 30 30 31 32 30 26 25 22 25 23
39 37 36 36 36 36 37 38 38 38 37 37 37 37 37 37 37 38 38 37 37 37 36 35 35 34 34 33 33 34 38 36 32 29 29 31 32 31 28 25 25 24 22
38 39 38 37 36 36 37 37 37 37 37 37 37 37 37 38 37 37 37 37 37 36 36 35 34 34 33 33 33 33 33 33 30 27 27 29 28 26 25 23 21 24 25
37 37 36 35 35 35 36 37 38 37 36 36 36 37 37 37 37 37 36 37 37 37 37 37 35 34 35 35 35 35 34 34 34 28 23 25 27 25 24 22 20 19 23

GFSMW_sfc_30mbdewp_111.txt.gz
Dewpoint
46 46 47 56 61 62 65 66 66 66 66 65 64 63 62 62 61 60 61 63 63 62 61 61 61 60 60 59 58 57 56 56 56 55 54 54 54 53 52 52 53 54 56
44 45 46 56 61 61 62 64 65 65 65 65 64 64 63 63 62 62 60 61 61 61 61 60 60 60 59 59 58 57 56 56 56 54 53 52 50 54 54 53 53 53 55
44 44 44 47 60 62 63 64 64 65 66 65 65 64 63 64 63 63 63 62 60 60 60 59 59 59 59 58 58 57 57 56 56 55 53 50 48 52 54 55 55 55 56
45 45 44 45 56 61 63 64 64 65 65 65 64 62 60 59 62 63 63 63 62 60 61 60 58 58 59 58 58 58 57 57 56 56 56 55 55 53 51 54 53 53 55
45 46 44 47 54 60 61 63 64 64 64 65 63 62 61 60 63 63 63 63 64 64 62 62 62 59 59 59 59 59 59 59 58 56 56 56 55 55 54 52 53 51 49
46 46 45 47 52 58 60 61 62 62 62 63 63 61 61 61 61 62 63 63 63 63 63 63 63 63 63 61 60 61 61 60 60 60 58 57 55 55 54 54 54 53 51
44 43 43 44 53 57 59 61 61 61 62 62 62 62 61 62 62 62 62 61 61 61 62 63 63 63 63 63 63 62 62 62 61 61 60 59 59 58 56 55 55 54 54
44 39 43 47 53 57 59 60 60 59 60 60 60 61 61 61 61 60 60 60 60 60 61 61 62 61 61 60 60 60 60 59 59 59 59 59 59 60 59 57 56 53 53
37 41 47 51 55 57 58 59 59 59 60 60 59 59 59 58 58 58 58 59 58 58 59 60 60 60 60 60 59 59 58 59 58 58 58 58 59 59 59 59 58 55 52
36 44 46 50 54 56 57 58 58 58 58 58 58 57 57 57 57 56 57 57 57 57 57 58 58 58 59 59 59 59 59 58 58 58 59 59 59 59 59 58 58 57 55
34 43 45 47 52 54 56 57 57 57 57 56 56 55 55 56 56 55 55 55 55 56 56 57 58 58 58 59 59 58 58 57 56 55 54 54 54 53 54 55 55 55 55
33 42 44 45 46 51 53 54 55 55 55 54 54 54 55 55 55 55 55 55 55 55 56 57 58 56 55 53 53 53 52 52 51 50 50 49 49 50 51 51 51 52 53
32 41 44 44 45 48 50 51 50 53 54 55 54 53 53 54 53 53 52 51 51 51 51 51 51 49 49 48 48 48 48 48 47 47 47 46 46 47 48 49 49 50 51
37 39 43 43 44 45 46 46 47 49 51 52 53 52 50 50 49 49 47 47 47 47 47 47 46 46 45 45 45 45 44 44 44 44 44 44 44 44 45 46 47 48 48
39 39 41 42 43 44 44 45 46 48 49 49 49 48 46 46 45 45 44 44 44 44 43 43 42 41 41 41 41 42 42 42 42 42 42 41 41 43 44 45 45 46 46
38 40 41 42 42 43 43 43 43 44 44 44 44 43 44 43 42 42 42 41 41 41 41 40 40 40 41 42 43 41 40 40 40 40 39 39 40 40 42 43 43 44 43
38 39 40 41 42 42 42 41 41 42 42 42 41 42 41 41 40 40 40 40 39 39 39 39 39 39 40 42 42 40 38 37 37 38 38 39 38 38 38 37 37 37 38
38 39 39 40 40 41 41 40 40 41 41 40 40 40 40 40 39 39 39 38 38 38 38 38 38 39 40 41 40 40 38 38 38 38 38 37 37 36 36 34 33 32 33
38 38 39 39 39 40 40 40 40 40 40 39 39 39 39 39 39 38 38 38 38 38 38 38 38 37 38 40 39 38 36 36 36 36 36 35 35 36 36 32 30 30 31
39 39 39 39 39 39 39 39 39 39 39 39 39 39 39 39 38 38 37 37 37 37 37 37 37 37 37 38 39 38 35 34 34 33 34 36 35 36 37 30 27 27 29
38 38 38 38 38 39 38 38 38 38 39 39 39 39 39 39 38 38 37 37 37 37 37 37 37 37 35 36 38 40 36 34 33 32 32 33 35 36 37 33 26 25 27
38 38 37 37 38 39 38 37 37 37 38 39 38 38 38 39 38 38 37 37 37 37 37 36 36 36 35 36 37 39 39 36 33 32 32 31 33 36 36 33 30 28 29
37 37 36 36 36 38 39 38 38 38 37 37 38 37 37 38 37 37 37 37 37 36 36 36 36 35 35 35 36 38 39 39 36 32 31 32 32 35 33 28 26 24 26
38 37 37 36 36 36 37 38 38 37 37 37 37 37 37 37 37 37 37 37 36 36 36 36 35 35 35 34 34 34 35 38 38 33 31 31 32 32 30 28 25 24 24
38 38 38 36 36 36 37 37 37 38 37 37 36 37 37 38 37 37 37 37 37 37 36 35 34 34 34 34 34 34 33 34 35 31 28 28 29 29 29 26 23 23 24
37 36 36 35 35 35 35 37 37 37 36 36 37 37 37 37 37 37 36 38 38 37 37 38 36 35 36 36 36 36 37 37 36 33 27 27 26 27 27 25 23 21 21

GFSMW_sfc_30mbdewp_114.txt.gz
Dewpoint
43 47 47 51 60 63 60 65 66 66 65 64 63 63 62 62 62 63 63 62 62 61 60 60 58 59 57 56 58 58 57 56 56 55 55 55 55 54 53 51 53 55 56
43 45 45 48 61 58 63 63 65 66 65 64 64 63 62 62 61 61 63 64 63 62 61 61 60 60 59 58 58 57 56 56 56 55 53 52 51 53 54 53 52 52 54
44 44 45 45 52 61 62 63 60 66 65 65 64 63 63 62 61 61 60 61 63 62 61 61 61 60 60 59 59 58 57 56 56 55 54 51 48 50 54 55 54 54 54
46 45 45 45 48 59 63 63 64 65 65 65 64 63 61 61 62 61 61 61 61 61 61 60 60 60 60 59 59 58 57 57 56 56 56 55 53 52 51 54 53 53 55
46 44 45 45 52 59 62 63 63 64 65 64 64 62 61 62 63 62 62 62 62 62 62 61 59 60 60 59 59 59 58 58 57 56 57 56 55 55 54 51 53 51 50
46 46 46 45 52 60 59 59 60 63 64 63 62 59 57 57 61 62 62 62 63 63 62 62 62 62 61 60 60 60 60 60 59 59 58 57 56 55 55 54 53 53 53
45 45 44 44 54 57 56 56 57 55 61 62 61 60 59 58 60 61 61 62 62 62 62 62 62 63 63 62 62 61 61 61 61 61 60 60 59 58 57 56 55 54 55
45 45 43 42 52 57 58 57 56 57 58 61 61 61 60 60 61 60 60 62 62 62 63 63 63 63 63 63 62 61 61 60 59 58 59 59 59 59 58 57 55 53 53
45 43 41 44 51 56 58 59 59 59 59 60 60 61 61 61 61 61 61 62 60 60 61 61 61 61 60 60 59 59 58 58 58 58 58 58 58 59 59 58 58 55 52
41 42 40 45 53 57 58 58 58 58 59 59 58 58 59 59 58 58 59 58 58 58 59 59 59 59 59 59 59 58 58 58 58 58 58 58 57 57 57 57 57 57 55
35 37 43 48 54 55 56 56 57 57 56 56 57 57 57 56 56 56 56 56 56 56 56 57 57 57 57 58 58 58 57 56 56 53 52 51 50 50 51 51 51 52 54
34 38 44 47 52 54 55 55 55 55 55 55 55 55 55 55 55 54 54 55 55 55 56 57 57 57 56 55 56 55 53 53 51 50 48 47 48 47 48 49 49 50 51
32 40 44 45 49 51 53 53 54 54 54 54 53 53 54 54 53 53 53 53 52 52 52 53 52 51 50 50 49 49 48 47 46 46 45 45 44 44 45 46 46 48 49
37 37 42 44 45 47 49 49 51 53 53 53 52 52 52 52 51 50 49 49 49 49 48 48 47 47 46 46 45 44 44 44 43 43 43 43 43 43 43 44 44 45 46
39 39 40 42 44 45 45 46 47 49 51 52 51 50 48 48 47 46 45 45 45 45 44 44 43 42 42 42 42 42 41 41 41 40 40 40 41 41 43 43 43 44 44
39 40 41 42 43 43 44 44 45 46 48 48 47 46 45 44 44 43 43 42 42 42 41 40 40 41 42 44 42 40 40 39 39 39 39 39 39 40 41 42 42 43 42
38 39 41 42 43 43 43 43 42 43 43 43 43 43 42 42 42 41 41 40 40 39 39 39 39 40 42 43 41 39 38 36 37 38 38 38 38 37 37 37 36 35 37
38 39 40 40 41 41 41 41 41 41 41 41 41 41 41 40 40 40 39 38 38 38 38 38 38 38 41 41 40 39 38 38 38 38 38 37 37 36 37 34 33 32 33
38 38 39 39 40 40 40 40 40 40 40 40 40 40 40 39 39 38 38 38 38 37 37 37 37 37 38 41 39 38 36 35 35 35 35 36 35 36 37 33 31 30 31
39 38 38 39 39 39 39 39 39 39 39 39 39 39 39 39 38 38 37 37 37 37 37 36 36 38 36 38 39 38 36 34 34 34 34 36 36 36 38 33 30 28 28
38 38 38 38 38 38 39 38 38 38 39 39 39 39 39 38 38 37 37 37 37 37 36 37 37 37 36 36 39 39 36 35 34 33 33 33 35 37 38 35 29 26 26
37 38 37 37 38 39 38 37 37 37 38 39 38 38 38 38 38 37 37 37 37 36 37 37 36 37 36 37 38 39 40 37 35 33 32 32 33 34 37 36 33 30 29
37 37 36 36 36 38 39 37 37 38 37 38 37 37 37 38 37 37 37 37 37 36 36 35 35 35 35 35 37 38 39 39 38 35 33 33 33 33 36 34 28 26 27
38 37 37 36 36 36 37 37 37 37 37 37 37 37 37 37 37 37 37 36 36 36 35 35 35 35 35 35 35 35 35 38 39 38 35 32 32 33 33 31 26 25 25
37 37 37 36 36 36 37 37 37 37 37 36 36 36 37 37 37 37 37 37 37 37 36 36 35 35 34 34 34 34 33 34 35 35 30 29 29 30 30 29 26 24 24
37 37 36 35 34 34 34 35 37 37 36 36 37 37 37 37 37 37 37 38 38 38 38 37 36 35 36 36 37 37 37 37 37 35 31 29 29 28 27 27 26 24 23

GFSMW_sfc_30mbdewp_117.txt.gz
Dewpoint
42 45 45 48 52 57 55 63 65 65 64 63 62 62 61 61 61 61 61 62 62 61 61 60 60 60 58 58 58 58 57 57 56 55 56 56 56 55 55 53 53 54 57
42 44 45 47 50 56 57 62 65 65 64 63 63 63 62 63 62 62 60 61 61 61 60 59 59 59 58 57 58 58 57 57 57 56 55 54 53 53 55 55 53 53 55
42 43 44 46 48 58 60 62 64 65 64 64 63 63 63 62 61 62 62 62 62 62 61 60 59 58 58 57 57 58 58 57 57 56 56 53 50 51 54 55 55 54 53
45 45 45 46 49 59 60 58 59 63 65 65 64 62 61 60 61 61 62 63 63 62 62 61 61 60 60 60 59 59 59 58 57 57 56 56 54 53 51 54 54 54 55
46 45 45 46 54 61 60 59 59 61 63 65 64 63 62 61 62 61 61 61 62 62 62 61 61 61 61 61 61 60 59 59 58 57 57 57 56 56 54 53 53 53 51
45 46 47 46 58 60 61 61 59 58 61 62 63 62 60 62 61 61 61 61 61 62 62 61 61 61 61 61 60 61 60 59 59 59 58 57 56 56 55 54 54 54 53
46 45 44 53 56 57 58 57 57 59 61 62 60 59 58 58 61 61 61 61 61 61 62 62 62 62 61 61 61 61 61 61 60 60 60 60 59 59 57 56 55 55 55
46 46 43 52 56 56 55 54 57 58 60 59 60 59 59 59 59 61 61 61 61 62 62 62 62 62 63 63 62 62 61 61 60 59 59 58 58 58 58 56 55 53 54
46 45 43 51 56 56 56 54 55 57 58 59 60 59 59 59 60 60 61 61 61 62 62 63 62 62 62 62 62 61 60 59 59 58 58 58 58 58 59 58 57 55 51
47 45 47 50 56 57 58 57 56 56 57 59 60 60 60 61 61 61 60 60 60 61 61 61 61 61 60 60 59 58 58 58 58 58 58 57 55 54 54 54 55 56 55
39 43 46 52 55 56 57 57 58 57 58 58 58 58 58 59 59 60 59 59 59 59 59 59 59 59 59 58 58 57 57 56 56 54 53 51 50 50 50 51 51 51 51
35 44 45 50 54 55 55 55 56 56 56 56 56 56 56 57 56 56 56 56 57 56 56 57 57 57 57 58 58 56 55 54 52 49 48 47 47 47 47 48 48 49 50
35 43 45 49 52 53 53 54 54 54 55 55 55 55 55 55 54 54 54 54 54 54 56 56 56 55 54 54 54 52 50 49 47 46 45 44 44 44 45 45 45 46 47
38 40 43 45 48 50 51 52 53 53 53 53 53 53 53 53 53 52 52 52 51 51 51 51 50 50 49 48 47 46 45 44 44 44 43 43 43 42 43 43 44 45 44
40 40 41 43 45 47 47 49 51 52 52 52 51 51 51 50 49 48 48 48 48 47 46 46 45 44 44 44 44 43 43 42 42 41 41 41 41 41 43 43 43 42 42
39 41 42 43 43 44 45 46 48 50 51 50 49 48 47 47 46 45 45 44 44 44 43 42 42 42 43 42 42 41 41 40 40 40 39 40 39 40 42 41 41 41 41
38 40 41 42 43 43 44 44 45 46 47 46 45 45 44 44 43 43 42 42 41 41 40 40 41 42 43 42 42 41 39 38 39 39 38 39 38 37 37 37 36 36 37
38 39 40 40 41 41 41 42 42 42 42 43 43 43 42 42 41 41 40 39 39 39 39 39 40 41 42 42 41 40 39 39 39 38 38 37 37 37 37 35 34 33 33
38 38 39 40 40 40 40 40 40 40 40 41 41 41 41 40 40 39 39 38 38 38 38 38 38 40 41 41 40 38 37 36 36 36 36 36 36 36 38 35 34 32 32
38 38 38 39 39 39 39 39 39 39 39 39 40 40 39 39 39 38 38 37 38 37 37 37 37 37 38 41 40 38 36 35 35 35 35 36 37 37 38 35 32 31 29
38 38 38 38 38 38 39 38 38 38 39 39 39 39 39 38 38 37 37 37 37 37 37 37 37 38 36 37 40 39 37 36 34 34 34 34 35 37 37 37 32 30 26
37 37 37 37 37 39 38 37 37 37 39 39 38 38 38 38 37 37 37 37 37 36 36 37 37 37 37 37 38 39 39 38 35 34 33 33 34 35 36 37 35 33 30
37 37 36 36 36 37 38 37 37 38 38 38 38 37 38 38 37 37 37 37 36 36 37 36 36 36 36 36 38 39 39 40 38 36 35 34 34 34 35 37 35 29 28
39 38 37 36 36 36 37 37 37 37 37 37 37 37 37 37 37 37 37 37 36 36 36 35 35 36 35 35 36 36 37 39 39 39 37 36 33 34 33 34 29 26 26
37 36 36 36 35 36 36 37 37 37 36 36 36 37 37 37 37 37 37 36 36 37 36 36 36 35 35 35 35 35 34 34 35 36 33 31 31 31 31 31 29 26 25
38 37 36 35 34 34 34 34 36 37 36 36 36 37 37 37 37 36 37 38 38 38 38 37 36 35 36 36 37 37 37 37 37 35 33 32 30 30 29 28 28 27 26